Date StartTime U_cm/s V_cm/s W_cm/s Ustd_cm/s Vstd_cm/s Wstd_cm/s Uvar_(cm/s)^2 Vvar_(cm/s)^2 Wvar_(cm/s)^2 KE_(m/s)^2 TurbulentKE_(m/s)^2 HorizWindSpeed_cm/s FrictionSpeec_cm/s DragCoef SpeedOfSound_m/s SonicTemperature_C Pressure_mb 
06/26/2014  00:00:00     -404.748     -157.133      -12.251      172.721      116.177       61.664    29832.623    13497.149     3802.427       11.789        2.357      434.180       68.547        0.025      342.850       18.545      858.694
06/26/2014  00:01:00     -491.755      -42.872      -28.372      159.763      118.394       65.040    25524.130    14017.183     4230.260       14.411        2.189      493.621       66.300        0.018      342.841       18.530      858.697
06/26/2014  00:02:00     -435.052      -99.292      -22.250      202.459      129.752       81.205    40989.577    16835.574     6594.329       13.201        3.221      446.239       98.220        0.048      342.830       18.511      858.672
06/26/2014  00:03:00     -387.198      -36.329      -27.549      209.104      119.125       71.548    43724.675    14190.735     5119.136       10.751        3.152      388.899       91.939        0.056      342.823       18.501      858.674
06/26/2014  00:04:00     -319.857      -57.717      -20.687      168.773      125.113       65.352    28484.382    15653.286     4270.884        7.723        2.420      325.023       62.579        0.037      342.824       18.501      858.672
06/26/2014  00:05:00     -243.602      -55.648       -2.951      182.604      158.551       74.066    33344.280    25138.389     5485.763        6.320        3.198      249.878       89.091        0.127      342.818       18.492      858.655
06/26/2014  00:06:00     -361.621      -97.402      -19.211      160.832      153.163       66.317    25867.033    23458.977     4397.990        9.717        2.686      374.509       70.438        0.035      342.819       18.493      858.619
06/26/2014  00:07:00     -486.573     -120.673      -29.624      152.451      118.183       70.423    23241.398    13967.107     4959.364       14.717        2.108      501.314       60.997        0.015      342.799       18.457      858.608
06/26/2014  00:08:00     -347.985      -42.339      -23.084      140.035      110.343       55.087    19609.881    12175.504     3034.527        7.911        1.741      350.551       64.831        0.034      342.825       18.503      858.614
06/26/2014  00:09:00     -363.734     -114.849      -22.079      149.537      122.032       74.208    22361.450    14891.891     5506.825        9.436        2.138      381.435       82.483        0.047      342.802       18.463      858.644
06/26/2014  00:10:00     -299.285       -5.710       -8.042      179.886      111.631       78.534    32358.796    12461.528     6167.524        7.032        2.549      299.340       86.652        0.084      342.783       18.431      858.663
06/26/2014  00:11:00     -322.785      -59.076      -11.451      125.929      102.144       70.466    15858.058    10433.322     4965.399        6.953        1.563      328.147       69.296        0.045      342.782       18.430      858.669
06/26/2014  00:12:00     -347.616       -8.410      -26.207      113.742      120.144       60.511    12937.267    14434.485     3661.525        7.631        1.552      347.718       53.997        0.024      342.790       18.442      858.646
06/26/2014  00:13:00     -293.660      -41.873      -22.594      140.773      131.816       63.425    19817.147    17375.429     4022.736        6.485        2.061      296.631       51.189        0.030      342.795       18.450      858.627
06/26/2014  00:14:00     -281.079      -81.797        3.637      136.839       96.772       64.421    18724.999     9364.794     4150.009        5.897        1.612      292.739       62.386        0.045      342.778       18.421      858.617
06/26/2014  00:15:00     -423.117      -18.937      -33.668      126.350      103.313       64.182    15964.398    10673.657     4119.287       10.563        1.538      423.541       67.796        0.026      342.768       18.405      858.606
06/26/2014  00:16:00     -350.601      -49.803      -16.740      166.106      151.021       74.099    27591.263    22807.344     5490.648        9.078        2.794      354.121       84.203        0.057      342.744       18.364      858.583
06/26/2014  00:17:00     -327.520      -48.624      -15.181      171.168      129.099       62.569    29298.572    16666.639     3914.871        7.986        2.494      331.110       65.858        0.040      342.744       18.365      858.558
06/26/2014  00:18:00     -327.426     -123.391        2.113      181.325      128.244       78.290    32878.635    16446.458     6129.373        8.894        2.773      349.904       88.637        0.064      342.775       18.416      858.543
06/26/2014  00:19:00     -381.323      -68.150      -25.908      142.443      102.401       56.747    20289.868    10486.039     3220.273        9.235        1.700      387.365       66.785        0.030      342.749       18.372      858.574
06/26/2014  00:20:00     -431.964      -56.402      -25.373      133.960      131.812       66.758    17945.248    17374.493     4456.668       11.509        1.989      435.631       61.648        0.020      342.728       18.338      858.575
06/26/2014  00:21:00     -301.836       -2.656       -7.376      124.883      123.921       59.614    15595.668    15356.498     3553.785        6.283        1.725      301.848       62.255        0.043      342.743       18.364      858.584
06/26/2014  00:22:00     -387.065       23.377      -27.132      150.151       86.894       64.625    22545.192     7550.606     4176.355        9.268        1.714      387.770       69.801        0.032      342.736       18.351      858.599
06/26/2014  00:23:00     -304.123       32.926      -14.408      116.262      100.272       57.456    13516.942    10054.542     3301.193        6.032        1.344      305.900       53.522        0.031      342.731       18.344      858.608
06/26/2014  00:24:00     -365.419        7.676      -34.977      128.322       93.946       59.974    16466.562     8825.927     3596.884        8.185        1.444      365.500       59.468        0.026      342.752       18.379      858.587
06/26/2014  00:25:00     -290.688      -78.046      -14.121      133.769      124.581       65.890    17894.134    15520.532     4341.446        6.427        1.888      300.983       70.038        0.054      342.765       18.399      858.548
06/26/2014  00:26:00     -384.704     -125.499      -13.230      151.267      109.207       61.096    22881.667    11926.240     3732.733       10.122        1.927      404.657       63.614        0.025      342.735       18.350      858.518
06/26/2014  00:27:00     -346.547      -38.813      -11.432      158.156      113.182       71.736    25013.229    12810.220     5146.061        8.234        2.148      348.713       69.751        0.040      342.747       18.369      858.512
06/26/2014  00:28:00     -314.747       18.148      -15.629      146.325      120.364       73.336    21410.971    14487.517     5378.106        7.045        2.064      315.269       71.657        0.052      342.731       18.343      858.523
06/26/2014  00:29:00     -379.249      -77.234        1.459      175.991      116.378       74.137    30972.715    13543.746     5496.276        9.990        2.501      387.033       84.194        0.047      342.717       18.319      858.524
06/26/2014  00:30:00     -476.078       15.332      -47.481      167.599       89.976       72.233    28089.587     8095.722     5217.657       13.526        2.070      476.325       77.856        0.027      342.735       18.349      858.510
06/26/2014  00:31:00     -428.884     -127.852       -9.559      163.403      113.877       76.438    26700.685    12967.985     5842.714       12.294        2.276      447.535       86.131        0.037      342.724       18.331      858.494
06/26/2014  00:32:00     -439.817     -184.200      -19.161      128.158      120.952       72.486    16424.389    14629.373     5254.269       13.202        1.815      476.832       61.252        0.017      342.720       18.324      858.481
06/26/2014  00:33:00     -309.138     -100.576       -8.112      107.172      105.617       49.359    11485.824    11155.025     2436.290        6.541        1.254      325.087       42.931        0.017      342.736       18.352      858.482
06/26/2014  00:34:00     -403.701     -104.506      -30.270      100.798      106.139       54.768    10160.262    11265.528     2999.576        9.961        1.221      417.009       42.527        0.010      342.747       18.370      858.467
06/26/2014  00:35:00     -334.447     -118.379      -15.164      144.002      122.708       71.323    20736.658    15057.339     5086.915        8.348        2.044      354.779       76.870        0.047      342.749       18.373      858.456
06/26/2014  00:36:00     -390.634     -144.776      -40.892      166.679      128.617       65.919    27781.896    16542.387     4345.299       11.194        2.433      416.599       62.222        0.022      342.755       18.383      858.429
06/26/2014  00:37:00     -515.064      -48.278      -42.131      158.267      151.317       80.674    25048.410    22896.797     6508.339       16.192        2.723      517.321       82.928        0.026      342.721       18.324      858.416
06/26/2014  00:38:00     -382.145      -63.430      -13.937      164.862      137.993       77.742    27179.516    19042.206     6043.847       10.125        2.613      387.373       86.459        0.050      342.722       18.328      858.408
06/26/2014  00:39:00     -409.908     -119.044        0.109      141.217       95.481       73.097    19942.227     9116.639     5343.119       10.829        1.720      426.844       73.329        0.030      342.710       18.306      858.401
06/26/2014  00:40:00     -294.144      -31.529      -16.464      105.494      108.024       51.112    11128.926    11669.175     2612.430        5.659        1.271      295.829       49.907        0.028      342.712       18.311      858.403
06/26/2014  00:41:00     -349.651      -80.015       -2.523      165.287      147.525       70.974    27319.879    21763.575     5037.268        9.138        2.706      358.690       78.422        0.048      342.697       18.285      858.387
06/26/2014  00:42:00     -446.718      -32.832      -38.862      166.691      125.229       75.216    27785.772    15682.348     5657.379       12.563        2.456      447.923       94.506        0.045      342.680       18.255      858.361
06/26/2014  00:43:00     -391.398      -72.069      -17.409      147.384      103.771       69.934    21722.172    10768.405     4890.824        9.803        1.869      397.978       72.700        0.033      342.671       18.240      858.351
06/26/2014  00:44:00     -418.810      -91.290      -16.903      215.470      107.105       72.646    46427.339    11471.540     5277.420       12.359        3.159      428.644       83.021        0.038      342.661       18.224      858.318
06/26/2014  00:45:00     -187.526      -39.472       10.946      127.082      119.201       57.582    16149.925    14208.848     3315.697        3.525        1.684      191.635       60.653        0.100      342.671       18.242      858.301
06/26/2014  00:46:00     -278.988      -33.983      -18.082      121.357      121.629       58.820    14727.577    14793.571     3459.812        5.614        1.649      281.050       46.912        0.028      342.655       18.214      858.301
06/26/2014  00:47:00     -352.949      -50.502      -12.380      137.851      151.959       54.818    19002.911    23091.623     3005.059        8.618        2.255      356.544       59.007        0.027      342.641       18.189      858.289
06/26/2014  00:48:00     -271.806      -91.766       -1.376      127.594      109.325       57.361    16280.277    11952.062     3290.315        5.691        1.576      286.879       64.853        0.051      342.666       18.232      858.266
06/26/2014  00:49:00     -285.279     -108.608       -7.453      119.467      124.314       70.684    14272.340    15453.919     4996.176        6.397        1.736      305.254       73.266        0.058      342.637       18.182      858.225
06/26/2014  00:50:00     -291.194      -61.833      -16.351      149.043      100.817       66.831    22213.733    10164.111     4466.345        6.286        1.842      297.687       57.630        0.037      342.639       18.186      858.163
06/26/2014  00:51:00     -393.871      -69.140      -13.236      160.351      121.684       66.404    25712.494    14807.040     4409.509       10.250        2.246      399.893       71.146        0.032      342.630       18.170      858.146
06/26/2014  00:52:00     -387.493      -44.335      -29.713      108.696      130.252       61.419    11814.739    16965.552     3772.253        9.277        1.628      390.022       61.051        0.025      342.627       18.167      858.122
06/26/2014  00:53:00     -337.509      -46.489       -6.617      157.192       90.527       70.728    24709.217     8195.183     5002.440        7.701        1.895      340.696       69.639        0.042      342.623       18.159      858.152
06/26/2014  00:54:00     -432.446      -63.323      -19.556      201.823      128.253       68.091    40732.481    16448.873     4636.446       12.660        3.091      437.058       85.811        0.039      342.630       18.171      858.216
06/26/2014  00:55:00     -263.387     -104.709       -7.172      164.219      189.240       74.098    26967.824    35811.756     5490.471        7.432        3.414      283.437       84.508        0.089      342.621       18.156      858.245
06/26/2014  00:56:00     -253.701      -94.629      -13.596      129.544       81.071       52.340    16781.751     6572.535     2739.485        4.979        1.305      270.774       47.288        0.030      342.618       18.151      858.234
06/26/2014  00:57:00     -318.111      -26.467      -16.893      152.833       99.221       71.711    23357.964     9844.766     5142.445        7.026        1.917      319.210       83.863        0.069      342.617       18.149      858.222
06/26/2014  00:58:00     -251.104      -34.088      -20.164      123.251      125.608       51.768    15190.803    15777.271     2679.909        4.913        1.682      253.407       48.132        0.036      342.618       18.151      858.173
06/26/2014  00:59:00     -369.237      -63.789      -29.256      132.184      123.139       69.237    17472.687    15163.239     4793.792        8.934        1.871      374.706       65.875        0.031      342.597       18.115      858.164
06/26/2014  01:00:00     -464.943      -95.493      -18.608      167.221      122.949       77.467    27963.006    15116.336     6001.081       13.735        2.454      474.648       81.570        0.030      342.594       18.110      858.167
06/26/2014  01:01:00     -438.957      -71.568      -32.178      174.744      149.301       76.021    30535.321    22290.728     5779.208       12.871        2.930      444.753       80.153        0.032      342.600       18.122      858.148
06/26/2014  01:02:00     -258.077      -49.153        4.212      119.222      110.030       61.199    14213.911    12106.654     3745.267        4.955        1.503      262.716       62.138        0.056      342.607       18.133      858.166
06/26/2014  01:03:00     -321.204      -54.998      -24.535      124.969       99.153       52.091    15617.157     9831.341     2713.500        6.748        1.408      325.879       48.592        0.022      342.606       18.131      858.191
06/26/2014  01:04:00     -220.416      -18.921        8.779      186.677       98.643       76.822    34848.228     9730.425     5901.554        4.974        2.524      221.227       87.275        0.156      342.624       18.162      858.200
06/26/2014  01:05:00     -351.675      -62.042      -19.289      166.173      106.352       69.329    27613.477    11310.646     4806.501        8.581        2.187      357.106       73.019        0.042      342.596       18.113      858.217
06/26/2014  01:06:00     -286.374      -55.862       -6.081      163.073      114.207       64.266    26592.678    13043.296     4130.150        6.446        2.188      291.771       65.849        0.051      342.585       18.095      858.223
06/26/2014  01:07:00     -193.897      -17.035        7.850      105.117       79.599       55.628    11049.559     6336.075     3094.434        2.921        1.024      194.644       64.216        0.109      342.570       18.071      858.186
06/26/2014  01:08:00     -284.657      -94.682      -10.399      155.569       97.307       63.660    24201.674     9468.573     4052.584        6.391        1.886      299.991       64.773        0.047      342.579       18.084      858.165
06/26/2014  01:09:00     -385.555        6.537        0.365      155.184      119.621       76.489    24082.071    14309.188     5850.610        9.646        2.212      385.610       78.614        0.042      342.553       18.041      858.156
06/26/2014  01:10:00     -300.105     -139.512      -19.328      164.280      142.509       76.015    26988.057    20308.715     5778.319        8.148        2.654      330.948       73.387        0.049      342.572       18.073      858.150
06/26/2014  01:11:00     -259.054       21.038      -24.479       97.138      128.831       56.803     9435.705    16597.375     3226.627        4.870        1.463      259.907       39.552        0.023      342.569       18.066      858.143
06/26/2014  01:12:00     -372.299      -51.404      -41.865      161.552      113.327       57.183    26099.125    12842.917     3269.938        9.260        2.111      375.831       74.111        0.039      342.590       18.104      858.120
06/26/2014  01:13:00     -269.004      -37.043       -9.703      101.888       95.983       56.344    10381.128     9212.806     3174.597        4.830        1.138      271.542       51.100        0.035      342.574       18.077      858.099
06/26/2014  01:14:00     -169.759      -51.218       -2.977       72.793       79.960       40.047     5298.791     6393.536     1603.745        2.237        0.665      177.317       38.082        0.046      342.561       18.054      858.079
06/26/2014  01:15:00     -262.161        1.053      -18.405      121.371      121.991       54.716    14730.846    14881.687     2993.834        5.083        1.630      262.163       58.255        0.049      342.548       18.033      858.053
06/26/2014  01:16:00     -162.823      -56.619      -18.328       69.125       74.872       35.571     4778.252     5605.756     1265.331        2.085        0.582      172.387       34.858        0.041      342.553       18.040      858.034
06/26/2014  01:17:00      -91.163      -52.710        8.364       65.541       71.585       37.815     4295.675     5124.459     1429.937        1.100        0.543      105.304       35.823        0.116      342.573       18.076      858.039
06/26/2014  01:18:00     -191.155     -114.502       -2.469      117.034      100.256       50.944    13697.002    10051.191     2595.242        3.800        1.317      222.825       53.788        0.058      342.555       18.045      858.037
06/26/2014  01:19:00     -168.367      -75.208       -0.916       82.509       50.684       36.376     6807.718     2568.855     1323.237        2.235        0.535      184.401       31.841        0.030      342.561       18.055      858.068
06/26/2014  01:20:00     -225.571      -17.590       -8.161      115.478       69.080       50.157    13335.094     4772.077     2515.683        3.594        1.031      226.255       57.441        0.064      342.547       18.029      858.127
06/26/2014  01:21:00     -179.630     -118.696       -6.953       89.271      102.424       53.824     7969.318    10490.649     2897.057        3.388        1.068      215.303       46.597        0.047      342.548       18.032      858.179
06/26/2014  01:22:00     -156.021      -61.009        3.474       80.865       71.894       33.603     6539.133     5168.678     1129.154        2.045        0.642      167.525       32.830        0.038      342.551       18.038      858.210
06/26/2014  01:23:00     -185.453      -39.777       -4.935       89.976      100.682       43.714     8095.601    10136.840     1910.955        2.807        1.007      189.671       45.327        0.057      342.544       18.025      858.219
06/26/2014  01:24:00     -235.924      -91.833      -13.268      123.473      107.568       50.844    15245.488    11570.816     2585.109        4.683        1.470      253.166       56.687        0.050      342.558       18.050      858.220
06/26/2014  01:25:00     -134.820      -12.909        9.535      112.741       90.451       62.692    12710.486     8181.301     3930.337        2.162        1.241      135.436       60.082        0.197      342.526       17.996      858.225
06/26/2014  01:26:00     -186.084      -84.313      -13.915      119.214       93.856       54.414    14211.902     8809.024     2960.884        3.395        1.299      204.294       55.582        0.074      342.568       18.065      858.224
06/26/2014  01:27:00     -218.921        6.811       -7.432      105.618      106.193       47.599    11155.163    11276.899     2265.708        3.636        1.235      219.026       45.233        0.043      342.551       18.037      858.233
06/26/2014  01:28:00     -182.472      -27.764      -10.405       99.045       94.067       45.846     9809.862     8848.676     2101.844        2.746        1.038      184.572       29.390        0.025      342.572       18.073      858.226
06/26/2014  01:29:00     -285.866      -70.006      -14.587      130.770      118.874       59.493    17100.843    14131.146     3539.408        6.080        1.739      294.313       67.532        0.053      342.541       18.020      858.231
06/26/2014  01:30:00     -209.921      -36.063       11.688      143.002      122.004       71.579    20449.708    14884.980     5123.485        4.297        2.023      212.996       75.210        0.125      342.542       18.024      858.237
06/26/2014  01:31:00     -273.895     -100.498        4.250      158.214      134.145       69.506    25031.596    17994.995     4831.073        6.649        2.393      291.750       75.426        0.067      342.542       18.022      858.262
06/26/2014  01:32:00     -416.052      -36.284      -26.230      164.190      132.338       63.968    26958.414    17513.256     4091.899       11.183        2.428      417.631       65.923        0.025      342.540       18.019      858.289
06/26/2014  01:33:00     -411.859      -65.933      -22.186      185.890      179.476       81.302    34555.085    32211.646     6610.011       12.391        3.669      417.103       84.327        0.041      342.516       17.979      858.296
06/26/2014  01:34:00     -380.486        4.364      -23.195      124.598      131.922       68.871    15524.637    17403.348     4743.220        9.149        1.884      380.512       74.247        0.038      342.514       17.974      858.307
06/26/2014  01:35:00     -210.604      -56.186       -6.532      131.536      109.140       57.178    17301.837    11911.461     3269.363        4.001        1.624      217.970       66.309        0.093      342.508       17.966      858.275
06/26/2014  01:36:00     -129.155      -72.385       13.110      142.326      117.232       64.858    20256.768    13743.231     4206.580        3.014        1.910      148.056       76.874        0.270      342.500       17.951      858.255
06/26/2014  01:37:00     -297.252      -37.788      -14.569      156.798      112.398       70.841    24585.578    12633.252     5018.383        6.611        2.112      299.644       85.436        0.081      342.506       17.961      858.246
06/26/2014  01:38:00     -336.295     -133.016      -22.267      154.049      127.286       72.429    23731.219    16201.612     5245.959        8.822        2.259      361.646       68.559        0.036      342.527       17.995      858.244
06/26/2014  01:39:00     -293.179      -42.061        0.010      145.342      115.100       71.041    21124.165    13248.093     5046.838        6.356        1.971      296.181       74.516        0.063      342.519       17.984      858.244
06/26/2014  01:40:00     -281.117      -67.613      -12.181      138.566      120.689       75.045    19200.526    14565.796     5631.794        6.157        1.970      289.133       68.123        0.056      342.524       17.992      858.257
06/26/2014  01:41:00     -313.351      -82.229       -9.785      104.578      124.382       68.162    10936.503    15470.818     4646.064        6.804        1.553      323.961       59.051        0.033      342.542       18.022      858.250
06/26/2014  01:42:00     -332.596      -61.083      -18.602      143.073       92.408       70.053    20469.872     8539.285     4907.441        7.430        1.696      338.158       80.390        0.057      342.518       17.982      858.234
06/26/2014  01:43:00     -396.161     -122.742      -24.758       94.640      130.461       60.856     8956.736    17020.093     3703.483       10.115        1.484      414.740       38.726        0.009      342.523       17.989      858.217
06/26/2014  01:44:00     -302.354      -83.717       -0.859      119.475      102.482       63.459    14274.207    10502.469     4027.052        6.361        1.440      313.730       67.184        0.046      342.511       17.969      858.214
06/26/2014  01:45:00     -192.612       -7.920       -2.930      133.947       84.362       52.050    17941.862     7116.952     2709.167        3.246        1.388      192.775       61.793        0.103      342.503       17.958      858.220
06/26/2014  01:46:00     -138.917      -13.444       -1.153       98.713       70.099       48.079     9744.250     4913.855     2311.599        1.822        0.848      139.566       44.882        0.103      342.543       18.025      858.206
06/26/2014  01:47:00     -216.681      -21.137      -23.993      138.136       67.815       40.634    19081.445     4598.896     1651.123        3.665        1.267      217.709       51.176        0.055      342.537       18.014      858.185
06/26/2014  01:48:00     -235.224      -86.666      -12.578      113.434       71.835       49.590    12867.371     5160.197     2459.172        4.174        1.024      250.682       43.690        0.030      342.513       17.973      858.157
06/26/2014  01:49:00     -205.502      -35.968       -6.908      109.988      111.252       48.517    12097.401    12377.115     2353.934        3.520        1.341      208.626       37.047        0.032      342.516       17.978      858.149
06/26/2014  01:50:00     -330.510     -114.524       -3.771      192.371      123.090       83.719    37006.460    15151.121     7008.840        9.076        2.958      349.789       92.579        0.070      342.523       17.990      858.090
06/26/2014  01:51:00     -302.248      -12.660       -4.973      171.133      147.538       69.897    29286.540    21767.411     4885.569        7.373        2.797      302.513       84.921        0.079      342.484       17.922      858.082
06/26/2014  01:52:00     -241.757      -51.962       -0.660      125.499      101.519       67.279    15749.960    10306.200     4526.416        4.586        1.529      247.278       74.219        0.090      342.491       17.936      858.071
06/26/2014  01:53:00     -306.396      -61.842      -11.604      154.544      118.464       68.875    23883.734    14033.660     4743.736        7.024        2.133      312.574       75.117        0.058      342.489       17.931      858.055
06/26/2014  01:54:00     -285.144       -2.080       -2.249      178.638      107.899       74.423    31911.550    11642.243     5538.815        6.520        2.455      285.151       88.197        0.096      342.503       17.956      857.987
06/26/2014  01:55:00     -273.912      -47.224      -14.013       89.987      118.266       57.610     8097.638    13986.878     3318.908        5.142        1.270      277.953       50.844        0.033      342.488       17.931      857.960
06/26/2014  01:56:00     -351.386      -56.679       -9.821      159.396      130.006       67.638    25407.061    16901.671     4574.958        8.682        2.344      355.928       79.525        0.050      342.479       17.916      857.952
06/26/2014  01:57:00     -471.233      -64.296      -28.581      157.861      131.212       67.662    24920.253    17216.459     4578.088       13.686        2.336      475.599       65.384        0.019      342.490       17.933      857.934
06/26/2014  01:58:00     -400.267      -94.230       -0.727      167.094      115.787       64.724    27920.424    13406.601     4189.251       10.730        2.276      411.209       72.722        0.031      342.471       17.901      857.923
06/26/2014  01:59:00     -388.814     -116.011       -6.089      161.739      143.570       88.427    26159.571    20612.371     7819.262       10.962        2.730      405.752       89.459        0.049      342.457       17.877      857.930
06/26/2014  02:00:00     -390.670     -131.508      -15.229      184.753      101.191       68.750    34133.813    10239.673     4726.556       10.962        2.455      412.210       61.631        0.022      342.469       17.896      857.915
06/26/2014  02:01:00     -369.805     -104.125      -18.324      188.704      121.208       73.496    35609.234    14691.261     5401.634       10.181        2.785      384.185       77.806        0.041      342.473       17.903      857.882
06/26/2014  02:02:00     -368.668      -80.457      -19.011      124.592      125.193       74.981    15523.263    15673.287     5622.171        8.978        1.841      377.345       60.541        0.026      342.466       17.891      857.835
06/26/2014  02:03:00     -276.660      -65.817      -12.919      189.244      136.213       69.960    35813.227    18553.931     4894.400        7.014        2.963      284.381       84.064        0.087      342.448       17.862      857.791
06/26/2014  02:04:00     -294.654      -42.134       -2.645      146.572      107.268       57.960    21483.460    11506.371     3359.380        6.247        1.817      297.651       64.249        0.047      342.464       17.888      857.775
06/26/2014  02:05:00     -385.538      -70.173      -15.178      138.910      116.468       61.065    19296.068    13564.766     3728.882        9.519        1.829      391.872       61.612        0.025      342.451       17.866      857.780
06/26/2014  02:06:00     -292.504      -52.752      -16.521      190.135      101.137       63.116    36151.466    10228.752     3983.689        6.948        2.518      297.222       84.177        0.080      342.507       17.962      857.804
06/26/2014  02:07:00     -250.170      -39.872      -17.358      127.818       85.936       49.481    16337.539     7384.932     2448.337        4.532        1.309      253.328       46.030        0.033      342.484       17.922      857.811
06/26/2014  02:08:00     -169.868      -13.683        4.798      101.014       78.461       45.184    10203.784     6156.058     2041.629        2.373        0.920      170.419       50.589        0.088      342.499       17.950      857.777
06/26/2014  02:09:00     -279.367      -23.224       -6.037      126.377       80.627       45.428    15971.114     6500.707     2063.700        5.157        1.227      280.330       48.407        0.030      342.491       17.932      857.761
06/26/2014  02:10:00     -225.530      -81.805       -3.967      106.087       75.283       46.979    11254.508     5667.590     2207.045        3.835        0.956      239.908       42.270        0.031      342.441       17.851      857.760
06/26/2014  02:11:00     -212.646      -29.684        3.065      131.977       76.347       50.088    17417.991     5828.923     2508.852        3.593        1.288      214.708       54.589        0.065      342.441       17.851      857.750
06/26/2014  02:12:00     -238.418      -69.206       -0.202      144.660       85.696       48.959    20926.461     7343.813     2396.992        4.614        1.533      248.259       55.295        0.050      342.416       17.809      857.758
06/26/2014  02:13:00     -231.586      -82.313       -9.047      110.755       95.261       50.236    12266.765     9074.664     2523.614        4.217        1.193      245.779       49.583        0.041      342.424       17.822      857.783
06/26/2014  02:14:00     -233.687      -14.157        0.383      138.039      109.151       63.529    19054.708    11913.902     4035.901        4.490        1.750      234.116       70.005        0.089      342.424       17.822      857.808
06/26/2014  02:15:00     -217.121      -15.458        1.554      134.319       79.019       59.110    18041.578     6244.034     3493.982        3.758        1.389      217.670       65.791        0.091      342.437       17.844      857.816
06/26/2014  02:16:00     -196.045      -17.017        1.174      118.117       77.169       59.821    13951.668     5955.020     3578.562        3.110        1.174      196.783       63.617        0.105      342.461       17.885      857.822
06/26/2014  02:17:00     -295.159      -12.369      -14.372      122.842       76.954       50.889    15090.080     5921.894     2589.654        5.554        1.180      295.418       52.085        0.031      342.482       17.918      857.839
06/26/2014  02:18:00     -200.946      -68.985        4.505      131.898      122.238       54.903    17396.987    14942.228     3014.336        4.025        1.768      212.457       59.949        0.080      342.450       17.866      857.836
06/26/2014  02:19:00     -245.503      -31.704      -12.723      119.850       73.673       45.363    14364.126     5427.702     2057.817        4.164        1.092      247.541       56.495        0.052      342.457       17.876      857.807
06/26/2014  02:20:00     -257.895       19.309       -7.136       88.915       92.092       53.028     7905.795     8480.886     2811.999        4.306        0.960      258.617       40.724        0.025      342.440       17.848      857.792
06/26/2014  02:21:00     -303.452      -69.717      -15.911      123.103       97.356       52.664    15154.445     9478.169     2773.470        6.230        1.370      311.357       54.694        0.031      342.422       17.816      857.784
06/26/2014  02:22:00     -306.331      -56.085      -18.054      105.109       84.459       50.432    11047.822     7133.395     2543.404        5.901        1.036      311.423       43.276        0.019      342.416       17.807      857.772
06/26/2014  02:23:00     -380.967      -71.449      -25.585      175.238      114.813       60.439    30708.525    13181.916     3652.890        9.921        2.377      387.609       77.083        0.040      342.434       17.836      857.751
06/26/2014  02:24:00     -308.182      -45.497       -3.528      110.416       95.055       63.718    12191.638     9035.491     4059.981        6.117        1.264      311.522       64.223        0.043      342.418       17.810      857.736
06/26/2014  02:25:00     -298.284      -88.838       -0.452      126.952      101.933       62.638    16116.890    10390.388     3923.574        6.364        1.522      311.232       52.714        0.029      342.431       17.833      857.725
06/26/2014  02:26:00     -376.992      -79.287       -7.392      170.179      136.865       79.492    28960.885    18732.120     6318.940       10.123        2.701      385.239       77.194        0.040      342.441       17.849      857.737
06/26/2014  02:27:00     -349.205      -35.964      -13.885      125.215      114.646       66.357    15678.738    13143.799     4403.217        7.832        1.661      351.052       59.201        0.028      342.484       17.921      857.753
06/26/2014  02:28:00     -417.388      -90.747       -0.322      153.194      118.590       63.880    23468.302    14063.608     4080.641       11.202        2.081      427.139       65.906        0.024      342.427       17.826      857.749
06/26/2014  02:29:00     -278.359      -93.415        3.564      159.185      123.165       69.134    25339.814    15169.604     4779.463        6.575        2.264      293.616       68.227        0.054      342.434       17.837      857.716
06/26/2014  02:30:00     -322.019       -8.344      -16.795      119.053      126.263       57.818    14173.714    15942.249     3342.930        6.875        1.673      322.128       58.189        0.033      342.490       17.934      857.709
06/26/2014  02:31:00     -257.873      -27.477       -5.007      115.152      109.320       47.287    13259.985    11950.790     2236.098        4.736        1.372      259.333       38.412        0.022      342.471       17.901      857.694
06/26/2014  02:32:00     -237.959       -5.953       -6.742      107.833       97.996       63.233    11627.961     9603.216     3998.365        4.096        1.261      238.033       61.750        0.067      342.499       17.948      857.676
06/26/2014  02:33:00     -238.947      -87.699       12.810      146.417      137.774       62.223    21438.042    18981.615     3871.692        5.461        2.215      254.533       74.867        0.087      342.462       17.886      857.672
06/26/2014  02:34:00     -195.518      -45.525       -0.766      135.111       71.349       52.696    18255.078     5090.623     2776.901        3.321        1.306      200.748       60.109        0.090      342.483       17.920      857.678
06/26/2014  02:35:00     -179.434      -39.932        0.239      136.210       88.610       59.888    18553.094     7851.782     3586.556        3.189        1.500      183.824       57.764        0.099      342.492       17.937      857.660
06/26/2014  02:36:00     -305.452      -40.655      -24.509      122.052      110.846       51.788    14896.730    12286.945     2682.021        6.271        1.493      308.146       51.586        0.028      342.512       17.971      857.633
06/26/2014  02:37:00     -237.328      -64.836       -5.405      135.923      111.412       54.944    18475.130    12412.696     3018.883        4.723        1.695      246.025       55.026        0.050      342.484       17.923      857.614
06/26/2014  02:38:00     -203.405      -47.217       -0.286       99.149      115.824       51.049     9830.458    13415.148     2605.963        3.472        1.293      208.814       47.268        0.051      342.524       17.991      857.606
06/26/2014  02:39:00     -230.607      -89.940       -3.554       98.948      129.002       51.526     9790.805    16641.391     2654.902        4.518        1.454      247.525       53.782        0.047      342.505       17.958      857.599
06/26/2014  02:40:00     -159.141      -25.870        0.865       75.226       67.928       39.137     5658.935     4614.197     1531.729        1.890        0.590      161.230       34.354        0.045      342.534       18.008      857.580
06/26/2014  02:41:00     -249.440      -39.217       -9.923      109.750       87.236       45.683    12044.965     7610.164     2086.953        4.280        1.087      252.504       47.921        0.036      342.484       17.922      857.560
06/26/2014  02:42:00     -182.435      -36.859        3.208      124.655       82.087       47.492    15538.814     6738.275     2255.499        2.959        1.227      186.121       61.111        0.108      342.483       17.922      857.569
06/26/2014  02:43:00     -100.564      -21.610       29.249       84.570       86.979       46.570     7152.136     7565.357     2168.794        1.416        0.844      102.860       41.399        0.162      342.466       17.893      857.560
06/26/2014  02:44:00     -211.996      -25.705       -4.200       93.362       76.379       45.834     8716.412     5833.731     2100.784        3.113        0.833      213.548       51.032        0.057      342.496       17.942      857.568
06/26/2014  02:45:00     -315.309      -95.273      -12.809      116.465      122.853       58.735    13564.037    15092.843     3449.793        7.038        1.605      329.389       51.174        0.024      342.448       17.861      857.567
06/26/2014  02:46:00     -351.461      -55.599       -8.075      161.730       99.974       65.230    26156.664     9994.847     4254.992        8.354        2.020      355.832       63.062        0.031      342.485       17.923      857.552
06/26/2014  02:47:00     -419.698      -70.843      -26.476      139.371      113.604       63.110    19424.155    12905.874     3982.876       10.908        1.816      425.635       67.272        0.025      342.479       17.914      857.532
06/26/2014  02:48:00     -343.242     -122.324      -23.454       82.109       88.264       44.495     6741.898     7790.450     1979.824        7.492        0.826      364.387       28.550        0.006      342.451       17.867      857.533
06/26/2014  02:49:00     -228.792      -62.032       -5.074       82.424       89.122       40.354     6793.778     7942.699     1628.446        3.629        0.818      237.052       41.000        0.030      342.480       17.916      857.542
06/26/2014  02:50:00     -230.343      -43.234        2.814      104.812       82.041       43.336    10985.649     6730.680     1877.994        3.726        0.980      234.365       50.176        0.046      342.440       17.848      857.556
06/26/2014  02:51:00     -286.571      -35.022       -3.712      163.852      101.278       57.016    26847.495    10257.329     3250.881        6.185        2.018      288.703       69.481        0.058      342.470       17.898      857.552
06/26/2014  02:52:00     -308.241      -43.004       -9.924      121.764       97.653       60.080    14826.407     9536.066     3609.568        6.246        1.399      311.227       64.617        0.043      342.437       17.843      857.555
06/26/2014  02:53:00     -205.079      -71.761       11.830      107.583       99.754       58.170    11574.023     9950.874     3383.796        3.612        1.245      217.272       63.887        0.086      342.447       17.861      857.537
06/26/2014  02:54:00     -243.962      -47.677       -8.702      110.710      111.967       53.526    12256.736    12536.502     2865.039        4.476        1.383      248.577       55.792        0.050      342.464       17.891      857.548
06/26/2014  02:55:00     -287.443      -75.229      -14.695      112.522      125.071       56.757    12661.153    15642.768     3221.357        6.001        1.576      297.124       55.322        0.035      342.466       17.892      857.512
06/26/2014  02:56:00     -315.456      -44.405      -13.405      140.482      104.696       64.455    19735.294    10961.354     4154.436        6.825        1.743      318.566       70.034        0.048      342.451       17.868      857.495
06/26/2014  02:57:00     -377.820      -91.797      -25.072      130.045      108.190       63.687    16911.582    11704.993     4056.007        9.223        1.634      388.812       59.090        0.023      342.447       17.859      857.493
06/26/2014  02:58:00     -159.512      -18.774       10.382      114.641       88.128       54.342    13142.452     7766.622     2953.068        2.488        1.193      160.613       53.608        0.111      342.429       17.830      857.472
06/26/2014  02:59:00     -340.051      -84.842      -12.011       97.562      112.493       58.593     9518.253    12654.688     3433.094        7.429        1.280      350.475       46.434        0.018      342.429       17.829      857.444
06/26/2014  03:00:00     -281.658      -85.776        4.520      132.668      110.409       60.688    17600.673    12190.126     3683.066        6.009        1.674      294.429       60.661        0.042      342.412       17.800      857.454
06/26/2014  03:01:00     -255.780        8.052      -31.754       80.884       73.744       57.576     6542.222     5438.163     3314.978        4.089        0.765      255.907       45.925        0.032      342.477       17.910      857.452
06/26/2014  03:02:00     -209.003      -32.900      -10.048      108.984       85.745       52.064    11877.532     7352.214     2710.705        3.340        1.097      211.577       49.560        0.055      342.436       17.841      857.432
06/26/2014  03:03:00     -292.941      -81.597      -20.533       92.122      107.439       52.418     8486.406    11543.042     2747.672        5.783        1.139      304.092       45.906        0.023      342.418       17.810      857.439
06/26/2014  03:04:00     -317.067      -36.663      -10.438      128.237      128.104       52.264    16444.781    16410.721     2731.541        6.878        1.779      319.180       55.228        0.030      342.431       17.832      857.434
06/26/2014  03:05:00     -310.829      -49.478      -18.829      138.302      126.134       54.967    19127.460    15909.790     3021.387        6.873        1.903      314.742       61.386        0.038      342.419       17.812      857.423
06/26/2014  03:06:00     -270.995      -74.589       -9.678      124.665       87.938       57.356    15541.328     7733.096     3289.700        5.283        1.328      281.072       54.391        0.037      342.401       17.782      857.427
06/26/2014  03:07:00     -210.992      -34.206        7.252      139.441       99.740       67.260    19443.930     9948.083     4523.907        3.982        1.696      213.746       65.732        0.095      342.429       17.831      857.442
06/26/2014  03:08:00     -340.891      -69.592      -19.114      144.759       87.618       62.142    20955.306     7676.839     3861.685        7.695        1.625      347.922       62.996        0.033      342.409       17.794      857.453
06/26/2014  03:09:00     -357.219      -84.855       -6.554      145.174      111.810       71.942    21075.560    12501.405     5175.643        8.679        1.938      367.159       78.652        0.046      342.385       17.754      857.454
06/26/2014  03:10:00     -225.162      -66.772       -4.220      101.742      103.213       58.449    10351.535    10652.927     3416.296        3.979        1.221      234.854       49.318        0.044      342.388       17.758      857.427
06/26/2014  03:11:00     -310.494      -17.634      -17.192      131.133       90.108       56.562    17195.987     8119.533     3199.211        6.276        1.426      310.994       62.472        0.040      342.408       17.793      857.393
06/26/2014  03:12:00     -395.973     -105.306      -19.860      174.946      112.679       73.167    30605.953    12696.542     5353.393       10.846        2.433      409.737       85.940        0.044      342.391       17.765      857.383
06/26/2014  03:13:00     -251.215      -48.609      -18.426      114.248      102.186       56.955    13052.640    10442.014     3243.920        4.627        1.337      255.875       61.280        0.057      342.407       17.792      857.380
06/26/2014  03:14:00     -290.387       -6.284      -24.798      127.657      101.430       56.715    16296.241    10288.042     3216.591        5.738        1.490      290.455       50.208        0.030      342.432       17.835      857.375
06/26/2014  03:15:00     -192.154      -18.328       -4.098       85.824       89.006       62.820     7365.825     7922.105     3946.378        2.825        0.962      193.026       50.845        0.069      342.416       17.808      857.355
06/26/2014  03:16:00     -265.762      -89.340        3.438      129.575      132.967       61.242    16789.588    17680.172     3750.588        5.842        1.911      280.377       61.097        0.047      342.386       17.754      857.349
06/26/2014  03:17:00     -221.223      -27.476        3.565      134.395      123.143       61.554    18062.102    15164.158     3788.922        4.336        1.851      222.923       62.368        0.078      342.380       17.744      857.339
06/26/2014  03:18:00     -366.263      -83.455      -24.111       96.202      102.230       54.708     9254.809    10451.046     2992.926        8.219        1.135      375.651       41.975        0.012      342.389       17.761      857.324
06/26/2014  03:19:00     -198.109     -103.249       -1.498      132.625      108.824       70.693    17589.481    11842.659     4997.521        4.216        1.721      223.400       68.556        0.094      342.374       17.735      857.323
06/26/2014  03:20:00     -204.345      -56.714      -13.516      136.744       84.258       52.447    18699.007     7099.437     2750.674        3.685        1.427      212.069       64.573        0.093      342.375       17.738      857.328
06/26/2014  03:21:00     -231.504      -29.388      -15.553      123.367      108.877       48.192    15219.468    11854.164     2322.487        4.204        1.470      233.362       61.256        0.069      342.391       17.764      857.306
06/26/2014  03:22:00     -264.639      -55.669       -1.655      109.934       97.083       50.427    12085.558     9425.198     2542.884        4.859        1.203      270.431       39.787        0.022      342.372       17.732      857.299
06/26/2014  03:23:00     -238.363      -20.748       -5.998       91.268       98.432       50.312     8329.858     9688.838     2531.271        3.891        1.027      239.265       47.448        0.039      342.381       17.748      857.253
06/26/2014  03:24:00     -243.258      -62.338       -3.592      105.965      113.846       52.617    11228.586    12960.894     2768.534        4.501        1.348      251.118       37.012        0.022      342.386       17.756      857.172
06/26/2014  03:25:00     -199.294      -43.530       14.930       81.300       85.542       44.370     6609.637     7317.467     1968.666        2.886        0.795      203.992       43.217        0.045      342.343       17.685      857.177
06/26/2014  03:26:00     -135.638       -0.472       -9.887      114.098       54.887       29.539    13018.243     3012.584      872.552        1.770        0.845      135.639       38.173        0.079      342.347       17.692      857.219
06/26/2014  03:27:00      -78.946      -35.075        1.328       98.249       59.408       31.672     9652.859     3529.352     1003.086        1.082        0.709       86.387       39.453        0.209      342.333       17.668      857.249
06/26/2014  03:28:00     -293.507      -48.365       -7.415      169.040       84.277       54.450    28574.537     7102.596     2964.846        6.358        1.932      297.465       74.035        0.062      342.378       17.744      857.235
06/26/2014  03:29:00     -273.828     -102.712        3.655      106.845      109.313       56.182    11415.947    11949.346     3156.411        5.603        1.326      292.458       60.851        0.043      342.390       17.761      857.249
06/26/2014  03:30:00     -244.647      -67.560      -16.181      106.456      110.172       53.966    11332.895    12137.956     2912.309        4.553        1.319      253.804       38.143        0.023      342.400       17.779      857.253
06/26/2014  03:31:00     -233.412     -149.468       -9.724      103.256       89.069       59.591    10661.903     7933.237     3551.113        4.953        1.107      277.167       58.543        0.045      342.363       17.716      857.235
06/26/2014  03:32:00     -187.200      -58.534        3.914       93.034       85.530       47.078     8655.315     7315.332     2216.376        2.833        0.909      196.138       45.439        0.054      342.364       17.719      857.229
06/26/2014  03:33:00     -276.166      -45.906      -23.656      133.980      101.327       62.098    17950.648    10267.217     3856.202        5.550        1.604      279.956       65.613        0.055      342.398       17.776      857.257
06/26/2014  03:34:00     -196.999      -24.735      -11.005      131.785       76.208       54.536    17367.380     5807.712     2974.159        3.284        1.307      198.546       70.802        0.127      342.364       17.719      857.253
06/26/2014  03:35:00      -62.178       -5.112       12.041       52.935       55.163       34.274     2802.103     3042.942     1174.683        0.553        0.351       62.387       21.600        0.120      342.381       17.751      857.225
06/26/2014  03:36:00     -108.195      -27.027        3.401       98.005       39.010       31.315     9604.980     1521.788      980.604        1.228        0.605      111.520       30.085        0.073      342.382       17.752      857.238
06/26/2014  03:37:00      -82.076      -53.500        2.341      103.473       69.703       40.042    10706.698     4858.510     1603.329        1.338        0.858       97.973       47.269        0.233      342.353       17.703      857.276
06/26/2014  03:38:00     -151.727     -162.834       -6.098      143.030      125.199       66.595    20457.452    15674.729     4434.881        4.506        2.028      222.567       60.992        0.075      342.375       17.737      857.279
06/26/2014  03:39:00     -131.952     -117.134        4.687      129.208       88.468       58.597    16694.761     7826.615     3433.557        2.955        1.398      176.442       53.723        0.093      342.362       17.716      857.256
06/26/2014  03:40:00     -136.450     -106.407        1.396      122.955       66.932       55.634    15117.884     4479.907     3095.098        2.631        1.135      173.035       60.453        0.122      342.379       17.745      857.287
06/26/2014  03:41:00     -204.227     -161.395       -3.790      108.092      115.464       54.813    11683.833    13332.002     3004.502        4.789        1.401      260.302       58.213        0.050      342.375       17.736      857.295
06/26/2014  03:42:00     -118.725     -125.908       29.290      115.912       88.875       75.367    13435.497     7898.822     5680.126        2.891        1.351      173.056       76.966        0.198      342.395       17.772      857.271
06/26/2014  03:43:00     -261.927     -127.160      -16.769      112.378      104.722       56.689    12628.715    10966.675     3213.677        5.593        1.340      291.162       48.180        0.027      342.398       17.775      857.273
06/26/2014  03:44:00     -218.644      -45.368        1.932      137.916       81.340       48.077    19020.887     6616.235     2311.354        3.890        1.397      223.301       52.740        0.056      342.388       17.760      857.273
06/26/2014  03:45:00     -202.440      -17.623        3.638      118.991       79.172       57.161    14158.827     6268.165     3267.365        3.250        1.185      203.206       60.052        0.087      342.415       17.804      857.277
06/26/2014  03:46:00      -80.751     -176.930        6.018       87.749      101.239       37.111     7699.816    10249.246     1377.222        2.859        0.966      194.486       34.750        0.032      342.391       17.764      857.299
06/26/2014  03:47:00     -171.392     -165.229        4.300       85.058       91.597       45.588     7234.876     8389.981     2078.274        3.720        0.885      238.067       41.523        0.030      342.399       17.776      857.308
06/26/2014  03:48:00     -173.561     -127.079      -10.969      110.734       74.048       51.501    12261.993     5483.096     2652.367        3.339        1.020      215.111       52.398        0.059      342.380       17.747      857.294
06/26/2014  03:49:00     -280.541       -7.397       -7.739      151.142      115.580       63.490    22843.773    13358.719     4031.031        5.952        2.012      280.638       69.622        0.062      342.386       17.757      857.255
06/26/2014  03:50:00     -398.380      -84.122      -19.367      144.128      110.600       64.650    20773.024    12232.337     4179.597       10.167        1.859      407.165       74.518        0.033      342.330       17.661      857.241
06/26/2014  03:51:00     -258.138      -84.169      -23.286      109.445       96.691       56.299    11978.142     9349.086     3169.591        4.938        1.225      271.514       44.711        0.027      342.347       17.689      857.258
06/26/2014  03:52:00     -200.359      -81.206        8.037       93.485       62.135       43.547     8739.465     3860.729     1896.345        3.065        0.725      216.190       45.674        0.045      342.317       17.639      857.279
06/26/2014  03:53:00     -185.848     -147.314       -4.289       82.765       85.117       52.940     6850.009     7244.930     2802.670        3.658        0.845      237.152       44.945        0.036      342.315       17.633      857.314
06/26/2014  03:54:00     -247.340     -109.368       -1.451      100.294       91.098       51.767    10058.866     8298.863     2679.800        4.709        1.052      270.441       50.318        0.035      342.317       17.638      857.329
06/26/2014  03:55:00     -216.943      -41.178       -0.787      103.239      103.659       48.088    10658.316    10745.237     2312.433        3.623        1.186      220.816       46.728        0.045      342.360       17.715      857.330
06/26/2014  03:56:00     -275.895     -115.580       12.352      165.018      104.249       60.878    27231.094    10867.805     3706.179        6.571        2.090      299.127       73.528        0.060      342.331       17.661      857.343
06/26/2014  03:57:00     -171.665     -143.685        6.097      115.964       98.359       58.085    13447.722     9674.576     3373.908        3.832        1.325      223.862       60.376        0.073      342.349       17.694      857.313
06/26/2014  03:58:00     -192.830     -131.180       -3.662       66.481      104.588       38.442     4419.763    10938.555     1477.817        3.562        0.842      233.220       42.205        0.033      342.366       17.723      857.313
06/26/2014  03:59:00      -87.640      -34.053        2.528       62.088       54.448       25.484     3854.862     2964.540      649.422        0.816        0.373       94.023       23.567        0.063      342.406       17.795      857.307
06/26/2014  04:00:00       15.702      -14.349       15.821       25.370       49.797       26.553      643.645     2479.710      705.043        0.226        0.191       21.270       21.118        0.986      342.398       17.780      857.301
06/26/2014  04:01:00     -152.481      -50.596       -5.690      133.289       85.027       48.557    17765.875     7229.552     2357.829        2.659        1.368      160.657       48.174        0.090      342.398       17.777      857.307
06/26/2014  04:02:00     -269.724      -80.869       -4.167      142.825       96.860       61.921    20398.946     9381.788     3834.270        5.646        1.681      281.586       66.351        0.056      342.337       17.673      857.310
06/26/2014  04:03:00     -183.015      -65.184       -1.859      151.204      100.406       61.877    22862.800    10081.390     3828.712        3.725        1.839      194.277       73.123        0.142      342.358       17.711      857.291
06/26/2014  04:04:00     -249.193      -32.088       -6.214      146.325       94.287       60.789    21411.133     8890.047     3695.245        4.858        1.700      251.250       68.876        0.075      342.352       17.699      857.273
06/26/2014  04:05:00     -115.647        3.537        0.478       87.014       41.168       35.723     7571.413     1694.768     1276.111        1.196        0.527      115.701       25.174        0.047      342.320       17.646      857.258
06/26/2014  04:06:00     -103.406       -2.657      -10.342       25.905       37.977       20.871      671.078     1442.215      435.614        0.668        0.127      103.440       10.640        0.011      342.340       17.682      857.226
06/26/2014  04:07:00     -160.985      -93.368       -8.419      122.385       99.890       38.648    14978.171     9977.951     1493.659        3.057        1.322      186.101       51.172        0.076      342.369       17.730      857.218
06/26/2014  04:08:00     -176.138     -113.199        5.565      130.965      102.359       63.193    17151.765    10477.342     3993.417        3.774        1.581      209.377       57.216        0.075      342.311       17.629      857.212
06/26/2014  04:09:00      -51.563      -14.489       19.720       89.458       60.559       43.189     8002.748     3667.333     1865.330        0.839        0.677       53.560       51.250        0.916      342.354       17.704      857.248
06/26/2014  04:10:00      -30.964       13.560       39.455       77.187       71.934       59.343     5957.891     5174.545     3521.596        0.867        0.733       33.803       41.707        1.522      342.312       17.633      857.245
06/26/2014  04:11:00      -75.358      -57.943       11.635       73.279       54.429       39.447     5369.846     2962.507     1556.036        0.953        0.494       95.059       30.816        0.105      342.344       17.688      857.242
06/26/2014  04:12:00     -194.551      -67.709        8.106      114.341       59.672       38.562    13073.891     3560.701     1487.018        3.031        0.906      205.997       49.877        0.059      342.339       17.678      857.238
06/26/2014  04:13:00     -193.108     -118.680      -11.768      141.866       82.493       44.871    20126.067     6805.091     2013.408        4.022        1.447      226.662       50.881        0.050      342.356       17.707      857.253
06/26/2014  04:14:00     -323.496     -131.019      -16.092      131.875      109.644       55.991    17391.001    12021.773     3135.034        7.731        1.627      349.021       52.391        0.023      342.361       17.712      857.256
06/26/2014  04:15:00     -263.034     -150.528       -8.764      111.884       90.896       53.029    12518.120     8262.099     2812.063        5.775        1.180      303.060       53.281        0.031      342.388       17.758      857.272
06/26/2014  04:16:00      -85.922      -16.274        3.966       90.620       67.290       41.085     8212.045     4527.937     1687.964        1.104        0.721       87.450       32.632        0.139      342.425       17.825      857.261
06/26/2014  04:17:00     -112.520      -24.598       -5.355       61.197       50.097       28.353     3745.077     2509.737      803.891        1.018        0.353      115.177       29.962        0.068      342.475       17.910      857.269
06/26/2014  04:18:00      -85.402      -22.706        3.832       61.071       30.679       27.550     3729.697      941.225      758.980        0.663        0.271       88.369       22.787        0.066      342.501       17.955      857.297
06/26/2014  04:19:00     -106.876      -36.256       12.966       76.894       90.614       35.496     5912.659     8210.884     1259.982        1.414        0.769      112.859       35.431        0.099      342.386       17.760      857.337
06/26/2014  04:20:00     -301.518     -154.709      -13.681      106.094      114.168       49.001    11255.898    13034.360     2401.074        7.086        1.335      338.893       49.966        0.022      342.389       17.762      857.361
06/26/2014  04:21:00     -265.653      -95.511      -18.449      117.260       74.351       57.346    13749.946     5528.071     3288.615        5.130        1.128      282.301       56.730        0.040      342.421       17.816      857.347
06/26/2014  04:22:00     -195.799      -81.410        1.877       95.551       68.909       45.359     9130.064     4748.497     2057.423        3.045        0.797      212.049       50.000        0.056      342.418       17.811      857.316
06/26/2014  04:23:00     -381.050     -115.627      -20.011      175.243      107.730       55.497    30710.047    11605.858     3079.940       10.218        2.270      398.207       63.135        0.025      342.390       17.764      857.354
06/26/2014  04:24:00     -339.011      -94.921      -14.527      225.080      127.471       69.772    50661.194    16248.831     4868.168        9.795        3.589      352.049       96.832        0.076      342.395       17.771      857.394
06/26/2014  04:25:00     -249.428     -181.299      -11.213      133.493      100.757       65.065    17820.250    10151.985     4233.431        6.370        1.610      308.356       71.191        0.053      342.413       17.802      857.407
06/26/2014  04:26:00     -189.915     -178.692        2.853      152.506       96.774       58.929    23258.045     9365.227     3472.582        5.205        1.805      260.765       72.314        0.077      342.416       17.808      857.392
06/26/2014  04:27:00     -142.381      -60.422        8.499       80.574       80.444       46.332     6492.227     6471.252     2146.653        1.955        0.756      154.671       44.554        0.083      342.404       17.787      857.383
06/26/2014  04:28:00     -244.372      -62.782       -3.678       91.508       78.947       51.651     8373.646     6232.592     2667.799        4.047        0.864      252.308       45.878        0.033      342.384       17.752      857.380
06/26/2014  04:29:00     -207.114      -35.433       -7.738      110.006       79.507       50.532    12101.247     6321.292     2553.499        3.259        1.049      210.124       52.423        0.062      342.371       17.729      857.381
06/26/2014  04:30:00     -144.899      -38.781       15.318      110.947       76.414       44.475    12309.290     5839.111     1978.024        2.143        1.006      149.999       50.038        0.111      342.380       17.746      857.382
06/26/2014  04:31:00     -100.900       -4.951        9.932       70.887       49.230       37.432     5024.996     2423.590     1401.181        0.958        0.442      101.021       37.568        0.138      342.373       17.736      857.373
06/26/2014  04:32:00     -214.411     -158.366       -7.336      123.477      106.923       55.606    15246.606    11432.526     3091.992        5.043        1.489      266.556       53.338        0.040      342.384       17.752      857.338
06/26/2014  04:33:00     -173.714      -56.159        4.265      182.219       92.935       71.698    33203.740     8636.856     5140.615        4.016        2.349      182.567       80.785        0.196      342.376       17.739      857.293
06/26/2014  04:34:00     -308.599     -219.016      -15.431      164.588      145.989       82.815    27089.362    21312.678     6858.380        9.934        2.763      378.419       89.597        0.056      342.416       17.806      857.269
06/26/2014  04:35:00     -298.406     -137.617       -8.932      134.403      116.199       68.082    18064.284    13502.226     4635.196        7.213        1.810      328.610       62.018        0.036      342.397       17.774      857.241
06/26/2014  04:36:00     -270.788     -104.210      -12.457      163.436      114.936       69.405    26711.189    13210.305     4817.096        6.453        2.237      290.148       83.882        0.084      342.373       17.734      857.214
06/26/2014  04:37:00     -217.442      -46.188       -6.119      112.318       68.784       51.840    12615.223     4731.214     2687.345        3.474        1.002      222.294       54.136        0.059      342.363       17.717      857.179
06/26/2014  04:38:00     -262.433      -26.515        0.005      132.460      100.757       60.006    17545.750    10152.004     3600.679        5.043        1.565      263.769       53.396        0.041      342.329       17.660      857.126
06/26/2014  04:39:00     -300.348      -80.050      -17.203      135.648       98.031       52.663    18400.355     9609.981     2773.387        6.384        1.539      310.832       61.927        0.040      342.336       17.671      857.118
06/26/2014  04:40:00     -332.433      -23.634        0.537      253.726      115.142       68.065    64376.925    13257.665     4632.793        9.666        4.113      333.272       98.138        0.087      342.299       17.610      857.174
06/26/2014  04:41:00     -336.405      -62.572      -22.078      127.334      101.726       51.885    16213.826    10348.267     2692.033        7.341        1.463      342.175       54.605        0.025      342.315       17.635      857.198
06/26/2014  04:42:00     -293.555      -76.745      -17.045      118.376       91.582       61.652    14012.950     8387.325     3800.923        5.927        1.310      303.421       60.220        0.039      342.307       17.622      857.184
06/26/2014  04:43:00     -200.917       -5.955      -11.183      112.130       75.865       47.678    12573.184     5755.508     2273.205        3.056        1.030      201.005       57.166        0.081      342.303       17.616      857.176
06/26/2014  04:44:00     -333.193      -27.066      -32.755      119.941      102.853       51.143    14385.889    10578.816     2615.599        7.020        1.379      334.291       45.190        0.018      342.317       17.638      857.161
06/26/2014  04:45:00     -193.470      -46.515       -2.766      105.131       77.443       55.716    11052.562     5997.375     3104.287        2.987        1.008      198.983       50.175        0.064      342.327       17.655      857.142
06/26/2014  04:46:00     -304.692      -38.242      -16.999       90.166       76.891       54.591     8129.987     5912.236     2980.145        5.580        0.851      307.083       50.982        0.028      342.314       17.634      857.156
06/26/2014  04:47:00     -200.707      -82.610        7.294      158.158      110.411       63.300    25014.045    12190.576     4006.912        4.418        2.061      217.043       80.359        0.137      342.304       17.616      857.174
06/26/2014  04:48:00     -302.418      -92.226      -11.091      122.975      102.192       58.636    15122.760    10443.248     3438.170        6.454        1.450      316.168       65.136        0.042      342.306       17.621      857.156
06/26/2014  04:49:00     -201.024      -35.160       -0.380      135.611      106.160       64.299    18390.213    11269.943     4134.313        3.772        1.690      204.076       56.751        0.077      342.296       17.603      857.105
06/26/2014  04:50:00     -177.800     -115.790      -15.133      131.805       85.364       55.173    17372.498     7287.074     3044.071        3.647        1.385      212.180       59.268        0.078      342.282       17.581      857.076
06/26/2014  04:51:00     -328.770     -117.144      -11.707      136.201      102.950       58.747    18550.832    10598.624     3451.192        7.727        1.630      349.016       60.714        0.030      342.276       17.568      857.071
06/26/2014  04:52:00     -430.784      -86.330      -29.970      108.716      113.827       68.351    11819.111    12956.565     4671.881       11.168        1.472      439.349       56.758        0.017      342.268       17.557      857.107
06/26/2014  04:53:00     -313.321      -44.060      -20.866      118.730      138.244       61.642    14096.790    19111.290     3799.725        6.877        1.850      316.404       35.176        0.012      342.289       17.592      857.136
06/26/2014  04:54:00     -169.565     -137.707        6.391      145.253      121.959       76.167    21098.476    14873.933     5801.450        4.476        2.089      218.439       80.957        0.137      342.314       17.634      857.157
06/26/2014  04:55:00     -202.273      -85.991        0.011      104.915       91.510       46.145    11007.217     8374.042     2129.373        3.491        1.076      219.793       48.664        0.049      342.312       17.629      857.180
06/26/2014  04:56:00     -245.290      -36.488       -2.038       97.711       89.500       54.464     9547.413     8010.261     2966.284        4.101        1.026      247.989       55.792        0.051      342.322       17.647      857.197
06/26/2014  04:57:00     -275.707       12.153      -11.146      101.735       95.280       56.955    10349.975     9078.197     3243.927        4.948        1.134      275.974       42.769        0.024      342.313       17.633      857.187
06/26/2014  04:58:00     -176.337      -96.770        1.911       90.176       68.664       42.046     8131.651     4714.804     1767.852        2.754        0.731      201.145       36.773        0.033      342.341       17.680      857.161
06/26/2014  04:59:00     -139.801      -84.778       -7.364       70.853       58.429       39.287     5020.132     3413.938     1543.430        1.838        0.499      163.498       41.347        0.064      342.341       17.682      857.154
06/26/2014  05:00:00     -271.710      -59.121      -10.863      100.150       66.477       46.050    10030.054     4419.137     2120.607        4.700        0.828      278.067       48.662        0.031      342.342       17.681      857.149
06/26/2014  05:01:00     -189.783      -96.644      -11.734      118.011       99.495       54.921    13926.697     9899.216     3016.281        3.616        1.342      212.973       53.599        0.063      342.355       17.704      857.168
06/26/2014  05:02:00     -306.345     -152.390      -10.979       97.378       88.459       50.770     9482.404     7824.987     2577.642        6.853        0.994      342.155       47.494        0.019      342.307       17.621      857.168
06/26/2014  05:03:00     -252.228        8.563        0.015      142.950      142.012       54.207    20434.835    20167.517     2938.444        5.361        2.177      252.373       59.740        0.056      342.304       17.616      857.165
06/26/2014  05:04:00     -168.610      -35.518       -7.086      126.914      146.596       78.760    16107.055    21490.330     6203.122        3.676        2.190      172.310       67.415        0.153      342.311       17.629      857.181
06/26/2014  05:05:00     -222.799      -71.155      -11.966      161.923       97.468       71.945    26218.917     9499.927     5176.056        4.786        2.045      233.885       77.518        0.110      342.352       17.699      857.207
06/26/2014  05:06:00     -114.632      -22.625       45.471      161.603      118.670       71.869    26115.626    14082.568     5165.107        3.053        2.268      116.844       89.794        0.591      342.345       17.688      857.229
06/26/2014  05:07:00     -253.151     -157.422      -13.221      128.568       75.954       57.191    16529.719     5769.075     3270.757        5.730        1.278      298.106       55.146        0.034      342.330       17.660      857.241
06/26/2014  05:08:00     -173.453     -127.453       -9.231      100.949       95.067       52.689    10190.749     9037.736     2776.134        3.421        1.100      215.245       45.505        0.045      342.317       17.639      857.228
06/26/2014  05:09:00     -201.705      -69.519       -2.491      108.298       89.933       51.315    11728.559     8087.991     2633.233        3.398        1.122      213.349       48.898        0.053      342.315       17.635      857.253
06/26/2014  05:10:00     -180.442     -126.379       -1.813      102.752      106.434       50.404    10557.960    11328.118     2540.581        3.648        1.221      220.297       35.945        0.027      342.326       17.656      857.281
06/26/2014  05:11:00     -311.905     -241.830        0.128      174.718      149.695       94.414    30526.409    22408.682     8914.032       10.880        3.092      394.673      105.073        0.071      342.322       17.648      857.267
06/26/2014  05:12:00     -211.836      -58.670       12.653      125.174      149.861       65.880    15668.622    22458.279     4340.225        4.546        2.123      219.811       61.063        0.077      342.328       17.656      857.270
06/26/2014  05:13:00     -159.961     -128.424        9.281      135.600      104.064       72.243    18387.483    10829.278     5219.027        3.830        1.722      205.135       80.844        0.155      342.341       17.679      857.243
06/26/2014  05:14:00     -274.292     -190.758      -10.835      146.149       90.784       65.349    21359.508     8241.739     4270.458        7.280        1.694      334.103       69.766        0.044      342.323       17.649      857.198
06/26/2014  05:15:00     -330.518     -110.425      -18.831      123.315       93.129       60.047    15206.532     8672.939     3605.648        7.463        1.374      348.476       62.481        0.032      342.347       17.689      857.190
06/26/2014  05:16:00     -264.877      -85.052      -15.542      116.089      119.535       62.641    13476.754    14288.676     3923.859        5.466        1.584      278.197       62.001        0.050      342.292       17.596      857.200
06/26/2014  05:17:00     -240.959      -25.038       -8.520       87.965       82.754       49.718     7737.770     6848.280     2471.831        3.791        0.853      242.256       49.354        0.042      342.293       17.597      857.164
06/26/2014  05:18:00     -163.866        4.146       -7.459      112.658       72.699       52.159    12691.723     5285.155     2720.566        2.381        1.035      163.918       54.744        0.112      342.263       17.549      857.153
06/26/2014  05:19:00     -217.688      -63.272       -2.505      109.060       75.576       45.074    11894.057     5711.690     2031.682        3.551        0.982      226.696       44.243        0.038      342.309       17.625      857.152
06/26/2014  05:20:00     -286.394     -159.187       10.264      203.082      157.920       71.151    41242.419    24938.797     5062.471        8.934        3.562      327.661       81.163        0.061      342.328       17.658      857.162
06/26/2014  05:21:00     -242.891     -203.605       -8.000      182.512      120.249       67.998    33310.782    14459.855     4623.694        7.645        2.620      316.940       88.024        0.077      342.314       17.635      857.195
06/26/2014  05:22:00     -245.820      -61.040       -3.096      122.328       95.975       56.450    14964.119     9211.262     3186.583        4.576        1.368      253.285       63.495        0.063      342.279       17.575      857.203
06/26/2014  05:23:00     -273.561      -35.027       -1.484      116.308      119.566       52.795    13527.451    14295.967     2787.270        5.333        1.531      275.794       48.159        0.030      342.192       17.427      857.207
06/26/2014  05:24:00     -350.616     -126.533      -15.733      136.177      102.458       66.054    18544.193    10497.609     4363.107        8.629        1.670      372.750       66.025        0.031      342.166       17.382      857.235
06/26/2014  05:25:00     -217.909      -42.500       -5.166       95.244       83.899       44.387     9071.347     7038.977     1970.194        3.370        0.904      222.015       45.422        0.042      342.183       17.411      857.274
06/26/2014  05:26:00     -326.509      -48.817      -19.892       99.239       64.445       45.855     9848.451     4153.112     2102.652        6.274        0.805      330.138       31.617        0.009      342.165       17.378      857.252
06/26/2014  05:27:00     -209.995      -58.470       -4.134       98.489      100.386       50.450     9700.083    10077.323     2545.221        3.492        1.116      217.983       47.172        0.047      342.148       17.352      857.254
06/26/2014  05:28:00     -261.958      -35.324       -9.075      149.927       80.672       54.347    22478.247     6507.902     2953.640        5.094        1.597      264.329       67.751        0.066      342.128       17.319      857.271
06/26/2014  05:29:00     -238.928      -95.654      -14.908      104.548       74.855       49.028    10930.190     5603.252     2403.711        4.269        0.947      257.364       47.634        0.034      342.128       17.319      857.235
06/26/2014  05:30:00     -165.517      -84.110       -5.541       85.953       61.883       40.273     7387.954     3829.513     1621.952        2.367        0.642      185.662       42.916        0.053      342.145       17.348      857.278
06/26/2014  05:31:00     -203.692      -94.625       -1.060      119.896      137.781       62.463    14375.069    18983.539     3901.608        4.385        1.863      224.598       71.028        0.100      342.148       17.352      857.237
06/26/2014  05:32:00     -148.230      -98.690        8.419      120.907       97.050       61.072    14618.600     9418.659     3729.732        2.977        1.388      178.078       62.913        0.125      342.165       17.381      857.216
06/26/2014  05:33:00     -136.496     -108.936        8.076      105.906       86.751       53.949    11216.030     7525.720     2910.508        2.610        1.083      174.637       57.379        0.108      342.161       17.374      857.217
06/26/2014  05:34:00     -187.182     -105.213       -0.655      110.993       97.263       53.486    12319.362     9460.118     2860.724        3.537        1.232      214.725       56.538        0.069      342.117       17.300      857.231
06/26/2014  05:35:00     -173.723      -28.993       -0.885      110.568       83.816       45.579    12225.223     7025.071     2077.471        2.617        1.066      176.126       54.619        0.096      342.132       17.328      857.235
06/26/2014  05:36:00     -291.196      -35.044       -4.552      115.817       67.698       51.320    13413.498     4582.993     2633.758        5.333        1.032      293.297       56.490        0.037      342.081       17.236      857.243
06/26/2014  05:37:00     -272.276      -34.390       -8.015      111.660       70.311       44.520    12467.894     4943.625     1982.045        4.738        0.970      274.440       44.762        0.027      342.068       17.214      857.275
06/26/2014  05:38:00     -201.577       -2.931      -10.452      112.603       81.188       52.127    12679.495     6591.483     2717.255        3.137        1.099      201.599       55.924        0.077      342.058       17.198      857.288
06/26/2014  05:39:00     -256.709      -34.021       -5.643      160.173      126.545       69.560    25655.282    16013.622     4838.638        5.679        2.325      258.954       79.330        0.094      342.072       17.222      857.291
06/26/2014  05:40:00     -346.973     -128.589      -16.066      142.037      133.471       68.549    20174.527    17814.485     4699.018        8.993        2.134      370.034       76.627        0.043      342.057       17.197      857.284
06/26/2014  05:41:00     -207.366      -43.338       -3.215      125.386       83.791       57.511    15721.703     7020.879     3307.565        3.547        1.303      211.846       61.838        0.085      342.081       17.237      857.272
06/26/2014  05:42:00     -232.782      -57.342        2.462      107.123       93.577       57.634    11475.285     8756.627     3321.690        4.051        1.178      239.741       58.654        0.060      342.071       17.220      857.297
06/26/2014  05:43:00     -263.471      -80.291      -12.914       80.331       78.749       38.879     6453.134     6201.451     1511.575        4.510        0.708      275.433       32.958        0.014      342.048       17.181      857.295
06/26/2014  05:44:00     -252.239      -71.948      -12.727       84.070       73.347       41.168     7067.744     5379.757     1694.784        4.155        0.707      262.299       38.559        0.022      342.035       17.158      857.289
06/26/2014  05:45:00     -286.544      -80.070      -17.636      117.701      111.382       58.760    13853.442    12405.848     3452.679        5.927        1.486      297.521       59.381        0.040      341.997       17.096      857.279
06/26/2014  05:46:00     -162.581       -8.807        7.622      109.528       82.948       54.498    11996.348     6880.318     2969.989        2.420        1.092      162.820       59.289        0.133      341.925       16.973      857.224
06/26/2014  05:47:00     -363.780     -108.221      -13.623      170.742      119.543       69.148    29152.689    14290.464     4781.493        9.622        2.411      379.536       72.843        0.037      341.922       16.967      857.218
06/26/2014  05:48:00     -433.460      -38.745      -31.186      158.690       96.824       54.128    25182.524     9374.822     2929.824       11.392        1.874      435.189       59.702        0.019      341.863       16.867      857.236
06/26/2014  05:49:00     -409.407     -111.302       -6.017      109.734       86.145       54.067    12041.472     7420.928     2923.198       10.121        1.119      424.266       54.465        0.016      341.849       16.844      857.284
06/26/2014  05:50:00     -252.335       17.687      -11.848      120.292       94.458       57.366    14470.169     8922.328     3290.832        4.540        1.334      252.955       58.175        0.053      341.850       16.846      857.308
06/26/2014  05:51:00     -398.134      -95.352      -28.367       99.222      133.579       51.360     9844.990    17843.361     2637.839        9.936        1.516      409.393       47.137        0.013      341.836       16.821      857.254
06/26/2014  05:52:00     -299.751      -89.434      -26.783       82.165       90.532       53.033     6751.157     8195.987     2812.472        5.816        0.888      312.809       42.270        0.018      341.847       16.841      857.267
06/26/2014  05:53:00     -312.118     -104.467       -9.681      147.217      119.535       60.558    21672.936    14288.630     3667.287        7.402        1.981      329.137       66.788        0.041      341.854       16.854      857.258
06/26/2014  05:54:00     -311.631     -108.210      -19.022      107.872      103.840       61.245    11636.383    10782.758     3750.973        6.767        1.309      329.884       57.501        0.030      341.868       16.876      857.289
06/26/2014  05:55:00     -312.848      -43.694      -15.501      127.822      107.077       64.579    16338.342    11465.483     4170.436        6.599        1.599      315.885       67.318        0.045      341.827       16.807      857.303
06/26/2014  05:56:00     -359.456       13.540      -15.944      127.124      120.891       71.322    16160.520    14614.676     5086.825        8.275        1.793      359.711       67.479        0.035      341.808       16.773      857.281
06/26/2014  05:57:00     -369.569        5.716      -29.388      112.962      101.222       53.376    12760.370    10245.797     2848.991        8.166        1.293      369.614       51.608        0.019      341.809       16.775      857.284
06/26/2014  05:58:00     -317.519      -73.417       -1.218      130.120       98.100       60.157    16931.287     9623.656     3618.896        6.819        1.509      325.897       61.911        0.036      341.816       16.789      857.289
06/26/2014  05:59:00     -331.371     -136.850      -11.671      147.441       98.649       72.462    21738.820     9731.715     5250.691        8.269        1.836      358.517       65.598        0.033      341.800       16.760      857.278
06/26/2014  06:00:00     -383.320      -74.108       -2.582      168.570      104.131       78.397    28415.709    10843.361     6146.070        9.891        2.270      390.418       83.782        0.046      341.734       16.648      857.306
06/26/2014  06:01:00     -359.647      -43.494      -12.467      135.107      115.942       61.304    18253.794    13442.514     3758.167        8.342        1.773      362.268       58.924        0.026      341.744       16.666      857.349
06/26/2014  06:02:00     -314.717      -75.683      -12.286      120.397      126.218       69.218    14495.555    15931.018     4791.081        7.007        1.761      323.689       52.733        0.027      341.751       16.676      857.338
06/26/2014  06:03:00     -406.582        5.113      -40.381      108.515      110.627       58.041    11775.551    12238.256     3368.794        9.717        1.369      406.614       49.402        0.015      341.735       16.651      857.328
06/26/2014  06:04:00     -396.247     -106.447      -23.505      127.822      138.674       64.168    16338.433    19230.422     4117.586       10.428        1.984      410.296       60.344        0.022      341.721       16.627      857.311
06/26/2014  06:05:00     -351.557     -134.829      -21.133      126.013      130.888       65.268    15879.199    17131.683     4259.895        8.974        1.864      376.525       62.322        0.027      341.717       16.619      857.284
06/26/2014  06:06:00     -302.429     -136.321      -10.671      134.436      106.200       61.838    18073.167    11278.356     3823.979        7.166        1.659      331.733       38.491        0.013      341.726       16.635      857.289
06/26/2014  06:07:00     -337.546      -70.160      -17.242      131.014      105.686       58.218    17164.701    11169.426     3389.279        7.543        1.586      344.760       57.655        0.028      341.686       16.569      857.337
06/26/2014  06:08:00     -282.256      -10.926      -18.188      129.060       96.627       54.643    16656.589     9336.771     2985.886        5.454        1.449      282.467       59.135        0.044      341.695       16.585      857.341
06/26/2014  06:09:00     -339.817      -84.989      -14.746      143.566      107.604       67.398    20611.088    11578.622     4542.533        7.982        1.837      350.284       70.459        0.040      341.668       16.538      857.297
06/26/2014  06:10:00     -306.049      -66.325       -8.888      176.605      136.642       72.724    31189.406    18670.993     5288.725        7.664        2.757      313.154       78.135        0.062      341.669       16.540      857.292
06/26/2014  06:11:00     -375.278      -94.669      -50.996      136.288      120.200       73.434    18574.499    14448.014     5392.512        9.540        1.921      387.035       66.875        0.030      341.645       16.500      857.290
06/26/2014  06:12:00     -235.069      -95.156       -9.471      107.259       90.603       69.606    11504.573     8208.830     4844.931        4.448        1.228      253.598       60.311        0.057      341.679       16.557      857.311
06/26/2014  06:13:00     -265.988      -37.452      -34.217      109.149       73.637       52.368    11913.432     5422.477     2742.432        4.670        1.004      268.611       44.360        0.027      341.668       16.536      857.265
06/26/2014  06:14:00     -468.826     -123.906      -36.656       94.172       88.064       60.057     8868.431     7755.265     3606.852       12.836        1.012      484.923       49.478        0.010      341.613       16.445      857.238
06/26/2014  06:15:00     -306.230      -98.112      -29.262      119.191      122.385       60.029    14206.491    14978.168     3603.503        6.852        1.639      321.564       63.097        0.039      341.642       16.494      857.240
06/26/2014  06:16:00     -179.764      -57.049       -4.066      150.220       87.351       59.073    22566.176     7630.173     3489.599        3.463        1.684      188.599       64.991        0.119      341.666       16.535      857.271
06/26/2014  06:17:00     -331.014     -123.189      -22.765       88.095       88.150       52.220     7760.684     7770.335     2726.879        7.176        0.913      353.194       47.824        0.018      341.621       16.456      857.250
06/26/2014  06:18:00     -351.749      -93.968      -13.923      111.332      102.030       58.913    12394.815    10410.157     3470.688        7.951        1.314      364.084       47.160        0.017      341.622       16.460      857.231
06/26/2014  06:19:00     -396.227      -91.280      -10.803      123.755      138.349       69.429    15315.246    19140.541     4820.337       10.235        1.964      406.605       65.540        0.026      341.593       16.409      857.223
06/26/2014  06:20:00     -428.284      -63.005      -15.870      172.954      109.867       76.899    29913.206    12070.680     5913.502       11.776        2.395      432.893       90.526        0.044      341.564       16.362      857.278
06/26/2014  06:21:00     -373.858      -65.495      -31.186      141.813      114.472       66.035    20110.788    13103.917     4360.599        9.130        1.879      379.552       78.085        0.042      341.564       16.362      857.278
06/26/2014  06:22:00     -298.894       14.323       -9.507      152.950      120.952       75.087    23393.770    14629.289     5638.060        6.664        2.183      299.237       82.938        0.077      341.570       16.371      857.271
06/26/2014  06:23:00     -294.560      -63.221      -12.493      139.030       97.679       58.450    19329.291     9541.231     3416.391        6.160        1.614      301.269       65.181        0.047      341.582       16.392      857.284
06/26/2014  06:24:00     -351.321     -121.180      -31.826      126.406       95.133       66.704    15978.444     9050.249     4449.444        8.430        1.474      371.633       67.327        0.033      341.577       16.384      857.270
06/26/2014  06:25:00     -398.745     -135.513       -4.355      172.807      119.892       64.886    29862.347    14374.048     4210.246       11.291        2.422      421.143       62.197        0.022      341.585       16.396      857.246
06/26/2014  06:26:00     -409.195     -155.827       -3.083      150.047      128.523       70.109    22514.083    16518.105     4915.309       11.783        2.197      437.862       82.635        0.036      341.564       16.361      857.272
06/26/2014  06:27:00     -377.998     -111.861      -39.157       82.942      101.312       42.837     6879.368    10264.063     1835.021        8.795        0.949      394.202       25.498        0.004      341.600       16.421      857.273
06/26/2014  06:28:00     -423.856     -128.120      -19.503      124.651      111.356       57.578    15537.955    12400.094     3315.207       11.385        1.563      442.796       58.841        0.018      341.601       16.422      857.275
06/26/2014  06:29:00     -433.564     -130.159       -5.530      189.843      143.733       85.413    36040.402    20659.135     7295.384       13.446        3.200      452.680       91.890        0.041      341.562       16.357      857.294
06/26/2014  06:30:00     -414.543      -40.943      -44.569      104.522       92.960       62.190    10924.861     8641.513     3867.540        9.947        1.172      416.560       52.842        0.016      341.596       16.414      857.293
06/26/2014  06:31:00     -464.902      -64.264      -17.677      133.799      144.668       64.661    17902.086    20928.902     4181.003       13.179        2.151      469.322       56.013        0.014      341.564       16.362      857.285
06/26/2014  06:32:00     -370.497      -65.220      -29.342      108.907      134.077       67.255    11860.818    17976.578     4523.197        8.837        1.718      376.194       53.151        0.020      341.579       16.387      857.280
06/26/2014  06:33:00     -430.162      -99.700      -39.224      119.699      100.493       67.694    14327.790    10098.924     4582.480       11.276        1.450      441.564       58.465        0.018      341.554       16.343      857.267
06/26/2014  06:34:00     -385.763      -21.172      -34.430      124.166      157.128       59.476    15417.307    24689.356     3537.438        9.704        2.182      386.344       53.054        0.019      341.534       16.310      857.292
06/26/2014  06:35:00     -333.760      -69.598       -9.544      146.721      105.315       63.985    21526.977    11091.291     4094.036        7.652        1.836      340.939       57.818        0.029      341.555       16.345      857.290
06/26/2014  06:36:00     -410.331     -111.709      -15.166      175.565      125.603       81.705    30823.097    15776.217     6675.662       11.717        2.664      425.265       79.100        0.035      341.524       16.293      857.321
06/26/2014  06:37:00     -543.384      -94.257      -22.136      206.073      154.529       84.870    42466.168    23879.081     7202.954       18.908        3.677      551.499       96.064        0.030      341.491       16.238      857.313
06/26/2014  06:38:00     -396.550      -93.114      -14.148      175.508      172.018       67.670    30803.016    29590.091     4579.267       11.554        3.249      407.335       83.789        0.042      341.511       16.270      857.305
06/26/2014  06:39:00     -528.885     -128.425      -23.311      154.361      124.627       80.040    23827.246    15531.927     6406.443       17.125        2.288      544.254       74.777        0.019      341.507       16.263      857.300
06/26/2014  06:40:00     -556.748     -101.080      -51.518      175.681      140.235       74.467    30863.881    19665.857     5545.298       18.945        2.804      565.849       78.235        0.019      341.509       16.266      857.254
06/26/2014  06:41:00     -408.958     -112.350       -4.231      174.036      125.081       67.844    30288.673    15645.293     4602.821       11.520        2.527      424.109       71.459        0.028      341.530       16.304      857.237
06/26/2014  06:42:00     -420.450      -91.718      -17.615      161.285      145.043       72.833    26012.825    21037.353     5304.654       11.892        2.618      430.337       77.109        0.032      341.521       16.286      857.267
06/26/2014  06:43:00     -517.628     -132.636      -20.525      205.511      163.074       87.237    42234.889    26593.181     7610.341       18.118        3.822      534.351       87.604        0.027      341.496       16.245      857.285
06/26/2014  06:44:00     -393.230      -41.211      -28.290      173.360      164.106       75.247    30053.537    26930.931     5662.167       10.988        3.132      395.384       66.049        0.028      341.511       16.271      857.327
06/26/2014  06:45:00     -376.914      -15.295      -17.432      181.706      135.035       73.912    33016.999    18234.405     5463.032        9.965        2.836      377.224       75.242        0.040      341.497       16.247      857.327
06/26/2014  06:46:00     -381.360     -103.696      -24.731      142.611      137.422       74.374    20338.023    18884.695     5531.492       10.077        2.238      395.206       71.359        0.033      341.499       16.249      857.306
06/26/2014  06:47:00     -418.096      -45.703      -40.114      126.158      109.487       59.694    15915.935    11987.498     3563.431       10.498        1.573      420.586       49.118        0.014      341.520       16.286      857.274
06/26/2014  06:48:00     -298.185      -65.110       -9.323      152.633      134.922       76.464    23296.725    18203.836     5846.732        7.029        2.367      305.211       86.933        0.081      341.546       16.331      857.313
06/26/2014  06:49:00     -336.821      -49.012      -14.553      142.792      144.081       67.178    20389.557    20759.382     4512.864        8.085        2.283      340.368       70.896        0.043      341.541       16.322      857.326
06/26/2014  06:50:00     -243.498       17.848      -11.877      151.516       70.857       53.247    22956.993     5020.680     2835.270        4.528        1.541      244.151       62.328        0.065      341.563       16.359      857.322
06/26/2014  06:51:00     -302.671       -6.851      -12.234      129.185      120.312       65.533    16688.733    14475.081     4294.580        6.363        1.773      302.749       58.041        0.037      341.532       16.306      857.318
06/26/2014  06:52:00     -413.608     -119.593      -22.877      160.490      126.436       65.757    25757.185    15986.168     4323.978       11.597        2.303      430.551       76.266        0.031      341.524       16.293      857.290
06/26/2014  06:53:00     -448.784      -97.885      -27.022      189.433      140.984       68.684    35884.725    19876.528     4717.532       13.609        3.024      459.335       90.220        0.039      341.517       16.281      857.277
06/26/2014  06:54:00     -398.824      -74.230      -23.389      169.953      134.006       71.795    28883.942    17957.515     5154.509       10.855        2.600      405.673       77.526        0.037      341.547       16.332      857.276
06/26/2014  06:55:00     -303.084     -131.846       -5.934      166.156      124.181       82.293    27607.860    15421.015     6772.109        7.953        2.490      330.520       85.826        0.067      341.567       16.366      857.277
06/26/2014  06:56:00     -453.942      -99.459      -14.176      170.789      138.602       71.885    29168.850    19210.417     5167.492       13.484        2.677      464.711       83.047        0.032      341.532       16.307      857.288
06/26/2014  06:57:00     -380.253      -22.950      -15.725      135.754      116.178       67.842    18429.192    13497.292     4602.583        9.094        1.826      380.945       61.569        0.026      341.566       16.363      857.314
06/26/2014  06:58:00     -312.014     -101.812       -5.445      136.556      121.581       66.904    18647.671    14781.920     4476.142        7.282        1.895      328.205       62.093        0.036      341.575       16.379      857.304
06/26/2014  06:59:00     -304.771      -19.882      -18.502      113.738       96.250       63.919    12936.366     9264.158     4085.619        5.995        1.314      305.418       71.853        0.055      341.598       16.418      857.292
06/26/2014  07:00:00     -464.521      -42.841      -24.689      167.445      158.180       92.201    28037.690    25020.859     8501.080       13.988        3.078      466.493       95.538        0.042      341.604       16.429      857.293
06/26/2014  07:01:00     -421.606     -151.703      -14.619      194.822      157.852       90.144    37955.647    24917.238     8125.978       13.598        3.550      448.069       92.982        0.043      341.618       16.452      857.306
06/26/2014  07:02:00     -423.291      -26.156      -35.355      167.458      100.165       73.672    28042.261    10033.080     5427.520       11.230        2.175      424.098       83.765        0.039      341.602       16.425      857.309
06/26/2014  07:03:00     -266.711      -39.719       -5.415      161.154      118.093       62.866    25970.502    13945.998     3952.089        5.830        2.193      269.652       72.247        0.072      341.613       16.443      857.275
06/26/2014  07:04:00     -290.888      -65.414      -18.010      134.477      104.672       61.502    18084.138    10956.125     3782.511        6.102        1.641      298.152       57.730        0.037      341.603       16.424      857.234
06/26/2014  07:05:00     -335.905      -19.634      -23.473      119.548      122.101       65.196    14291.810    14908.643     4250.465        7.360        1.673      336.479       64.074        0.036      341.596       16.414      857.221
06/26/2014  07:06:00     -341.647      -65.205      -11.642      182.377      123.617       67.794    33261.325    15281.135     4596.019        8.712        2.657      347.813       80.014        0.053      341.602       16.426      857.228
06/26/2014  07:07:00     -281.185      -18.876      -18.691      126.328      115.073       61.298    15958.753    13241.778     3757.499        5.636        1.648      281.818       55.481        0.039      341.603       16.426      857.251
06/26/2014  07:08:00     -384.466     -104.848      -24.724      175.221      159.390       73.172    30702.359    25405.076     5354.189       11.043        3.073      398.507       85.751        0.046      341.579       16.387      857.248
06/26/2014  07:09:00     -312.491      -36.280        0.082      159.547      105.987       80.967    25455.262    11233.302     6555.582        7.110        2.162      314.590       86.926        0.076      341.562       16.358      857.219
06/26/2014  07:10:00     -332.853      -64.352      -23.841      139.872       95.421       65.499    19564.219     9105.106     4290.130        7.422        1.648      339.016       69.643        0.042      341.586       16.398      857.173
06/26/2014  07:11:00     -519.579       16.096      -36.354      168.470      137.522       72.385    28382.100    18912.180     5239.637       16.203        2.627      519.828       74.848        0.021      341.569       16.369      857.198
06/26/2014  07:12:00     -400.193     -105.976      -10.259      183.884      111.332       72.332    33813.380    12394.758     5231.956       11.146        2.572      413.987       80.039        0.037      341.571       16.373      857.213
06/26/2014  07:13:00     -516.022      -53.615      -40.416      178.521      120.054       74.938    31869.578    14412.938     5615.715       16.133        2.595      518.800       91.523        0.031      341.545       16.329      857.257
06/26/2014  07:14:00     -435.367     -184.271      -26.548      141.106      136.547       75.210    19910.860    18644.950     5656.526       13.420        2.211      472.758       71.503        0.023      341.545       16.329      857.273
06/26/2014  07:15:00     -404.068     -102.564        1.192      189.292      144.410       83.112    35831.415    20854.125     6907.632       11.868        3.180      416.882       88.346        0.045      341.562       16.359      857.291
06/26/2014  07:16:00     -308.154      -88.875      -12.307      120.627       96.204       53.918    14550.871     9255.121     2907.192        6.486        1.336      320.714       41.590        0.017      341.612       16.440      857.276
06/26/2014  07:17:00     -231.240       -9.595      -12.856      133.900      128.167       61.640    17929.208    16426.686     3799.434        4.594        1.908      231.439       58.770        0.064      341.627       16.467      857.268
06/26/2014  07:18:00     -333.950      -91.059       -5.742      123.362       93.373       64.570    15218.263     8718.439     4169.338        7.397        1.405      346.142       69.765        0.041      341.619       16.455      857.281
06/26/2014  07:19:00     -401.210      -26.939      -38.322      129.826       95.914       65.747    16854.797     9199.458     4322.611        9.677        1.519      402.113       69.202        0.030      341.601       16.424      857.287
06/26/2014  07:20:00     -434.905      -38.707      -27.805      244.551      135.702       86.699    59805.348    18415.123     7516.788       13.856        4.287      436.624      101.655        0.054      341.633       16.478      857.275
06/26/2014  07:21:00     -387.390      -38.894       -7.318      188.861      131.489       72.026    35668.389    17289.441     5187.772       10.488        2.907      389.337       82.785        0.045      341.641       16.493      857.295
06/26/2014  07:22:00     -426.547      -52.124      -24.772      143.321      115.856       59.507    20540.796    13422.659     3541.118       11.138        1.875      429.720       68.404        0.025      341.633       16.478      857.298
06/26/2014  07:23:00     -415.549     -143.887       -9.836      135.274      128.643       69.978    18299.177    16548.960     4896.941       11.661        1.987      439.755       65.082        0.022      341.624       16.462      857.286
06/26/2014  07:24:00     -377.165      -94.592       -6.257      158.700      102.428       64.016    25185.545    10491.480     4098.083        9.550        1.989      388.846       75.487        0.038      341.621       16.457      857.295
06/26/2014  07:25:00     -398.635       -1.857      -20.000      148.872      143.580       64.390    22162.957    20615.273     4146.034       10.311        2.346      398.639       64.025        0.026      341.695       16.583      857.282
06/26/2014  07:26:00     -492.380      -60.484      -27.745      188.923      134.579       72.980    35691.921    18111.552     5326.152       15.299        2.956      496.081       93.506        0.036      341.671       16.543      857.254
06/26/2014  07:27:00     -357.119      -97.892       -8.216      131.595       98.666       54.395    17317.271     9735.025     2958.855        8.359        1.501      370.293       51.017        0.019      341.672       16.546      857.282
06/26/2014  07:28:00     -274.575      -63.086        2.191      166.795      117.806       67.974    27820.434    13878.296     4620.438        6.284        2.316      281.729       76.461        0.074      341.713       16.615      857.293
06/26/2014  07:29:00     -212.013      -16.486      -13.059      131.147      128.035       58.059    17199.491    16393.016     3370.828        4.117        1.848      212.653       60.727        0.082      341.736       16.653      857.290
06/26/2014  07:30:00     -300.904      -56.877      -13.990      148.189      139.707       64.364    21959.887    19517.948     4142.705        6.979        2.281      306.232       59.589        0.038      341.735       16.652      857.260
06/26/2014  07:31:00     -319.198     -127.952      -12.094      133.585      128.170       59.223    17844.923    16427.498     3507.389        7.809        1.889      343.888       56.755        0.027      341.712       16.613      857.221
06/26/2014  07:32:00     -273.405      -49.090      -20.210      135.824       80.441       64.086    18448.025     6470.808     4106.972        5.329        1.451      277.777       53.268        0.037      341.773       16.715      857.229
06/26/2014  07:33:00     -393.043     -117.546      -10.152      178.588      150.486       88.500    31893.747    22645.889     7832.311       11.538        3.119      410.244       97.269        0.056      341.755       16.684      857.243
06/26/2014  07:34:00     -315.942      -51.507       -6.393      180.645      134.967       71.356    32632.447    18216.130     5091.685        7.922        2.797      320.113       80.330        0.063      341.852       16.849      857.236
06/26/2014  07:35:00     -394.299      -79.665      -18.453      116.897      143.928       61.265    13665.015    20715.136     3753.436       10.014        1.907      402.267       57.380        0.020      341.781       16.728      857.219
06/26/2014  07:36:00     -305.163      -96.352       -0.277      170.825      150.624       79.293    29181.176    22687.575     6287.369        8.027        2.908      320.013       87.933        0.076      341.779       16.725      857.214
06/26/2014  07:37:00     -390.683       -5.196       -6.077      135.213      133.832       77.000    18282.680    17910.936     5929.009        9.740        2.106      390.718       76.159        0.038      341.811       16.778      857.229
06/26/2014  07:38:00     -279.591     -134.374      -25.023      176.362      157.309       73.161    31103.562    24746.100     5352.501        7.902        3.060      310.205       79.265        0.065      341.756       16.687      857.256
06/26/2014  07:39:00     -204.023      -99.545        8.492      162.887       96.526       59.999    26532.063     9317.280     3599.907        4.552        1.972      227.012       66.734        0.086      341.819       16.795      857.298
06/26/2014  07:40:00     -297.686     -150.600        1.650      190.438      142.933       90.030    36266.670    20429.852     8105.368        8.804        3.240      333.612       88.863        0.071      341.742       16.663      857.338
06/26/2014  07:41:00     -225.198      -70.589        8.794      148.400      101.284       57.335    22022.706    10258.470     3287.263        4.567        1.778      236.002       68.808        0.085      341.786       16.736      857.331
06/26/2014  07:42:00     -131.450      -41.762        8.696       90.085       83.980       36.250     8115.231     7052.642     1314.067        1.779        0.824      137.925       41.876        0.092      341.883       16.904      857.341
06/26/2014  07:43:00     -389.592      -58.844      -27.988      175.832      118.506       76.191    30916.878    14043.644     5805.051       10.339        2.538      394.010       83.835        0.045      341.822       16.797      857.340
06/26/2014  07:44:00     -354.780      -66.316       -9.837      177.369      128.630       73.788    31459.811    16545.688     5444.657        9.190        2.673      360.924       66.564        0.034      341.793       16.749      857.338
06/26/2014  07:45:00     -241.042      -21.921        2.330      139.719      102.797       63.773    19521.359    10567.239     4066.969        4.637        1.708      242.037       70.016        0.084      341.911       16.950      857.374
06/26/2014  07:46:00     -290.475     -170.489       -4.696      116.392       96.318       59.635    13547.180     9277.184     3556.321        6.992        1.319      336.812       58.997        0.031      341.843       16.831      857.411
06/26/2014  07:47:00     -274.677      -59.931       -8.811      138.657      121.974       73.081    19225.723    14877.714     5340.806        5.927        1.972      281.139       75.106        0.071      341.873       16.884      857.417
06/26/2014  07:48:00     -298.595     -110.426       -6.618      116.744      137.988       67.481    13629.255    19040.611     4553.734        6.930        1.861      318.360       65.900        0.043      341.886       16.907      857.433
06/26/2014  07:49:00     -411.124      -70.935      -16.495      139.356      137.504       65.763    19420.143    18907.292     4324.814       10.848        2.133      417.198       64.681        0.024      341.831       16.812      857.456
06/26/2014  07:50:00     -280.365     -102.172        2.219      198.229      154.461       84.373    39294.548    23858.223     7118.753        7.965        3.514      298.402      101.399        0.115      341.876       16.890      857.473
06/26/2014  07:51:00     -148.370       29.417        1.595      216.788       92.661       71.112    46997.027     8585.974     5056.910        4.175        3.032      151.258      100.133        0.438      341.960       17.034      857.478
06/26/2014  07:52:00     -602.281      -13.929      -59.221      146.461      145.465       66.643    21450.798    21160.003     4441.295       20.674        2.353      602.442       72.978        0.015      341.803       16.764      857.457
06/26/2014  07:53:00     -343.529      -39.985      -37.078      171.589      111.386       63.693    29442.777    12406.931     4056.829        8.344        2.295      345.849       53.932        0.024      341.887       16.908      857.440
06/26/2014  07:54:00     -432.777      -91.717      -13.653      160.850      113.653       79.798    25872.760    12917.020     6367.672       12.052        2.258      442.389       84.774        0.037      341.842       16.832      857.444
06/26/2014  07:55:00     -489.497      -11.519      -27.149      189.391      128.825       81.951    35868.927    16595.762     6715.939       14.982        2.959      489.633       98.587        0.041      341.818       16.790      857.464
06/26/2014  07:56:00     -326.900      -46.079      -10.818      151.427      156.614       79.455    22930.087    24527.798     6313.101        8.143        2.689      330.131       79.864        0.059      341.866       16.873      857.457
06/26/2014  07:57:00     -405.183      -78.495      -18.067      156.926      103.600       80.894    24625.653    10732.870     6543.812       10.627        2.095      412.717       86.608        0.044      341.814       16.783      857.431
06/26/2014  07:58:00     -443.616     -145.113      -22.529      196.140      130.607       80.749    38470.712    17058.099     6520.364       14.019        3.102      466.748       88.758        0.036      341.825       16.803      857.406
06/26/2014  07:59:00     -341.146       -3.728       -3.268      177.711      156.323       66.933    31581.353    24436.730     4480.046        8.844        3.025      341.166       79.763        0.055      341.845       16.839      857.427
06/26/2014  08:00:00     -352.359      -46.882      -18.434      144.524      108.071       61.544    20887.134    11679.341     3787.678        8.152        1.818      355.464       53.048        0.022      341.847       16.840      857.403
06/26/2014  08:01:00     -331.995        9.346      -31.749      141.663       92.114       56.809    20068.347     8485.026     3227.227        7.154        1.589      332.126       63.711        0.037      341.831       16.813      857.405
06/26/2014  08:02:00     -204.274     -110.471       -8.917      171.410       89.721       61.298    29381.315     8049.879     3757.425        4.759        2.059      232.232       79.516        0.117      341.964       17.040      857.423
06/26/2014  08:03:00     -357.695      -71.968      -31.221       98.422       94.514       50.811     9686.931     8932.911     2581.779        7.765        1.060      364.863       44.994        0.015      341.945       17.007      857.453
06/26/2014  08:04:00     -318.406      -58.757      -18.597      169.976      147.032       67.646    28891.729    21618.301     4575.979        8.012        2.754      323.782       70.432        0.047      341.960       17.033      857.451
06/26/2014  08:05:00     -340.801      -70.154       -8.212      161.113      118.242       71.140    25957.469    13981.086     5060.950        8.306        2.250      347.947       74.800        0.046      341.969       17.047      857.448
06/26/2014  08:06:00      -71.428      -59.337       23.453      169.246       98.036       68.878    28644.372     9611.115     4744.120        2.608        2.150       92.859       94.434        1.034      342.136       17.332      857.457
06/26/2014  08:07:00     -197.282       16.251       -6.340      162.373       77.731       57.438    26365.119     6042.049     3299.167        3.746        1.785      197.950       66.239        0.112      342.065       17.212      857.470
06/26/2014  08:08:00     -286.857      -59.810      -29.373      112.171       83.785       44.204    12582.442     7019.939     1954.017        5.414        1.078      293.026       36.647        0.016      342.002       17.104      857.488
06/26/2014  08:09:00     -329.081      -28.388      -18.271      169.134      120.676       56.991    28606.203    14562.651     3247.967        7.792        2.321      330.303       48.614        0.022      342.006       17.110      857.514
06/26/2014  08:10:00     -448.055      -91.358      -24.850      171.748      167.349       79.877    29497.361    28005.650     6380.360       13.679        3.194      457.274       68.296        0.022      341.975       17.055      857.515
06/26/2014  08:11:00     -231.133      -64.485       -5.786      132.920      136.911       63.601    17667.739    18744.728     4045.072        4.903        2.023      239.960       60.475        0.064      342.009       17.116      857.513
06/26/2014  08:12:00     -389.535       30.083      -30.393      127.713       91.556       54.617    16310.671     8382.431     2982.966        9.062        1.384      390.695       50.613        0.017      341.991       17.084      857.514
06/26/2014  08:13:00     -248.594        5.778       -7.521      136.119      125.263       72.731    18528.499    15690.841     5289.845        5.069        1.975      248.661       63.279        0.065      342.140       17.339      857.508
06/26/2014  08:14:00     -284.797      -46.253       11.418      152.034      163.829       75.318    23114.195    26839.917     5672.857        6.949        2.781      288.528       66.773        0.054      342.067       17.215      857.531
06/26/2014  08:15:00     -417.871      -80.870      -19.377      193.077       82.217       62.149    37278.567     6759.627     3862.520       11.471        2.395      425.624       77.784        0.033      342.018       17.132      857.570
06/26/2014  08:16:00     -335.173      -12.999      -13.496      181.802      110.278       72.582    33051.813    12161.318     5268.155        8.158        2.524      335.425       86.504        0.067      342.099       17.268      857.590
06/26/2014  08:17:00     -347.994      -66.789       -4.128      192.632      147.792       72.682    37107.094    21842.522     5282.613        9.489        3.212      354.345       90.028        0.065      342.047       17.180      857.580
06/26/2014  08:18:00     -314.419      -30.594       13.337      232.677      163.110      104.739    54138.419    26604.874    10970.335        9.583        4.586      315.904      107.598        0.116      342.057       17.196      857.550
06/26/2014  08:19:00     -477.893      -96.925      -35.592      150.159      163.540       80.905    22547.678    26745.251     6545.558       14.743        2.792      487.623       62.073        0.016      341.968       17.045      857.536
06/26/2014  08:20:00     -368.190      -25.214      -25.968      162.597      145.094       87.505    26437.684    21052.132     7657.092        9.600        2.757      369.053       76.486        0.043      342.028       17.147      857.519
06/26/2014  08:21:00     -489.681      -15.940      -32.489      214.038      166.945      100.240    45812.229    27870.503    10047.974       16.240        4.187      489.940       91.261        0.035      342.018       17.131      857.544
06/26/2014  08:22:00     -480.725     -117.795      -31.160      185.622      165.342       78.567    34455.502    27337.842     6172.745       15.694        3.398      494.947       85.010        0.030      341.912       16.952      857.586
06/26/2014  08:23:00     -391.523      -49.759      -16.692      230.215      166.780       82.911    52999.143    27815.414     6874.245       12.185        4.384      394.672       90.052        0.052      341.961       17.034      857.585
06/26/2014  08:24:00     -505.144      -89.341      -46.494      142.920      166.556       82.258    20426.118    27740.919     6766.433       16.011        2.747      512.984       80.842        0.025      341.920       16.963      857.598
06/26/2014  08:25:00     -457.145     -122.718        4.739      230.161      150.815       90.799    52973.858    22745.088     8244.473       15.400        4.198      473.330      108.306        0.052      341.891       16.915      857.581
06/26/2014  08:26:00     -671.179     -243.671      -25.414      157.842      149.988       84.725    24914.138    22496.534     7178.332       28.254        2.729      714.043       78.054        0.012      341.800       16.760      857.521
06/26/2014  08:27:00     -630.606      -62.289      -51.829      172.821      110.900       71.323    29866.974    12298.817     5086.925       22.573        2.363      633.675       67.561        0.011      341.866       16.872      857.517
06/26/2014  08:28:00     -501.190      -86.872      -41.255      200.633      149.633       91.866    40253.725    22390.031     8439.334       16.575        3.554      508.663      102.045        0.040      341.897       16.926      857.493
06/26/2014  08:29:00     -471.437     -138.454       -7.349      192.540      130.313       89.794    37071.558    16981.447     8063.038       15.179        3.106      491.348      101.967        0.043      341.893       16.917      857.505
06/26/2014  08:30:00     -371.178     -119.755      -12.419      186.537      152.704       71.009    34795.921    23318.399     5042.221       10.770        3.158      390.018       81.591        0.044      341.925       16.972      857.535
06/26/2014  08:31:00     -382.018      -94.872      -21.961      130.893      125.417       63.235    17132.918    15729.392     3998.675        9.613        1.843      393.622       68.231        0.030      341.970       17.048      857.552
06/26/2014  08:32:00     -328.535      -28.655       -7.480      297.741      155.139       71.972    88649.452    24068.120     5180.008       11.334        5.895      329.782      103.083        0.098      342.082       17.240      857.530
06/26/2014  08:33:00     -653.057     -237.445      -29.505      218.911      157.923       96.584    47921.813    24939.743     9328.396       28.295        4.109      694.884       99.183        0.020      341.922       16.968      857.500
06/26/2014  08:34:00     -331.618     -173.230        6.593      178.205      151.284       79.798    31757.010    22886.844     6367.677       10.051        3.051      374.138       91.971        0.060      342.148       17.353      857.545
06/26/2014  08:35:00     -288.823      -74.902        3.612      174.678      132.068       83.938    30512.578    17441.971     7045.532        7.201        2.750      298.378       92.442        0.096      342.257       17.536      857.542
06/26/2014  08:36:00     -336.705      -12.227      -21.916      155.555      103.194       71.726    24197.315    10649.001     5144.597        7.699        2.000      336.927       77.320        0.053      342.382       17.750      857.535
06/26/2014  08:37:00     -483.671      -82.010      -25.788      143.636      110.192       63.694    20631.231    12142.265     4056.906       13.907        1.842      490.575       55.143        0.013      342.183       17.411      857.524
06/26/2014  08:38:00     -243.909      -82.790       -4.012      153.047      125.173       52.486    23423.479    15668.349     2754.812        5.410        2.092      257.576       62.484        0.059      342.324       17.652      857.534
06/26/2014  08:39:00     -286.267      -47.304      -31.016      159.228      108.538       52.027    25353.620    11780.468     2706.778        6.249        1.992      290.149       65.460        0.051      342.300       17.611      857.530
06/26/2014  08:40:00     -496.352     -106.712      -38.648      223.588      144.589       77.530    49991.385    20906.074     6010.912       16.806        3.845      507.693      100.232        0.039      342.125       17.312      857.503
06/26/2014  08:41:00     -311.702     -136.862       13.614      166.359      130.742       79.903    27675.310    17093.450     6384.470        8.361        2.558      340.425       83.372        0.060      342.254       17.532      857.529
06/26/2014  08:42:00     -413.090     -154.165        3.251      248.359      142.510       84.223    61682.254    20309.184     7093.517       14.174        4.454      440.920      100.068        0.052      342.079       17.234      857.571
06/26/2014  08:43:00     -535.207      -37.603      -37.778      170.072      170.289       82.954    28924.513    28998.427     6881.298       17.703        3.240      536.526       80.484        0.023      342.086       17.246      857.580
06/26/2014  08:44:00     -566.381     -102.603      -27.517      222.441      202.178       91.520    49479.837    40875.874     8375.832       21.539        4.937      575.599       96.753        0.028      341.962       17.035      857.594
06/26/2014  08:45:00     -543.513     -130.443      -22.114      285.654      167.724      104.973    81598.188    28131.494    11019.315       21.681        6.037      558.947      140.807        0.063      341.991       17.085      857.633
06/26/2014  08:46:00     -477.818     -103.039      -23.823      218.282      160.807       88.450    47647.071    25858.935     7823.478       16.040        4.066      488.802       80.409        0.027      341.890       16.913      857.613
06/26/2014  08:47:00     -528.648      -66.727      -31.793      182.790      147.435       76.712    33412.031    21736.982     5884.671       17.297        3.052      532.843       75.414        0.020      341.963       17.036      857.627
06/26/2014  08:48:00     -300.611     -123.995        8.117      186.431      152.574       94.900    34756.700    23278.791     9006.012        8.641        3.352      325.180       98.691        0.092      342.114       17.294      857.625
06/26/2014  08:49:00     -553.835     -169.184      -38.510      192.734      165.432       94.633    37146.378    27367.779     8955.414       20.514        3.673      579.099       91.287        0.025      341.972       17.052      857.621
06/26/2014  08:50:00     -324.070      -90.814       -4.962      219.263      149.293       84.790    48076.197    22288.314     7189.421        9.541        3.878      336.554       98.359        0.085      342.217       17.469      857.631
06/26/2014  08:51:00     -340.033     -109.279       -7.493      200.137      146.480       71.802    40054.711    21456.485     5155.563        9.713        3.333      357.161       75.680        0.045      342.148       17.352      857.666
06/26/2014  08:52:00     -436.785     -155.555      -14.106      179.242      132.636       79.303    32127.647    17592.195     6289.025       13.558        2.800      463.657       87.088        0.035      342.039       17.166      857.670
06/26/2014  08:53:00     -425.248      -57.840      -23.326      182.187      122.704       78.200    33192.047    15056.343     6115.281       11.954        2.718      429.163       85.937        0.040      342.220       17.473      857.682
06/26/2014  08:54:00     -379.132     -105.046      -11.420      173.109      151.171       76.536    29966.858    22852.795     5857.786       10.678        2.934      393.416       86.507        0.048      342.059       17.203      857.674
06/26/2014  08:55:00     -263.031      -97.905       14.233      164.932      141.741       57.718    27202.510    20090.584     3331.418        6.479        2.531      280.661       69.576        0.061      342.253       17.531      857.686
06/26/2014  08:56:00     -194.210      -68.448       -0.398      147.874      108.397       62.494    21866.782    11749.916     3905.483        3.996        1.876      205.919       72.077        0.123      342.385       17.755      857.698
06/26/2014  08:57:00     -503.681      -74.624      -23.609      179.792      177.052       81.510    32325.234    31347.349     6643.893       16.506        3.516      509.179       76.878        0.023      342.130       17.321      857.704
06/26/2014  08:58:00     -544.428       14.632      -32.997      157.373      190.405       86.021    24766.292    36254.102     7399.640       18.305        3.421      544.624       80.013        0.022      342.056       17.194      857.718
06/26/2014  08:59:00     -475.942     -116.406      -19.736      147.596      148.273       70.749    21784.646    21984.953     5005.427       14.461        2.439      489.970       66.169        0.018      342.068       17.214      857.704
06/26/2014  09:00:00     -428.189     -196.134      -16.832      175.063      148.123       88.355    30647.101    21940.306     7806.617       14.124        3.020      470.972       90.140        0.037      342.098       17.268      857.738
06/26/2014  09:01:00     -293.027      -86.407        0.338      165.194      100.536       71.794    27289.133    10107.400     5154.398        6.793        2.128      305.501       71.385        0.055      342.269       17.558      857.771
06/26/2014  09:02:00     -347.857      -42.054      -14.566      173.825      129.694       79.982    30215.110    16820.410     6397.183        8.820        2.672      350.390       84.351        0.058      342.168       17.386      857.762
06/26/2014  09:03:00     -349.550      -65.955      -20.309      138.106      107.694       59.902    19073.195    11597.985     3588.248        8.060        1.713      355.717       62.939        0.031      342.303       17.615      857.746
06/26/2014  09:04:00     -427.512     -155.945      -38.355      189.747      173.654       85.744    36004.062    30155.842     7351.982       14.102        3.676      455.066       67.908        0.022      342.258       17.538      857.750
06/26/2014  09:05:00     -403.642      -38.401      -19.005      184.343      180.594       81.298    33982.191    32614.160     6609.332       11.897        3.660      405.465       80.219        0.039      342.382       17.748      857.775
06/26/2014  09:06:00     -532.993       83.921      -49.307      218.558      126.286       84.931    47767.553    15948.066     7213.316       18.223        3.546      539.560       91.205        0.029      342.105       17.277      857.697
06/26/2014  09:07:00     -645.155      -51.295      -68.468      244.649      156.759       90.993    59853.329    24573.472     8279.694       25.811        4.635      647.191       95.293        0.022      342.126       17.315      857.629
06/26/2014  09:08:00     -543.914      -21.172      -28.177      210.608      235.286      104.634    44355.689    55359.295    10948.346       20.386        5.533      544.326      105.048        0.037      342.126       17.315      857.639
06/26/2014  09:09:00     -244.159      -76.552        4.977      158.534      128.884       84.111    25132.881    16611.161     7074.708        5.715        2.441      255.878       87.109        0.116      342.277       17.572      857.637
06/26/2014  09:10:00     -369.353      -58.948       -1.762      232.508      213.984      100.697    54059.805    45789.083    10139.793       12.493        5.499      374.028      111.962        0.090      342.399       17.779      857.640
06/26/2014  09:11:00     -661.181     -234.860      -14.942      257.998      190.236       94.922    66562.894    36189.919     9010.207       30.213        5.588      701.655       87.272        0.015      342.120       17.304      857.641
06/26/2014  09:12:00     -566.297     -135.752      -14.133      258.431      185.318      111.630    66786.652    34342.901    12461.172       22.644        5.680      582.341      119.499        0.042      342.183       17.411      857.671
06/26/2014  09:13:00     -364.384     -107.227       -6.893      230.501      162.854       73.428    53130.813    26521.544     5391.745       11.467        4.252      379.833       91.346        0.058      342.187       17.418      857.652
06/26/2014  09:14:00     -308.782      -99.965        0.132      193.189      160.260       98.350    37322.123    25683.182     9672.645        8.900        3.634      324.561       95.681        0.087      342.311       17.627      857.614
06/26/2014  09:15:00     -491.170      -67.495      -40.099      240.713      153.338       94.322    57942.657    23512.625     8896.700       16.887        4.518      495.786      105.448        0.045      342.279       17.575      857.639
06/26/2014  09:16:00     -301.824      -65.667        0.248      230.726      169.429       93.990    53234.297    28706.281     8834.045        9.308        4.539      308.885      104.489        0.114      342.387       17.759      857.654
06/26/2014  09:17:00     -370.845      -74.602       -7.350      204.864      163.228       95.285    41969.312    26643.243     9079.172       11.041        3.885      378.274      104.985        0.077      342.372       17.734      857.653
06/26/2014  09:18:00     -341.478      -71.100      -13.096      233.222      185.584      100.779    54392.409    34441.567    10156.311       11.040        4.950      348.801      117.412        0.113      342.214       17.465      857.610
06/26/2014  09:19:00     -418.008       -4.771      -13.699      204.062      220.165       86.327    41641.302    48472.820     7452.393       13.624        4.878      418.035      107.635        0.066      342.293       17.598      857.577
06/26/2014  09:20:00     -429.455     -107.758      -20.945      175.960      133.240       83.139    30961.896    17752.882     6912.131       12.605        2.781      442.768       91.678        0.043      342.165       17.380      857.621
06/26/2014  09:21:00     -369.527      -52.669      -22.466      207.249      164.177       85.651    42952.078    26954.090     7336.056       10.852        3.862      373.261       82.652        0.049      342.304       17.616      857.620
06/26/2014  09:22:00     -436.088      -13.329      -33.996      218.804      153.440       86.208    47875.250    23543.920     7431.848       13.517        3.943      436.292      102.465        0.055      342.387       17.759      857.609
06/26/2014  09:23:00     -321.300       -5.103        1.725      240.230      145.349       90.735    57710.621    21126.329     8232.902        9.515        4.353      321.340      116.547        0.132      342.502       17.954      857.611
06/26/2014  09:24:00     -429.167      -85.434      -18.446      286.744      185.646      108.857    82222.011    34464.447    11849.743       16.016        6.427      437.588      132.616        0.092      342.221       17.475      857.596
06/26/2014  09:25:00     -452.850      -72.085      -14.462      224.937      207.946       98.435    50596.745    43241.553     9689.393       15.699        5.176      458.551       99.822        0.047      342.204       17.447      857.586
06/26/2014  09:26:00     -705.955     -166.325      -22.861      241.837      250.718      111.083    58485.220    62859.575    12339.480       33.010        6.684      725.283      112.467        0.024      342.034       17.158      857.581
06/26/2014  09:27:00     -613.763     -262.288        2.956      329.638      245.085      131.636   108661.208    60066.797    17327.984       31.575        9.303      667.458      159.976        0.057      342.020       17.134      857.542
06/26/2014  09:28:00     -532.489     -101.155      -26.011      215.830      180.898       95.930    46582.708    32724.095     9202.471       19.147        4.425      542.012      107.159        0.039      342.171       17.392      857.591
06/26/2014  09:29:00     -552.560      -77.487      -42.584      254.827      181.488      104.154    64936.847    32937.838    10847.998       21.091        5.436      557.967      119.134        0.046      342.117       17.300      857.602
06/26/2014  09:30:00     -372.510      -43.730      -21.080      226.528      129.060       79.987    51314.709    16656.411     6397.854       10.773        3.718      375.068       94.606        0.064      342.355       17.702      857.593
06/26/2014  09:31:00     -569.661     -189.904      -53.506      249.000      185.813      108.318    62000.893    34526.511    11732.846       23.583        5.413      600.481      103.003        0.029      342.320       17.645      857.578
06/26/2014  09:32:00     -534.466     -112.462      -18.666      188.826      191.818       92.388    35655.129    36794.169     8535.489       18.980        4.049      546.170       87.427        0.026      342.243       17.513      857.605
06/26/2014  09:33:00     -519.116      -70.921      -14.016      268.075      180.648       96.307    71864.154    32633.747     9275.124       19.422        5.689      523.938      102.688        0.038      342.312       17.632      857.562
06/26/2014  09:34:00     -426.458     -169.559      -12.033      254.569      180.150       97.754    64805.150    32453.910     9555.806       15.877        5.341      458.930      107.317        0.055      342.488       17.931      857.523
06/26/2014  09:35:00     -396.577     -182.616      -24.084      198.628      156.000       86.836    39452.964    24336.065     7540.423       13.125        3.566      436.603       86.054        0.039      342.371       17.731      857.541
06/26/2014  09:36:00     -374.640     -182.968      -18.050      265.458      238.508      113.358    70468.181    56886.049    12849.984       15.716        7.010      416.932      134.214        0.104      342.354       17.701      857.576
06/26/2014  09:37:00     -321.401     -119.813        5.331      252.202      186.210       92.922    63606.019    34674.155     8634.535       11.228        5.346      343.007      107.425        0.098      342.299       17.609      857.610
06/26/2014  09:38:00     -267.102     -142.640       31.864      260.182      215.480       98.934    67694.617    46431.783     9787.978       10.829        6.196      302.803      115.025        0.144      342.342       17.682      857.619
06/26/2014  09:39:00     -250.158     -167.121       36.641      312.985      200.442      143.628    97959.811    40177.158    20628.949       12.528        7.938      300.846      165.165        0.301      342.415       17.805      857.571
06/26/2014  09:40:00     -361.921      -87.483      -12.602      175.259      145.846       74.131    30715.676    21270.977     5495.464        9.813        2.874      372.345       67.790        0.033      342.549       18.034      857.588
06/26/2014  09:41:00     -273.887     -140.180       12.973      229.429      209.335       89.663    52637.634    43821.211     8039.429        9.965        5.225      307.676      103.099        0.112      342.794       18.449      857.538
06/26/2014  09:42:00     -366.832       16.001       -6.194      275.525      149.765       93.154    75913.889    22429.468     8677.618       12.092        5.351      367.181      104.733        0.081      342.762       18.398      857.562
06/26/2014  09:43:00     -320.291      -46.890        1.267      258.093      136.648       82.585    66611.838    18672.546     6820.219        9.843        4.605      323.705      113.699        0.123      342.911       18.650      857.507
06/26/2014  09:44:00     -492.871      -55.339      -22.043      265.410      186.872       94.918    70442.313    34921.294     9009.371       18.040        5.719      495.968      111.286        0.050      342.758       18.390      857.490
06/26/2014  09:45:00     -540.386     -106.543      -13.604      301.739      207.062      115.866    91046.723    42874.485    13424.862       22.542        7.367      550.789      139.587        0.064      342.494       17.939      857.514
06/26/2014  09:46:00     -494.437     -174.338       -9.784      290.637      247.289      104.404    84469.690    61151.800    10900.221       21.571        7.826      524.273      122.620        0.055      342.609       18.136      857.536
06/26/2014  09:47:00     -191.025     -160.556       30.923      212.950      182.582       99.906    45347.581    33336.054     9981.261        7.593        4.433      249.537      107.049        0.184      342.546       18.030      857.553
06/26/2014  09:48:00     -298.598     -143.219       21.448      239.777      176.498      102.437    57493.179    31151.554    10493.259       10.462        4.957      331.168      122.853        0.138      342.619       18.152      857.518
06/26/2014  09:49:00     -543.774       73.982      -28.258      208.622      196.415       96.131    43523.041    38579.022     9241.129       19.664        4.567      548.784       91.863        0.028      342.462       17.885      857.535
06/26/2014  09:50:00     -395.794     -104.306        8.451      229.741      248.312      108.277    52780.918    61658.696    11723.929       14.686        6.308      409.308      116.955        0.082      342.686       18.266      857.551
06/26/2014  09:51:00     -399.718     -178.578      -17.830      245.478      222.062      119.335    60259.488    49311.478    14240.872       15.788        6.191      437.795      127.677        0.085      342.460       17.883      857.540
06/26/2014  09:52:00     -485.836     -115.749      -17.128      252.620      233.417      101.663    63816.695    54483.647    10335.369       18.916        6.432      499.434       85.193        0.029      342.359       17.710      857.560
06/26/2014  09:53:00     -321.338       35.534       -6.318      260.886      149.917       89.153    68061.617    22475.001     7948.169       10.151        4.924      323.297      113.288        0.123      342.703       18.296      857.542
06/26/2014  09:54:00     -432.118     -173.090       -8.664      310.168      214.387      109.444    96204.341    45961.968    11977.908       18.543        7.707      465.496      133.197        0.082      342.767       18.405      857.541
06/26/2014  09:55:00     -459.109     -168.086      -10.524      284.174      200.342      109.529    80754.897    40136.752    11996.631       18.599        6.644      488.911      130.744        0.072      342.565       18.062      857.576
06/26/2014  09:56:00     -418.259     -147.489       -8.990      326.160      211.645      109.734   106380.261    44793.587    12041.547       17.997        8.161      443.502      125.802        0.080      342.493       17.938      857.548
06/26/2014  09:57:00     -378.170     -176.429      -12.388      250.311      199.423      104.012    62655.493    39769.341    10818.521       14.375        5.662      417.300      124.281        0.089      342.512       17.971      857.555
06/26/2014  09:58:00     -459.766     -207.374      -11.110      332.306      204.350      119.870   110427.554    41759.004    14368.745       21.051        8.328      504.370      160.124        0.101      342.595       18.112      857.552
06/26/2014  09:59:00     -194.101      -80.774       12.075      167.490      151.318       82.482    28052.767    22897.265     6803.331        5.104        2.888      210.237       94.562        0.202      342.837       18.524      857.541
06/26/2014  10:00:00     -437.876      -97.327      -11.635      278.873      201.388      111.884    77770.007    40556.936    12517.943       16.607        6.542      448.562      119.062        0.070      342.450       17.865      857.523
06/26/2014  10:01:00     -458.463     -306.365       -4.325      330.732      260.636      127.935   109383.616    67931.317    16367.366       24.884        9.684      551.405      159.959        0.084      342.541       18.020      857.494
06/26/2014  10:02:00     -533.197     -142.310        3.846      327.500      270.953      127.799   107256.295    73415.675    16332.473       25.075        9.850      551.861      157.011        0.081      342.403       17.786      857.470
06/26/2014  10:03:00     -571.854     -128.243      -21.316      303.518      266.952      132.215    92123.408    71263.180    17480.810       26.236        9.043      586.058      166.084        0.080      342.445       17.856      857.488
06/26/2014  10:04:00     -348.384     -162.588       11.315      261.027      227.431      111.968    68135.219    51724.894    12536.920       14.014        6.620      384.456      153.504        0.159      342.557       18.048      857.458
06/26/2014  10:05:00     -277.584     -125.861       12.218      222.484      188.211      100.171    49499.291    35423.210    10034.299        9.398        4.748      304.785      106.334        0.122      342.669       18.237      857.487
06/26/2014  10:06:00     -562.064       27.717      -33.121      245.863      178.987       98.457    60448.715    32036.429     9693.829       20.996        5.109      562.747      118.390        0.044      342.498       17.947      857.488
06/26/2014  10:07:00     -301.561     -136.445       11.715      258.455      184.683      100.963    66798.784    34107.868    10193.606       11.038        5.555      330.993      118.480        0.128      342.743       18.363      857.509
06/26/2014  10:08:00     -399.847     -223.851       -6.651      252.777      172.631      100.707    63896.412    29801.632    10141.940       15.692        5.192      458.243      108.507        0.056      342.704       18.296      857.530
06/26/2014  10:09:00     -441.600     -111.768      -10.985      242.577      178.659       87.642    58843.767    31919.173     7681.145       15.302        4.922      455.525       88.251        0.038      342.723       18.329      857.538
06/26/2014  10:10:00     -317.258     -239.502        6.019      225.850      209.559      125.355    51008.093    43915.160    15713.976       13.433        5.532      397.510      138.018        0.121      342.729       18.340      857.506
06/26/2014  10:11:00     -421.537      -53.491        7.189      308.585      181.873      105.315    95224.700    33077.950    11091.277       15.998        6.970      424.917      120.026        0.080      342.541       18.020      857.504
06/26/2014  10:12:00     -509.371     -145.936        0.624      272.147      254.123      123.023    74064.209    64578.707    15134.581       21.724        7.689      529.864      144.018        0.074      342.559       18.050      857.504
06/26/2014  10:13:00     -479.997      -86.743       -0.150      310.436      231.798      129.899    96370.715    53730.452    16873.760       20.242        8.349      487.772      159.265        0.107      342.612       18.141      857.517
06/26/2014  10:14:00     -559.428     -188.721       10.795      317.341      316.693      135.366   100705.585   100294.536    18323.922       28.397       10.966      590.402      176.202        0.089      342.369       17.726      857.476
06/26/2014  10:15:00     -456.086     -292.545       20.415      297.416      233.175      138.145    88455.993    54370.799    19084.063       22.794        8.096      541.846      155.988        0.083      342.343       17.684      857.502
06/26/2014  10:16:00     -262.648     -165.819       28.147      324.707      221.437      132.356   105434.837    49034.419    17518.201       13.460        8.599      310.612      171.689        0.306      342.499       17.949      857.493
06/26/2014  10:17:00     -337.412      -95.270      -13.752      252.196      167.680       79.385    63602.657    28116.500     6301.906       11.055        4.901      350.604      100.679        0.082      342.598       18.117      857.496
06/26/2014  10:18:00     -559.421      -70.905      -30.323      231.972      170.141      100.561    53811.176    28948.017    10112.578       20.587        4.644      563.896      103.466        0.034      342.519       17.984      857.474
06/26/2014  10:19:00     -440.922      -78.666       -1.877      228.674      203.614      112.675    52291.576    41458.782    12695.585       15.351        5.322      447.884      107.267        0.057      342.548       18.032      857.454
06/26/2014  10:20:00     -434.478       66.653        1.421      321.799      184.184       89.089   103554.740    33923.720     7936.860       16.929        7.271      439.561      102.257        0.054      342.572       18.073      857.462
06/26/2014  10:21:00     -633.283     -240.774      -46.261      251.989      212.333      125.002    63498.420    45085.394    15625.514       29.266        6.210      677.510      121.787        0.032      342.297       17.605      857.454
06/26/2014  10:22:00     -423.171     -140.447      -23.056      290.643      190.824      103.363    84473.204    36413.711    10683.936       16.543        6.579      445.869      133.470        0.090      342.323       17.648      857.456
06/26/2014  10:23:00     -348.228      -86.407       -1.167      203.694      158.093       87.793    41491.112    24993.384     7707.564       10.145        3.710      358.788       74.858        0.044      342.422       17.816      857.407
06/26/2014  10:24:00     -402.691     -107.870       12.792      262.613      185.886       96.325    68965.790    34553.605     9278.491       14.336        5.640      416.889      110.412        0.070      342.540       18.019      857.410
06/26/2014  10:25:00     -701.787     -239.184      -41.805      323.028      217.298      123.842   104347.208    47218.450    15336.963       35.915        8.345      741.427      143.635        0.038      342.290       17.590      857.380
06/26/2014  10:26:00     -485.613     -164.648      -25.808      231.595      268.960      103.797    53636.268    72339.300    10773.920       20.015        6.837      512.766      103.241        0.041      342.400       17.781      857.379
06/26/2014  10:27:00     -265.554      -55.013        9.674      184.918      122.622       81.897    34194.523    15036.266     6707.109        6.478        2.797      271.192       96.300        0.126      342.612       18.140      857.431
06/26/2014  10:28:00     -385.881     -209.461        2.186      290.214      189.253      110.001    84224.191    35816.635    12100.150       16.244        6.607      439.066      121.527        0.077      342.339       17.678      857.455
06/26/2014  10:29:00     -694.210     -199.570      -38.911      293.022      196.149      106.403    85861.623    38474.429    11321.563       32.944        6.783      722.327      124.463        0.030      342.166       17.382      857.446
06/26/2014  10:30:00     -355.533     -135.110        2.783      236.382      166.121       79.275    55876.664    27596.029     6284.524       11.720        4.488      380.340       95.812        0.063      342.154       17.362      857.469
06/26/2014  10:31:00     -307.322      -99.856       -0.427      228.979      262.506      100.184    52431.588    68909.277    10036.821       11.788        6.569      323.137      114.929        0.126      342.361       17.713      857.425
06/26/2014  10:32:00     -309.769     -247.933       11.684      263.212      189.499      119.474    69280.567    35909.856    14273.930       13.849        5.973      396.771      131.621        0.110      342.397       17.774      857.417
06/26/2014  10:33:00     -324.597     -150.756      -19.901      200.582      181.694       76.021    40232.944    33012.693     5779.136       10.374        3.951      357.898       78.953        0.049      342.371       17.731      857.439
06/26/2014  10:34:00     -362.928     -254.534        4.908      331.017      211.384      124.588   109572.151    44683.009    15522.275       18.312        8.489      443.288      166.502        0.141      342.303       17.616      857.462
06/26/2014  10:35:00     -441.008     -161.310      -42.724      286.936      246.012      113.837    82332.017    60522.147    12958.787       18.905        7.791      469.584      148.429        0.100      342.218       17.471      857.411
06/26/2014  10:36:00     -440.702     -206.434      -17.586      227.723      163.495       97.193    51857.813    26730.545     9446.494       16.257        4.402      486.655      104.086        0.046      342.257       17.537      857.427
06/26/2014  10:37:00     -326.919      -61.373       -6.838      248.393      148.223       85.441    61699.051    21970.128     7300.131       10.081        4.548      332.630      105.784        0.101      342.428       17.829      857.456
06/26/2014  10:38:00     -484.814     -143.707      -31.498      205.961      208.363      107.198    42419.944    43414.990    11491.331       17.699        4.866      505.665      106.466        0.044      342.409       17.796      857.451
06/26/2014  10:39:00     -419.984      -79.243       -6.030      268.577      193.779       99.468    72133.410    37550.415     9893.972       15.112        5.979      427.394      111.597        0.068      342.512       17.970      857.413
06/26/2014  10:40:00     -325.409        1.928        8.517      223.438      140.295       93.702    49924.747    19682.607     8779.999        9.216        3.919      325.414      111.115        0.117      342.735       18.350      857.442
06/26/2014  10:41:00     -478.137      -94.559      -24.232      180.301      160.112       96.685    32508.462    25635.871     9348.069       15.281        3.375      487.397       97.461        0.040      342.675       18.248      857.438
06/26/2014  10:42:00     -246.085       -9.765       12.325      254.310      141.307       95.521    64673.390    19967.753     9124.209        7.727        4.688      246.279      119.324        0.235      342.824       18.504      857.482
06/26/2014  10:43:00     -536.722     -157.464      -27.137      202.093      251.223       94.621    40841.638    63113.097     8953.194       21.324        5.645      559.344       98.779        0.031      342.479       17.914      857.516
06/26/2014  10:44:00     -452.542     -116.273      -39.701      236.908      144.374       83.019    56125.236    20843.764     6892.076       15.186        4.193      467.240       94.036        0.041      342.583       18.090      857.500
06/26/2014  10:45:00     -280.465      -77.582        1.159      168.127      112.607       71.841    28266.668    12680.342     5161.112        6.539        2.305      290.998       84.026        0.083      342.699       18.288      857.542
06/26/2014  10:46:00     -498.303     -164.216      -12.948      302.647      241.779      114.952    91595.231    58457.180    13213.940       21.933        8.163      524.664      143.146        0.074      342.414       17.804      857.550
06/26/2014  10:47:00     -388.940     -199.171      -20.068      255.373      159.696       95.260    65215.346    25502.960     9074.377       14.555        4.990      436.970      112.573        0.066      342.403       17.784      857.539
06/26/2014  10:48:00     -375.641     -148.476      -10.753      239.968      225.169       89.015    57584.448    50701.015     7923.734       13.972        5.810      403.920       99.971        0.061      342.556       18.045      857.529
06/26/2014  10:49:00     -376.370     -270.028      -27.004      220.162      225.949      105.705    48471.378    51052.914    11173.494       16.298        5.535      463.217      112.306        0.059      342.482       17.920      857.558
06/26/2014  10:50:00     -320.233      -60.490        3.493      195.682      139.122       78.909    38291.340    19355.020     6226.655        8.504        3.194      325.896       86.208        0.070      342.491       17.934      857.535
06/26/2014  10:51:00     -457.481     -133.821      -21.930      310.169      165.148      102.041    96204.777    27274.011    10412.419       18.076        6.695      476.651      121.712        0.065      342.671       18.242      857.484
06/26/2014  10:52:00     -422.603     -108.238      -10.017      243.140      171.135       89.029    59117.196    29287.292     7926.205       14.335        4.817      436.244       92.840        0.045      342.829       18.509      857.502
06/26/2014  10:53:00     -313.345     -106.014       -4.057      214.875      144.368      101.969    46171.462    20842.060    10397.752        9.341        3.871      330.793      117.313        0.126      342.852       18.550      857.515
06/26/2014  10:54:00     -184.618     -167.854       38.525      227.660      173.648       94.706    51829.159    30153.501     8969.272        7.733        4.548      249.517      122.716        0.242      342.982       18.770      857.516
06/26/2014  10:55:00     -513.060     -147.210      -34.880      220.773      158.885       95.639    48740.870    25244.516     9146.884       18.461        4.157      533.761       97.645        0.033      342.695       18.283      857.514
06/26/2014  10:56:00     -476.438      -22.046      -18.034      249.641      194.691      102.910    62320.529    37904.600    10590.366       16.929        5.541      476.948      116.860        0.060      342.860       18.561      857.485
06/26/2014  10:57:00     -370.476      -71.024       16.530      254.226      214.594      122.461    64630.742    46050.677    14996.719       13.410        6.284      377.223      140.874        0.139      342.909       18.646      857.444
06/26/2014  10:58:00     -517.179     -264.349      -24.644      300.594      226.920      116.129    90357.032    51492.647    13486.007       24.662        7.767      580.822      137.020        0.056      342.638       18.185      857.468
06/26/2014  10:59:00     -406.764     -260.081        7.026      307.411      220.704      117.311    94501.361    48710.142    13761.798       19.503        7.849      482.803      144.466        0.090      342.619       18.154      857.479
06/26/2014  11:00:00     -324.407     -230.291        7.259      274.200      182.916      100.002    75185.723    33458.088    10000.324       13.847        5.932      397.837      120.577        0.092      342.733       18.347      857.432
06/26/2014  11:01:00     -573.012      -94.883       -3.622      326.232      163.240      109.397   106427.485    26647.171    11967.667       24.118        7.252      580.815      148.573        0.065      342.713       18.311      857.444
06/26/2014  11:02:00     -455.670     -153.581       -6.568      234.239      210.121      109.835    54867.724    44150.898    12063.633       17.116        5.554      480.856      120.094        0.062      342.979       18.765      857.409
06/26/2014  11:03:00     -266.272      -80.193       30.842      221.478      159.155      103.925    49052.293    25330.361    10800.311        8.172        4.259      278.085      104.862        0.142      343.181       19.110      857.421
06/26/2014  11:04:00     -340.342     -277.005       -3.342      262.144      221.645      120.261    68719.318    49126.396    14462.594       16.242        6.615      438.822      135.984        0.096      342.916       18.658      857.402
06/26/2014  11:05:00     -493.508     -258.426       20.431      370.544      223.038      148.056   137302.805    49746.042    21920.679       25.983       10.448      557.077      196.379        0.124      343.005       18.809      857.359
06/26/2014  11:06:00     -447.492     -195.173      -32.193      284.586      211.596      116.958    80989.113    44773.043    13679.167       18.939        6.972      488.202      138.098        0.080      343.002       18.804      857.369
06/26/2014  11:07:00     -241.439      -77.702       29.761      233.683      169.450      105.464    54607.902    28713.237    11122.670        7.981        4.722      253.635      132.662        0.274      343.265       19.253      857.366
06/26/2014  11:08:00     -580.670     -321.548       -1.274      301.894      231.469      125.895    91140.104    53577.919    15849.483       30.054        8.028      663.755      155.435        0.055      342.788       18.441      857.316
06/26/2014  11:09:00     -461.705     -208.631        7.484      347.306      253.058      173.231   120621.579    64038.108    30008.849       23.568       10.733      506.654      164.902        0.106      342.802       18.463      857.189
06/26/2014  11:10:00     -612.498     -230.996       -8.321      294.830      268.101      122.079    86924.921    71878.202    14903.298       30.112        8.685      654.609      140.096        0.046      342.864       18.569      857.236
06/26/2014  11:11:00     -676.050     -184.478        2.105      427.393      239.174      149.806   182664.667    57204.062    22441.804       37.665       13.116      700.768      179.881        0.066      342.865       18.572      857.299
06/26/2014  11:12:00     -598.558     -188.644      -27.844      290.192      220.496      119.701    84211.365    48618.534    14328.395       27.087        7.358      627.581      133.103        0.045      342.760       18.393      857.322
06/26/2014  11:13:00     -543.916     -245.188      -11.213      323.996      271.886      133.263   104973.710    73921.902    17759.020       27.634        9.833      596.625      156.200        0.069      342.792       18.447      857.288
06/26/2014  11:14:00     -460.428     -210.865      -14.076      255.312      236.602      101.446    65184.225    55980.574    10291.314       19.403        6.573      506.417       99.143        0.038      342.921       18.665      857.331
06/26/2014  11:15:00     -646.028     -101.825      -12.161      325.855      206.373      120.336   106181.697    42589.610    14480.850       29.553        8.163      654.004      148.390        0.051      343.074       18.926      857.263
06/26/2014  11:16:00     -575.571     -235.969       -1.301      289.578      260.661      132.742    83855.287    67943.989    17620.552       27.816        8.471      622.064      145.287        0.055      343.103       18.975      857.290
06/26/2014  11:17:00     -484.750     -185.756      -39.047      288.562      278.065      137.563    83268.180    77320.106    18923.510       22.523        8.976      519.122      136.429        0.069      343.106       18.982      857.328
06/26/2014  11:18:00     -437.477     -144.664       -2.443      279.130      212.786      113.678    77913.585    45277.880    12922.795       17.419        6.806      460.775      143.545        0.097      343.173       19.097      857.354
06/26/2014  11:19:00     -502.180     -126.521      -20.131      359.627      238.574      113.441   129331.704    56917.624    12868.918       23.382        9.956      517.873      142.495        0.076      343.155       19.063      857.341
06/26/2014  11:20:00     -613.068      -87.038      -17.826      303.138      249.249      118.165    91892.659    62124.889    13963.052       27.584        8.399      619.216      140.621        0.052      343.244       19.215      857.325
06/26/2014  11:21:00     -445.738     -102.145       -1.564      312.504      245.360      115.311    97658.641    60201.630    13296.727       19.011        8.558      457.292      146.839        0.103      343.256       19.238      857.376
06/26/2014  11:22:00     -221.020      -87.067       33.137      191.397      185.286      106.317    36632.949    34330.903    11303.202        6.988        4.113      237.551       98.959        0.174      343.604       19.831      857.350
06/26/2014  11:23:00     -434.459     -208.743       -6.567      299.424      207.668      133.844    89654.584    43126.135    17914.349       19.151        7.535      482.005      153.629        0.102      343.304       19.318      857.359
06/26/2014  11:24:00     -533.482     -117.979      -11.741      348.799      221.069      135.057   121660.707    48871.555    18240.360       24.368        9.439      546.372      160.522        0.086      343.251       19.228      857.392
06/26/2014  11:25:00     -396.040     -135.082        2.971      242.774      223.574       94.464    58938.973    49985.432     8923.491       14.646        5.892      418.444      119.366        0.081      343.418       19.514      857.385
06/26/2014  11:26:00     -272.942     -152.323       12.535      267.258      181.705      119.296    71426.988    33016.615    14231.630       10.825        5.934      312.569      149.992        0.230      343.493       19.641      857.367
06/26/2014  11:27:00     -699.140      -61.012      -43.069      315.144      203.684      126.341    99316.048    41486.984    15962.112       32.554        7.838      701.797      148.246        0.045      343.224       19.182      857.377
06/26/2014  11:28:00     -472.773     -159.145      -17.760      277.781      208.480      122.282    77162.120    43463.818    14952.932       19.235        6.779      498.840      129.732        0.068      343.334       19.370      857.385
06/26/2014  11:29:00     -275.552     -159.835       24.245      227.128      161.007       89.352    51587.025    25923.201     7983.718        9.376        4.275      318.553       96.421        0.092      343.555       19.746      857.417
06/26/2014  11:30:00     -297.032     -220.151       18.373      262.703      185.436      126.483    69013.120    34386.606    15997.876       12.819        5.970      369.722      142.175        0.148      343.559       19.752      857.453
06/26/2014  11:31:00     -414.176     -221.422      -17.293      235.140      168.583      108.573    55291.040    28420.140    11788.177       15.817        4.775      469.648      101.574        0.047      343.381       19.448      857.396
06/26/2014  11:32:00     -412.338     -281.794       12.502      295.203      245.701      123.400    87144.761    60368.850    15227.472       20.614        8.137      499.430      154.360        0.096      343.255       19.234      857.433
06/26/2014  11:33:00     -732.296      -69.695      -37.715      337.165      238.266      130.752   113679.989    56770.751    17096.122       36.501        9.377      735.605      148.186        0.041      343.166       19.082      857.432
06/26/2014  11:34:00     -475.209     -111.925       -0.741      209.259      221.564       97.420    43789.407    49090.541     9490.666       17.034        5.119      488.211       98.355        0.041      343.190       19.123      857.471
06/26/2014  11:35:00     -348.453      -31.424        3.416      216.556      152.196       94.725    46896.327    23163.728     8972.825       10.071        3.952      349.867      106.633        0.093      343.535       19.712      857.503
06/26/2014  11:36:00     -524.431     -234.157        0.907      265.532      260.566      120.700    70507.059    67894.546    14568.395       24.139        7.649      574.332      121.383        0.045      343.304       19.317      857.527
06/26/2014  11:37:00     -520.113     -382.213       -6.436      305.770      205.350      157.473    93495.031    42168.660    24797.888       28.853        8.023      645.448      176.245        0.075      342.965       18.741      857.483
06/26/2014  11:38:00     -292.326     -132.043        5.091      194.605      147.442      100.687    37871.204    21739.180    10137.897        8.632        3.487      320.765      106.399        0.110      343.388       19.461      857.497
06/26/2014  11:39:00     -344.135      -80.669       -4.179      268.754      203.540      105.615    72228.855    41428.371    11154.617       12.486        6.241      353.463      113.401        0.103      343.621       19.859      857.552
06/26/2014  11:40:00     -509.729      -52.914        5.744      345.226      194.769      119.408   119181.307    37935.150    14258.344       21.699        8.569      512.468      161.154        0.099      343.328       19.359      857.606
06/26/2014  11:41:00     -273.060      -65.486       13.663      269.232      206.612      116.513    72485.898    42688.713    13575.386       10.387        6.437      280.803      126.528        0.203      343.426       19.526      857.572
06/26/2014  11:42:00     -390.594     -152.352       -6.355      374.919      241.085      149.052   140564.497    58122.034    22216.412       19.832       11.045      419.255      187.351        0.200      343.455       19.576      857.601
06/26/2014  11:43:00     -568.810     -230.729      -23.451      283.419      314.855      131.896    80326.214    99133.451    17396.425       28.706        9.843      613.824      146.172        0.057      343.155       19.064      857.588
06/26/2014  11:44:00     -641.571     -225.766      -12.645      262.550      298.216      116.202    68932.604    88932.712    13503.018       31.703        8.568      680.135      132.123        0.038      343.247       19.221      857.647
06/26/2014  11:45:00     -475.244      -79.523      -26.385      335.818      264.303      128.133   112774.056    69856.176    16418.133       21.593        9.952      481.852      151.704        0.099      343.396       19.475      857.688
06/26/2014  11:46:00     -463.814     -127.689      -15.521      278.467      212.249      117.392    77544.119    45049.583    13780.908       18.400        6.819      481.070      137.724        0.082      343.454       19.573      857.748
06/26/2014  11:47:00     -438.693     -322.074      -26.705      233.253      191.953      120.144    54407.131    36845.978    14434.472       20.127        5.284      544.227      131.713        0.059      343.277       19.271      857.722
06/26/2014  11:48:00     -360.870     -183.160       -7.168      268.028      210.191      103.123    71839.166    44180.092    10634.373       14.522        6.333      404.690      125.955        0.097      343.524       19.693      857.722
06/26/2014  11:49:00     -480.557     -105.432      -11.109      297.026      176.565       95.113    88224.240    31175.206     9046.404       18.529        6.422      491.986      107.299        0.048      343.620       19.856      857.725
06/26/2014  11:50:00     -503.059     -171.126      -17.264      297.736      224.006      114.847    88646.919    50178.896    13189.811       21.731        7.601      531.368      123.047        0.054      343.386       19.457      857.703
06/26/2014  11:51:00     -447.781     -158.477        4.920      284.787      257.070      103.988    81103.493    66084.953    10813.573       19.180        7.900      474.998      118.921        0.063      343.412       19.502      857.653
06/26/2014  11:52:00     -798.512     -195.946      -39.785      289.609      227.248      123.239    83873.505    51641.772    15187.750       41.413        7.535      822.202      116.646        0.020      343.071       18.921      857.603
06/26/2014  11:53:00     -586.668     -267.506      -25.493      333.846      238.417      130.606   111453.187    56842.896    17058.048       30.084        9.268      644.778      155.184        0.058      343.316       19.338      857.591
06/26/2014  11:54:00     -379.330     -212.694       -5.015      287.549      220.331      104.414    82684.646    48545.739    10902.199       16.562        7.107      434.891      106.966        0.060      343.387       19.459      857.608
06/26/2014  11:55:00     -646.650     -196.492      -40.029      344.301      227.436      113.332   118542.912    51727.119    12844.079       32.071        9.156      675.844      136.314        0.041      343.230       19.192      857.615
06/26/2014  11:56:00     -320.656     -232.129       -7.134      273.040      182.909      108.217    74550.614    33455.577    11710.934       13.822        5.986      395.858      117.246        0.088      343.431       19.534      857.621
06/26/2014  11:57:00     -677.734     -133.462      -38.684      364.403      216.575      133.529   132789.832    46904.781    17830.063       33.805        9.876      690.750      167.313        0.059      343.344       19.386      857.585
06/26/2014  11:58:00     -411.886      -55.505       -2.565      268.965      229.558      115.467    72342.252    52696.662    13332.676       15.553        6.919      415.609      134.658        0.105      343.711       20.012      857.607
06/26/2014  11:59:00     -364.059      -96.531      -19.822      293.101      197.385      115.178    85908.406    38960.730    13265.905       14.017        6.907      376.639      138.106        0.134      343.530       19.702      857.605
06/26/2014  12:00:00     -553.320     -122.049      -30.817      368.947      195.938      104.275   136122.119    38391.883    10873.291       25.367        9.269      566.621      135.218        0.057      343.482       19.622      857.603
06/26/2014  12:01:00     -623.804     -143.706      -22.291      333.180      210.864      132.473   111008.801    44463.767    17549.110       29.162        8.651      640.142      151.079        0.056      343.344       19.387      857.611
06/26/2014  12:02:00     -701.142      -89.147      -20.931      346.243      268.376      133.937   119884.287    72025.535    17939.002       35.488       10.492      706.787      176.367        0.062      343.394       19.472      857.575
06/26/2014  12:03:00     -591.955      -53.169      -36.112      238.405      239.590       99.252    56836.824    57403.364     9851.004       23.930        6.205      594.338       93.890        0.025      343.394       19.471      857.584
06/26/2014  12:04:00     -412.277     -101.180       -5.165      279.652      206.188      107.617    78205.468    42513.298    11581.374       15.625        6.615      424.511      114.866        0.073      343.612       19.843      857.561
06/26/2014  12:05:00     -539.648      -18.793      -32.522      260.918      208.578       98.196    68078.457    43504.775     9642.437       20.691        6.061      539.975      115.750        0.046      343.438       19.545      857.572
06/26/2014  12:06:00     -417.673      -86.892      -12.283      254.122      169.548      103.991    64578.151    28746.432    10814.036       14.313        5.207      426.616      123.494        0.084      343.576       19.781      857.590
06/26/2014  12:07:00     -323.577     -148.434        7.935      214.022      158.705       83.442    45805.336    25187.429     6962.645       10.236        3.898      355.999      106.668        0.090      343.781       20.131      857.617
06/26/2014  12:08:00     -373.799     -118.352       -8.280      226.228      273.153      118.247    51179.317    74612.594    13982.386       14.676        6.989      392.088      137.577        0.123      343.754       20.086      857.638
06/26/2014  12:09:00     -379.499     -277.553       13.835      292.893      230.532      129.336    85786.021    53145.136    16727.781       18.843        7.783      470.165      162.282        0.119      343.551       19.739      857.616
06/26/2014  12:10:00     -495.963     -143.825      -18.832      162.170      162.593       83.305    26299.262    26436.471     6939.759       16.334        2.984      516.396       81.616        0.025      343.741       20.062      857.626
06/26/2014  12:11:00     -649.545       -5.641      -37.479      249.232      189.483      100.822    62116.540    35903.822    10165.019       26.575        5.409      649.570      114.536        0.031      343.640       19.891      857.628
06/26/2014  12:12:00     -506.255     -224.357      -14.949      305.657      280.419      108.399    93426.398    78634.736    11750.304       24.530        9.191      553.742      118.808        0.046      343.707       20.004      857.603
06/26/2014  12:13:00     -563.308      -91.490      -46.518      295.327      242.387      123.338    87217.790    58751.595    15212.178       24.449        8.059      570.689      152.862        0.072      343.483       19.623      857.644
06/26/2014  12:14:00     -409.509     -179.388       -8.219      240.925      180.879      102.694    58044.678    32717.329    10545.978       15.061        5.065      447.077      119.630        0.072      343.551       19.739      857.619
06/26/2014  12:15:00     -206.696     -105.348        4.583      144.274      127.840       59.369    20814.861    16343.179     3524.639        4.726        2.034      231.995       63.429        0.075      343.851       20.252      857.645
06/26/2014  12:16:00     -341.823     -238.087      -11.836      205.977      200.340      100.294    42426.648    40136.110    10058.794       13.313        4.631      416.568      118.718        0.081      343.773       20.118      857.639
06/26/2014  12:17:00     -503.988     -134.825        5.517      280.928      190.373      129.440    78920.490    36241.720    16754.604       20.204        6.596      521.710      118.956        0.052      343.520       19.687      857.593
06/26/2014  12:18:00     -500.059     -130.484       -3.501      282.984      209.691      133.739    80079.676    43970.349    17886.077       20.449        7.097      516.802      143.047        0.077      343.557       19.750      857.644
06/26/2014  12:19:00     -447.648     -341.024      -23.513      230.137      170.696      108.714    52962.834    29136.974    11818.834       20.556        4.696      562.749      108.588        0.037      343.581       19.790      857.619
06/26/2014  12:20:00     -416.472     -284.163      -13.243      231.413      186.233      105.076    53551.965    34682.859    11041.015       17.681        4.964      504.180      114.463        0.052      343.544       19.726      857.664
06/26/2014  12:21:00     -398.442     -128.081        0.917      247.417      155.987      110.602    61214.943    24332.090    12232.757       13.645        4.889      418.522      133.587        0.102      343.702       19.997      857.627
06/26/2014  12:22:00     -367.989     -127.534       -6.078      224.435      222.509       98.242    50371.013    49510.463     9651.498       13.061        5.477      389.462      114.493        0.086      343.788       20.143      857.630
06/26/2014  12:23:00     -436.068     -342.519      -18.588      199.702      190.084      102.448    39880.694    36132.023    10495.603       19.715        4.325      554.504       97.586        0.031      343.609       19.837      857.582
06/26/2014  12:24:00     -463.421     -197.503      -14.760      272.066      123.257       72.363    74019.661    15192.237     5236.388       17.420        4.722      503.752       69.441        0.019      343.764       20.103      857.587
06/26/2014  12:25:00     -469.948     -124.343      -16.924      274.115      186.639      101.902    75139.235    34834.061    10384.119       17.846        6.018      486.119      114.810        0.056      343.802       20.166      857.605
06/26/2014  12:26:00     -429.461     -194.293        2.510      259.852      213.235      104.954    67522.851    45469.186    11015.396       17.308        6.200      471.367      127.340        0.073      343.652       19.911      857.605
06/26/2014  12:27:00     -551.478     -204.179      -22.512      216.148      198.350       97.927    46719.856    39342.720     9589.676       22.097        4.783      588.062       91.879        0.024      343.576       19.781      857.590
06/26/2014  12:28:00     -558.546      -82.611        1.655      238.650      159.358      105.923    56953.979    25395.031    11219.764       20.617        4.678      564.622      120.545        0.046      343.800       20.164      857.577
06/26/2014  12:29:00     -367.669      -90.972        3.637      196.357      172.974       82.848    38555.895    29919.925     6863.833       10.939        3.767      378.756       87.812        0.054      343.979       20.469      857.598
06/26/2014  12:30:00     -328.581     -105.752      -13.838      160.879      190.582       84.887    25882.144    36321.560     7205.842        9.436        3.470      345.180       72.123        0.044      343.934       20.391      857.597
06/26/2014  12:31:00     -243.956       -0.948       24.629      225.073      115.068       92.548    50657.742    13240.530     8565.069        6.628        3.623      243.958      115.076        0.223      344.267       20.963      857.609
06/26/2014  12:32:00     -315.546     -106.800       22.593      264.518      217.587      111.200    69969.642    47344.165    12365.451       12.056        6.484      333.130      133.159        0.160      343.956       20.431      857.661
06/26/2014  12:33:00     -173.133     -113.813       21.706      169.669      156.473       91.257    28787.588    24483.768     8327.915        5.249        3.080      207.192      104.278        0.253      344.117       20.706      857.642
06/26/2014  12:34:00     -262.107      -30.923       -9.145      172.302      148.413       73.145    29687.840    22026.468     5350.147        6.339        2.853      263.925       76.997        0.085      344.002       20.509      857.645
06/26/2014  12:35:00     -282.511     -169.119       -4.065      199.887      147.304       77.515    39954.649    21698.570     6008.572        8.803        3.383      329.262       84.472        0.066      344.158       20.778      857.656
06/26/2014  12:36:00     -300.129     -298.342        3.976      245.879      157.823      119.238    60456.278    24908.212    14217.691       13.933        4.979      423.185      126.998        0.090      343.911       20.354      857.639
06/26/2014  12:37:00     -448.185     -164.530       -6.988      273.094      189.299      116.115    74580.334    35834.122    13482.657       17.592        6.195      477.431      140.923        0.087      343.769       20.111      857.642
06/26/2014  12:38:00     -314.167     -269.388       13.313      263.919      176.351      110.770    69653.283    31099.761    12270.017       14.222        5.651      413.849      114.287        0.076      343.778       20.126      857.599
06/26/2014  12:39:00     -519.227     -146.495      -31.675      275.610      221.948      120.419    75960.764    49260.804    14500.720       21.587        6.986      539.497      133.083        0.061      343.644       19.898      857.605
06/26/2014  12:40:00     -365.228     -198.984       -8.126      276.958      241.234      101.283    76705.970    58193.778    10258.172       15.908        7.258      415.916      107.439        0.067      343.791       20.149      857.640
06/26/2014  12:41:00     -436.071     -184.283       -1.549      308.334      200.266      104.791    95069.739    40106.510    10981.236       18.511        7.308      473.411      129.055        0.074      343.637       19.885      857.613
06/26/2014  12:42:00     -445.528     -196.735       -9.344      236.033      183.343       91.519    55711.566    33614.790     8375.690       16.748        4.885      487.032      107.371        0.049      343.596       19.815      857.581
06/26/2014  12:43:00     -410.592     -251.553      -10.786      215.473      182.147      106.900    46428.776    33177.610    11427.571       16.149        4.552      481.524      106.560        0.049      343.773       20.118      857.562
06/26/2014  12:44:00     -236.047      -78.205       23.903      239.552      138.032       94.308    57385.067    19052.845     8893.970        7.385        4.267      248.665      112.484        0.205      344.149       20.759      857.594
06/26/2014  12:45:00     -641.528     -134.257      -32.190      322.583      226.949      107.353   104059.916    51505.861    11524.669       29.883        8.355      655.426      126.875        0.037      343.694       19.982      857.592
06/26/2014  12:46:00     -444.682     -218.507      -25.254      292.380      268.047      101.967    85486.143    71849.386    10397.225       20.690        8.387      495.467      106.578        0.046      343.665       19.934      857.590
06/26/2014  12:47:00     -301.570     -236.264       -2.590      226.637      160.542       88.994    51364.525    25773.741     7919.927       11.590        4.253      383.100       96.941        0.064      343.898       20.331      857.576
06/26/2014  12:48:00     -396.461     -150.104      -19.285      195.790      147.603       76.996    38333.832    21786.613     5928.363       12.306        3.302      423.925       61.497        0.021      343.620       19.857      857.582
06/26/2014  12:49:00     -317.024     -135.196        0.455      161.838      127.415       77.792    26191.449    16234.462     6051.551        8.362        2.424      344.648       81.689        0.056      344.117       20.705      857.559
06/26/2014  12:50:00     -437.577     -234.551       13.845      251.938      174.608       93.776    63472.746    30487.886     8793.999       17.470        5.138      496.476      113.514        0.052      343.957       20.432      857.607
06/26/2014  12:51:00     -462.586     -169.933       -4.890      239.710      215.635       99.938    57460.799    46498.526     9987.684       17.840        5.697      492.812      104.590        0.045      343.772       20.115      857.549
06/26/2014  12:52:00     -461.513     -271.494        4.132      265.802      195.004      117.510    70650.847    38026.510    13808.501       20.458        6.124      535.447      132.869        0.062      343.802       20.166      857.571
06/26/2014  12:53:00     -510.202     -291.886       -7.478      261.954      209.882      115.194    68619.868    44050.386    13269.767       23.573        6.297      587.796      141.020        0.058      343.759       20.093      857.574
06/26/2014  12:54:00     -251.946     -126.555       25.547      237.487      129.922       85.721    56399.839    16879.638     7348.009        8.037        4.031      281.945       92.645        0.108      344.057       20.605      857.591
06/26/2014  12:55:00     -468.061     -298.913        7.039      298.231      196.951      110.063    88941.525    38789.876    12113.886       22.414        6.992      555.365      143.628        0.067      343.695       19.984      857.578
06/26/2014  12:56:00     -429.480     -313.695       10.126      213.496      198.246       91.932    45580.563    39301.577     8451.457       18.813        4.667      531.843       95.764        0.032      343.655       19.917      857.542
06/26/2014  12:57:00     -424.699     -272.009      -34.187      199.214      196.970      106.633    39686.364    38797.237    11370.491       17.268        4.493      504.340      113.118        0.050      343.794       20.153      857.548
06/26/2014  12:58:00     -477.596      -75.909      -24.534      241.196      179.125       85.335    58175.529    32085.661     7282.034       16.599        4.877      483.591       98.362        0.041      343.899       20.333      857.565
06/26/2014  12:59:00     -609.818     -241.754      -27.568      244.240      165.114       97.498    59653.401    27262.746     9505.913       26.374        4.821      655.990       91.588        0.019      343.661       19.926      857.552
06/26/2014  13:00:00     -529.575      -86.617      -18.880      227.684      199.256      102.119    51839.941    39703.060    10428.306       19.512        5.099      536.611      113.705        0.045      343.906       20.345      857.581
06/26/2014  13:01:00     -458.400     -114.417        6.364      256.833      190.716      126.534    65963.197    36372.732    16010.851       17.078        5.917      472.464      144.287        0.093      344.168       20.793      857.528
06/26/2014  13:02:00     -326.780     -146.436       10.679      227.059      140.760       79.538    51555.829    19813.409     6326.336       10.301        3.885      358.090       95.224        0.071      344.430       21.240      857.599
06/26/2014  13:03:00     -453.326     -255.608        5.038      246.048      251.506       95.467    60539.532    63255.463     9113.977       20.186        6.645      520.423      121.963        0.055      344.183       20.818      857.617
06/26/2014  13:04:00     -544.859     -290.692      -11.445      276.864      221.323      118.524    76653.934    48983.729    14048.032       26.057        6.984      617.555      128.077        0.043      343.809       20.180      857.586
06/26/2014  13:05:00     -505.397     -366.219      -20.361      267.959      220.690      111.073    71801.781    48704.176    12337.163       26.138        6.642      624.133      113.569        0.033      344.037       20.568      857.568
06/26/2014  13:06:00     -511.581     -155.813       -5.231      329.589      303.722      156.323   108629.201    92247.218    24436.946       25.563       11.266      534.783      177.438        0.110      344.023       20.544      857.603
06/26/2014  13:07:00     -530.348     -163.972      -10.595      320.982      180.014      118.255   103029.743    32405.151    13984.136       22.882        7.471      555.118      134.286        0.059      343.960       20.438      857.636
06/26/2014  13:08:00     -277.099     -178.245       29.153      256.834      203.042      110.268    65963.633    41226.121    12158.923       11.436        5.967      329.477      142.582        0.187      344.004       20.511      857.678
06/26/2014  13:09:00     -413.368     -284.116        0.071      227.893      172.311       95.749    51935.421    29690.940     9167.923       17.118        4.540      501.593      117.782        0.055      343.906       20.345      857.647
06/26/2014  13:10:00     -395.475     -143.497      -24.934      192.972      189.515       79.084    37238.293    35915.798     6254.348       12.850        3.970      420.704       68.928        0.027      343.728       20.041      857.657
06/26/2014  13:11:00     -225.530       33.310        4.701      162.712      164.673       90.551    26475.308    27117.078     8199.502        5.688        3.090      227.977       95.008        0.174      344.328       21.067      857.630
06/26/2014  13:12:00     -466.981     -179.459       -4.527      238.615      204.497      102.404    56936.949    41819.056    10486.543       17.975        5.462      500.277      116.888        0.055      344.097       20.673      857.652
06/26/2014  13:13:00     -547.475     -193.278      -26.252      213.778      248.305       95.959    45701.028    61655.563     9208.048       22.715        5.828      580.591       92.667        0.025      343.915       20.360      857.667
06/26/2014  13:14:00     -494.534     -151.572       -2.653      277.128      209.645      101.332    76799.834    43950.906    10268.154       19.926        6.551      517.241      108.873        0.044      343.909       20.351      857.669
06/26/2014  13:15:00     -389.921     -217.809      -11.386      268.422      188.885      108.648    72050.195    35677.469    11804.449       15.955        5.977      446.631      127.249        0.081      343.885       20.309      857.701
06/26/2014  13:16:00     -443.171     -133.749      -17.638      207.000      174.684       84.330    42849.093    30514.470     7111.490       14.752        4.024      462.914       92.137        0.040      343.824       20.204      857.692
06/26/2014  13:17:00     -255.813     -199.175        9.924      214.742      223.825      107.495    46114.216    50097.589    11555.126       10.647        5.388      324.208      127.669        0.155      344.158       20.777      857.632
06/26/2014  13:18:00     -305.176     -138.581       -6.024      184.802      158.138      109.243    34151.603    25007.658    11934.087        9.172        3.555      335.167       86.957        0.067      344.259       20.949      857.595
06/26/2014  13:19:00     -398.189     -242.509       -3.379      291.497      219.629       83.599    84970.352    48236.921     6988.749       17.876        7.010      466.224      108.992        0.055      344.037       20.570      857.626
06/26/2014  13:20:00     -534.229     -232.689        6.974      305.203      196.886      123.091    93149.066    38764.109    15151.306       24.330        7.353      582.704      151.083        0.067      343.722       20.032      857.591
06/26/2014  13:21:00     -358.928       -3.085        1.128      222.737      158.933       88.335    49611.572    25259.815     7803.160       10.574        4.134      358.942       91.055        0.064      344.136       20.738      857.594
06/26/2014  13:22:00     -377.369     -204.908        0.172      227.191      213.944       96.124    51615.681    45771.965     9239.809       14.549        5.331      429.412      123.975        0.083      344.362       21.123      857.580
06/26/2014  13:23:00     -722.038     -161.882      -34.807      258.482      160.317       86.290    66812.732    25701.421     7445.940       32.434        4.998      739.963      102.085        0.019      343.913       20.357      857.626
06/26/2014  13:24:00     -410.640      -79.860      -11.252      194.063      136.124       78.729    37660.636    18529.816     6198.332       11.875        3.119      418.333       88.854        0.045      344.004       20.511      857.636
06/26/2014  13:25:00     -496.127     -289.838        3.340      205.710      196.895       96.766    42316.411    38767.487     9363.750       21.029        4.522      574.585       84.620        0.022      343.849       20.247      857.689
06/26/2014  13:26:00     -220.168     -183.465       -4.913      169.411      125.046       69.391    28700.212    15636.441     4815.065        6.565        2.458      286.590       53.725        0.035      343.797       20.160      857.631
06/26/2014  13:27:00     -362.209     -200.858       -6.631      198.757      147.069       71.611    39504.300    21629.184     5128.153       11.891        3.313      414.173       77.838        0.035      343.866       20.276      857.596
06/26/2014  13:28:00     -476.067     -218.114      -23.345      204.975      167.166       90.390    42014.620    27944.438     8170.297       17.643        3.906      523.655       99.936        0.036      344.008       20.518      857.601
06/26/2014  13:29:00     -253.214     -199.843       13.973      160.018      141.671       79.916    25605.898    20070.558     6386.496        7.815        2.603      322.574       89.038        0.076      344.289       20.999      857.650
06/26/2014  13:30:00     -408.873     -135.683       -7.893      272.825      194.341       84.821    74433.549    37768.325     7194.639       15.250        5.970      430.798       84.313        0.038      344.023       20.546      857.622
06/26/2014  13:31:00     -385.918       21.922      -27.939      165.406      128.451       76.341    27359.103    16499.742     5827.962        9.993        2.484      386.540       65.089        0.028      343.965       20.446      857.578
06/26/2014  13:32:00     -310.047     -213.372        2.657      284.987      186.425       97.384    81217.757    34754.103     9483.595       13.354        6.273      376.373      108.908        0.084      344.312       21.039      857.596
06/26/2014  13:33:00     -459.982     -285.361      -10.618      281.008      223.068      115.091    78965.507    49759.323    13246.046       21.753        7.099      541.308      131.636        0.059      344.038       20.569      857.553
06/26/2014  13:34:00     -405.361     -248.832       -4.946      250.677      213.939      113.302    62838.905    45769.688    12837.236       17.383        6.072      475.642      136.328        0.082      343.995       20.496      857.611
06/26/2014  13:35:00     -432.482     -284.866      -13.230      195.641      176.597       87.273    38275.396    31186.389     7616.614       17.271        3.854      517.870       99.076        0.037      343.946       20.413      857.600
06/26/2014  13:36:00     -425.643     -312.070      -18.145      246.733      172.455      100.603    60876.936    29740.795    10121.026       18.980        5.037      527.787      105.492        0.040      343.728       20.041      857.576
06/26/2014  13:37:00     -248.212     -205.885       12.375      192.238      162.973       74.949    36955.607    26560.340     5617.411        8.663        3.457      322.487       75.796        0.055      344.066       20.619      857.543
06/26/2014  13:38:00     -255.687     -129.520       12.791      186.093      122.598       78.948    34630.782    15030.272     6232.793        6.910        2.795      286.620       82.126        0.082      344.552       21.448      857.592
06/26/2014  13:39:00     -428.244     -285.373      -24.553      244.482      199.220      109.454    59771.382    39688.753    11980.158       18.842        5.572      514.617      128.515        0.062      343.970       20.454      857.594
06/26/2014  13:40:00     -425.906     -272.813      -24.613      232.967      216.035      104.373    54273.748    46670.981    10893.795       18.411        5.592      505.789      121.384        0.058      344.002       20.509      857.543
06/26/2014  13:41:00     -525.294     -136.465      -29.577      235.975      177.092       88.335    55684.234    31361.693     7803.063       19.512        4.742      542.731       77.141        0.020      344.123       20.714      857.537
06/26/2014  13:42:00     -415.215     -171.363       -0.131      253.621      188.205       90.127    64323.694    35421.024     8122.862       15.480        5.393      449.187      100.634        0.050      344.412       21.209      857.554
06/26/2014  13:43:00     -335.824     -219.240       12.206      184.347      185.383       87.412    33983.921    34366.803     7640.782       11.848        3.800      401.054       91.903        0.053      344.154       20.767      857.541
06/26/2014  13:44:00     -434.939     -255.432        4.130      265.842      185.475       98.254    70672.139    34401.055     9653.766       18.456        5.736      504.398      114.605        0.052      344.128       20.725      857.522
06/26/2014  13:45:00     -341.381     -164.182       -1.980      235.808      168.161       85.652    55605.597    28278.023     7336.260       11.734        4.561      378.809       95.847        0.064      344.194       20.838      857.505
06/26/2014  13:46:00     -447.970     -222.203      -15.816      265.529      231.685      102.541    70505.624    53678.027    10514.731       19.248        6.735      500.051      126.014        0.064      344.164       20.787      857.489
06/26/2014  13:47:00     -612.315     -244.788      -26.239      310.615      220.157      117.983    96481.611    48468.929    13919.948       29.718        7.944      659.432      140.162        0.045      344.017       20.533      857.454
06/26/2014  13:48:00     -564.624     -119.664      -30.911      289.728      242.648      105.796    83942.057    58878.148    11192.762       24.402        7.701      577.165      116.426        0.041      344.146       20.755      857.432
06/26/2014  13:49:00     -445.898     -138.482       -9.525      238.011      214.164       98.138    56649.009    45866.397     9631.114       16.510        5.607      466.908      110.364        0.056      344.083       20.647      857.481
06/26/2014  13:50:00     -397.858     -233.723      -11.152      274.426      171.152      112.383    75309.485    29293.080    12630.042       16.512        5.862      461.429      128.855        0.078      344.154       20.768      857.498
06/26/2014  13:51:00     -120.860      -69.892       39.777      200.490      164.319       83.354    40196.113    27000.660     6947.944        4.760        3.707      139.614      102.680        0.541      344.431       21.243      857.505
06/26/2014  13:52:00     -354.444     -281.144        1.933      184.630      168.383       86.778    34088.359    28352.692     7530.477       13.731        3.499      452.408       96.579        0.046      344.191       20.832      857.538
06/26/2014  13:53:00     -491.899     -313.582      -12.831      276.674      220.998      120.103    76548.426    48840.278    14424.669       24.011        6.991      583.351      125.790        0.046      344.102       20.681      857.509
06/26/2014  13:54:00     -632.647     -386.494      -12.813      266.468      214.562      123.143    71005.097    46036.760    15164.078       34.097        6.610      741.364      133.703        0.033      343.875       20.293      857.479
06/26/2014  13:55:00     -276.215     -192.488        9.382      207.355      175.734       95.525    42996.091    30882.500     9125.054        9.821        4.150      336.669      103.195        0.094      344.065       20.616      857.492
06/26/2014  13:56:00     -362.141     -198.275       12.926      223.337      147.918       89.210    49879.620    21879.874     7958.477       12.516        3.986      412.867       98.036        0.056      344.232       20.902      857.482
06/26/2014  13:57:00     -546.159     -183.741       -5.784      243.960      193.093       95.270    59516.687    37285.031     9076.350       21.896        5.294      576.238      104.804        0.033      344.123       20.714      857.522
06/26/2014  13:58:00     -355.687       -3.108       -3.258      193.927      156.210       90.550    37607.654    24401.680     8199.242        9.836        3.510      355.701       94.143        0.070      344.346       21.096      857.522
06/26/2014  13:59:00     -262.841     -140.126       -2.660      132.874      158.249       72.018    17655.604    25042.825     5186.650        6.830        2.394      297.860       73.951        0.062      344.462       21.295      857.491
06/26/2014  14:00:00     -280.335     -207.137       10.524      305.207      180.600       97.428    93151.417    32616.362     9492.170       12.841        6.763      348.559      120.025        0.119      344.406       21.199      857.437
06/26/2014  14:01:00     -728.442     -245.589      -32.225      260.812      208.029      121.353    68023.029    43276.127    14726.465       35.898        6.301      768.727      127.685        0.028      344.228       20.895      857.366
06/26/2014  14:02:00     -557.935     -333.740      -15.382      330.840      190.502      125.799   109455.430    36291.060    15825.294       29.221        8.079      650.134      121.599        0.035      343.907       20.347      857.361
06/26/2014  14:03:00     -451.973        5.812       -7.177      238.642      171.731      104.387    56949.794    29491.666    10896.731       15.084        4.867      452.010      125.450        0.077      344.356       21.112      857.421
06/26/2014  14:04:00     -271.281     -107.055      -11.168      133.854      126.253       73.436    17916.770    15939.694     5392.891        6.221        1.962      291.640       61.361        0.044      344.555       21.454      857.432
06/26/2014  14:05:00     -410.837     -339.065      -19.044      256.692      219.855      109.627    65890.650    48336.021    12018.011       20.516        6.312      532.684      115.709        0.047      344.132       20.729      857.416
06/26/2014  14:06:00     -570.704     -359.628      -24.717      196.839      145.651       89.088    38745.459    21214.261     7936.727       26.176        3.395      674.563       86.459        0.016      343.968       20.450      857.389
06/26/2014  14:07:00     -281.606     -191.183        7.537      201.075      145.978       85.764    40431.257    21309.478     7355.428        9.249        3.455      340.372       91.023        0.072      344.293       21.006      857.339
06/26/2014  14:08:00     -429.682     -263.030       -8.379      198.489      165.332       97.640    39398.064    27334.682     9533.474       16.506        3.813      503.797       99.794        0.039      344.457       21.287      857.350
06/26/2014  14:09:00     -374.818     -165.044        0.067      227.380      153.680       86.413    51701.533    23617.439     7467.150       12.524        4.139      409.546       97.766        0.057      344.373       21.144      857.379
06/26/2014  14:10:00     -304.012     -128.740       15.956      202.538      150.549       89.960    41021.701    22664.999     8092.780        9.050        3.589      330.148       80.737        0.060      344.473       21.313      857.427
06/26/2014  14:11:00     -236.317     -231.616       -6.893      148.542      142.994       78.444    22064.620    20447.203     6153.438        7.909        2.433      330.896       64.321        0.038      344.289       20.998      857.389
06/26/2014  14:12:00     -458.507     -250.693        3.295      319.877      237.877      111.259   102321.537    56585.474    12378.585       22.216        8.564      522.567      133.252        0.065      344.184       20.819      857.430
06/26/2014  14:13:00     -369.243     -176.361       -2.285      229.904      160.064       91.173    52855.706    25620.618     8312.538       12.710        4.339      409.199       95.314        0.054      344.019       20.537      857.462
06/26/2014  14:14:00     -434.604     -299.872       -3.469      240.512      144.155       86.159    57845.960    20780.523     7423.367       18.242        4.302      528.019       96.352        0.033      343.824       20.203      857.416
06/26/2014  14:15:00     -479.080     -274.013      -34.474      150.391      156.558       76.456    22617.447    24510.550     5845.480       17.937        2.649      551.906       69.949        0.016      343.907       20.346      857.389
06/26/2014  14:16:00     -323.353     -136.398       13.251      252.444      174.452       98.508    63727.846    30433.559     9703.825       11.358        5.193      350.944      120.775        0.118      344.416       21.217      857.432
06/26/2014  14:17:00     -334.227     -221.447       -2.562      228.417      158.755       99.183    52174.136    25203.162     9837.188       12.397        4.361      400.932      109.981        0.075      344.259       20.948      857.495
06/26/2014  14:18:00     -243.137     -103.183       -7.989      175.863      187.239       82.367    30927.895    35058.422     6784.280        7.129        3.639      264.125       77.570        0.086      344.285       20.992      857.486
06/26/2014  14:19:00     -596.482     -292.593      -38.244      287.865      210.121      104.543    82866.247    44150.903    10929.202       29.038        6.897      664.381      138.712        0.044      343.930       20.387      857.482
06/26/2014  14:20:00     -422.543     -310.473       -8.243      229.067      209.881      117.105    52471.497    44050.177    13713.634       19.260        5.512      524.343      125.920        0.058      344.065       20.617      857.481
06/26/2014  14:21:00     -412.970     -224.063        9.794      233.684      193.845      103.150    54608.261    37575.797    10639.833       16.182        5.141      469.838      116.046        0.061      343.994       20.495      857.462
06/26/2014  14:22:00     -319.308     -206.499        4.563      226.784      145.076       93.913    51430.984    21046.935     8819.682       11.295        4.065      380.262      116.202        0.093      344.123       20.716      857.429
06/26/2014  14:23:00     -270.863     -154.038      -10.278      223.207      145.005       80.301    49821.236    21026.455     6448.189        8.724        3.865      311.600       90.720        0.085      344.485       21.335      857.433
06/26/2014  14:24:00     -406.050     -167.788       -5.051      266.211      233.806      121.852    70868.417    54665.131    14847.877       16.669        7.019      439.351      130.906        0.089      344.293       21.007      857.377
06/26/2014  14:25:00     -391.030     -155.112       -9.689      255.708      200.263      132.149    65386.681    40105.230    17463.232       14.999        6.148      420.671      133.474        0.101      344.389       21.169      857.350
06/26/2014  14:26:00     -270.109     -116.271       22.881      214.460      187.740      108.622    45992.954    35246.302    11798.815        9.000        4.652      294.071      120.040        0.167      344.767       21.816      857.374
06/26/2014  14:27:00     -550.731     -292.401        6.162      359.201      280.369      122.824   129025.086    78606.886    15085.793       30.574       11.136      623.540      160.277        0.066      344.513       21.382      857.411
06/26/2014  14:28:00     -472.623     -360.729      -26.079      262.574      196.057      104.566    68945.044    38438.375    10934.145       23.623        5.916      594.557      116.316        0.038      344.201       20.851      857.457
06/26/2014  14:29:00     -422.872     -229.734       -9.546      206.022      188.489      105.199    42444.885    35528.085    11066.770       16.035        4.452      481.247      108.669        0.051      344.208       20.861      857.397
06/26/2014  14:30:00     -397.680     -372.421      -10.773      305.539      257.601      129.883    93354.234    66358.309    16869.676       23.674        8.829      544.836      164.518        0.091      344.238       20.913      857.309
06/26/2014  14:31:00     -609.855     -334.898       -6.768      274.841      229.120      122.396    75537.537    52495.768    14980.791       31.355        7.151      695.758      132.088        0.036      344.273       20.971      857.280
06/26/2014  14:32:00     -383.186     -222.170       -0.300      270.756      183.023       85.080    73308.936    33497.322     7238.644       15.510        5.702      442.935       91.423        0.043      344.335       21.078      857.355
06/26/2014  14:33:00     -561.292     -253.426       -1.101      317.226      220.783      127.958   100632.444    48744.938    16373.204       27.249        8.288      615.852      148.713        0.058      344.329       21.067      857.309
06/26/2014  14:34:00     -446.070     -284.941       -5.304      212.371      158.284       92.563    45101.274    25053.938     8567.848       17.945        3.936      529.310      100.301        0.036      344.185       20.821      857.359
06/26/2014  14:35:00     -363.181     -273.219       -9.718      200.888      190.621       94.186    40355.865    36336.539     8871.057       14.609        4.278      454.477      107.756        0.056      344.105       20.684      857.287
06/26/2014  14:36:00     -377.732     -338.224       -2.897      289.476      254.241      119.151    83796.594    64638.369    14197.019       20.983        8.132      507.027      128.687        0.064      344.525       21.403      857.245
06/26/2014  14:37:00     -459.871     -143.125        8.729      259.954      235.316      119.780    67576.069    55373.725    14347.337       18.465        6.865      481.628      137.099        0.081      344.709       21.717      857.323
06/26/2014  14:38:00     -392.118     -169.856       -9.197      251.448      185.274      109.777    63225.954    34326.281    12050.937       14.613        5.480      427.326      118.276        0.077      344.681       21.669      857.344
06/26/2014  14:39:00     -359.654      -94.302       -5.259      241.832      193.989      102.435    58482.950    37631.801    10492.966       12.242        5.330      371.811      101.787        0.075      344.770       21.822      857.330
06/26/2014  14:40:00     -239.729      -24.785       13.518      183.479      132.222       73.833    33664.398    17482.735     5451.353        5.742        2.830      241.007       89.620        0.138      345.023       22.255      857.351
06/26/2014  14:41:00     -505.848     -258.365      -11.120      346.747      233.180      114.107   120233.400    54372.699    13020.323       25.516        9.381      568.009      148.272        0.068      344.570       21.479      857.278
06/26/2014  14:42:00     -377.121     -190.236      -21.116      208.058      216.990      100.571    43288.168    47084.719    10114.578       13.965        5.024      422.386       83.231        0.039      344.645       21.608      857.285
06/26/2014  14:43:00     -493.054     -336.079       -9.883      319.886      263.925      137.693   102326.766    69656.474    18959.458       27.351        9.547      596.700      158.880        0.071      344.388       21.168      857.261
06/26/2014  14:44:00     -338.181     -238.073       22.985      284.748      215.355      150.573    81081.511    46377.874    22672.134       16.083        7.507      413.576      154.283        0.139      344.531       21.412      857.275
06/26/2014  14:45:00     -483.064     -153.481      -19.786      204.488      181.708       81.840    41815.428    33017.645     6697.858       16.940        4.077      506.860      103.558        0.042      344.278       20.981      857.241
06/26/2014  14:46:00     -501.137     -308.591      -15.650      277.301      195.104      104.790    76895.960    38065.534    10981.019       23.626        6.297      588.529      130.056        0.049      344.463       21.295      857.265
06/26/2014  14:47:00     -392.728     -175.887        9.551      291.210      132.047      101.538    84803.023    17436.327    10309.998       14.889        5.627      430.316      125.235        0.085      344.658       21.631      857.255
06/26/2014  14:48:00     -395.585     -344.255       -6.618      186.880      180.687       94.166    34924.040    32647.848     8867.181       17.573        3.822      524.404       90.807        0.030      344.668       21.645      857.264
06/26/2014  14:49:00     -697.888     -416.515       -6.414      289.974      219.684      131.519    84084.993    48261.245    17297.216       40.508        7.482      812.732      159.589        0.039      344.359       21.117      857.215
06/26/2014  14:50:00     -429.083     -216.931       -4.182      320.222      278.656      109.228   102541.932    77649.359    11930.682       21.162        9.606      480.803      132.935        0.076      344.563       21.468      857.261
06/26/2014  14:51:00     -389.982     -186.514        5.503      230.325      159.441       92.781    53049.746    25421.430     8608.367       13.698        4.354      432.289       89.866        0.043      344.566       21.471      857.257
06/26/2014  14:52:00     -401.352     -271.347       11.194      253.100      225.069      127.052    64059.817    50656.030    16142.219       18.283        6.543      484.472      131.477        0.074      344.512       21.380      857.245
06/26/2014  14:53:00     -427.679     -226.082      -11.977      213.409      177.086      116.290    45543.214    31359.506    13523.403       16.228        4.521      483.758      105.679        0.048      344.489       21.339      857.279
06/26/2014  14:54:00     -373.234     -275.723        4.130      234.778      180.923      111.613    55120.931    32733.302    12457.357       15.781        5.016      464.033      117.667        0.064      344.546       21.437      857.281
06/26/2014  14:55:00     -331.109     -215.851        3.609      237.336      190.390      103.482    56328.274    36248.422    10708.481       12.974        5.164      395.253      121.691        0.095      344.731       21.754      857.214
06/26/2014  14:56:00     -383.058     -159.708        2.814      272.693      215.491      103.419    74361.489    46436.172    10695.486       15.185        6.575      415.018      105.845        0.065      344.896       22.037      857.193
06/26/2014  14:57:00     -490.139     -375.673       -0.994      317.481      346.828      167.594   100794.026   120289.875    28087.830       31.523       12.459      617.549      188.722        0.093      344.698       21.699      857.238
06/26/2014  14:58:00     -468.292     -245.958       -7.337      275.151      239.703      108.612    75708.172    57457.662    11796.626       21.238        7.248      528.954      139.108        0.069      344.615       21.556      857.250
06/26/2014  14:59:00     -507.437     -234.476       -0.534      338.546      275.864      144.330   114613.715    76101.083    20831.077       26.197       10.577      558.992      175.489        0.099      344.418       21.220      857.284
06/26/2014  15:00:00     -665.956     -131.337      -48.279      266.972      186.204      104.384    71273.813    34671.983    10896.018       28.994        5.842      678.783      107.109        0.025      344.202       20.850      857.239
06/26/2014  15:01:00     -310.895      -58.594       26.621      260.603      183.968      100.115    67913.670    33844.122    10023.033       10.627        5.589      316.368      122.731        0.150      344.580       21.496      857.194
06/26/2014  15:02:00     -470.296     -126.588       -1.208      345.695      176.476       99.764   119505.245    31143.611     9952.871       19.888        8.030      487.035      113.067        0.054      344.620       21.564      857.182
06/26/2014  15:03:00     -578.613      -65.809      -14.140      224.281      208.650      119.968    50301.763    43534.722    14392.208       22.376        5.411      582.343      127.426        0.048      344.513       21.381      857.181
06/26/2014  15:04:00     -393.731      -93.858      -13.243      238.728      147.129      100.202    56991.010    21646.917    10040.342       12.633        4.434      404.764      117.573        0.084      344.467       21.304      857.182
06/26/2014  15:05:00     -381.255      -72.369       25.967      319.059      205.744      114.042   101798.464    42330.526    13005.568       15.417        7.857      388.062      141.685        0.133      344.826       21.916      857.121
06/26/2014  15:06:00     -486.064     -301.055       -3.873      291.476      247.638      123.981    84957.970    61324.563    15371.409       24.425        8.083      571.745      148.416        0.067      344.602       21.533      857.129
06/26/2014  15:07:00     -491.861     -243.645       -1.064      340.512      237.892      111.063   115948.271    56592.816    12334.964       24.305        9.244      548.899      139.587        0.065      344.574       21.488      857.132
06/26/2014  15:08:00     -534.170     -330.490       -1.196      276.982      258.692      129.487    76718.972    66921.803    16766.922       27.746        8.020      628.141      142.644        0.052      344.637       21.593      857.165
06/26/2014  15:09:00     -464.410     -182.038       -5.343      217.807      239.260      103.287    47439.956    57245.110    10668.252       18.208        5.768      498.813      102.489        0.042      344.575       21.489      857.216
06/26/2014  15:10:00     -405.829     -134.223       -9.801      289.979      215.977       94.683    84087.660    46646.182     8964.874       16.123        6.985      427.449      125.719        0.087      344.483       21.331      857.209
06/26/2014  15:11:00     -571.400     -205.142      -27.055      330.091      152.236       98.070   108959.888    23175.696     9617.682       25.551        7.088      607.109      137.548        0.051      344.575       21.487      857.191
06/26/2014  15:12:00     -451.855     -303.647      -16.282      271.055      193.639      105.492    73471.067    37495.897    11128.577       20.935        6.105      544.402      119.259        0.048      344.267       20.962      857.178
06/26/2014  15:13:00     -493.262     -135.790       -2.823      243.606      202.170      112.638    59343.810    40872.562    12687.357       18.731        5.645      511.611      116.028        0.051      344.540       21.429      857.214
06/26/2014  15:14:00     -320.161     -181.610        6.306      288.362      192.048       98.264    83152.834    36882.357     9655.796       13.259        6.485      368.083      128.665        0.122      344.646       21.609      857.244
06/26/2014  15:15:00     -368.201     -289.356        8.847      211.942      172.292      107.098    44919.468    29684.687    11470.058       15.271        4.304      468.293      107.907        0.053      344.389       21.170      857.177
06/26/2014  15:16:00     -479.291     -203.875       11.799      272.086      211.477      109.869    74031.043    44722.423    12071.175       20.110        6.541      520.850      139.719        0.072      344.669       21.648      857.164
06/26/2014  15:17:00     -463.960     -144.164       -0.732      262.014      186.745      103.386    68651.424    34873.706    10688.688       17.511        5.711      485.842      127.635        0.069      344.788       21.851      857.206
06/26/2014  15:18:00     -414.726     -237.463      -14.144      256.763      200.352      105.525    65927.255    40141.064    11135.538       17.288        5.860      477.898      104.445        0.048      344.696       21.693      857.261
06/26/2014  15:19:00     -580.022      -86.110       -9.623      341.635      189.363      116.726   116714.518    35858.341    13624.963       25.504        8.310      586.380      149.825        0.065      344.672       21.653      857.228
06/26/2014  15:20:00     -261.594      -44.326       15.103      218.348      160.291      100.192    47675.702    25693.181    10038.359        7.700        4.170      265.323      109.836        0.171      344.886       22.020      857.229
06/26/2014  15:21:00     -396.514     -293.628      -15.247      217.160      173.539      116.406    47158.560    30115.777    13550.447       16.723        4.541      493.397      126.265        0.065      344.762       21.807      857.265
06/26/2014  15:22:00     -547.937     -345.253      -12.152      276.133      209.053      111.309    76249.493    43702.964    12389.698       27.594        6.617      647.637      102.398        0.025      344.393       21.176      857.229
06/26/2014  15:23:00     -573.967     -266.765      -18.587      240.686      165.632       85.935    57929.883    27433.803     7384.807       24.683        4.637      632.931       85.264        0.018      344.326       21.063      857.238
06/26/2014  15:24:00     -410.290     -150.552       -4.327      185.620      106.299       74.645    34454.892    11299.433     5571.890       12.117        2.566      437.040       90.830        0.043      344.381       21.156      857.194
06/26/2014  15:25:00     -289.004       -3.788       -6.531      209.761      137.444       82.408    43999.622    18890.764     6791.104        7.662        3.484      289.029      102.101        0.125      344.889       22.026      857.194
06/26/2014  15:26:00     -309.884     -241.968        5.354      218.224      160.028      108.396    47621.859    25609.079    11749.688       11.978        4.249      393.162      120.879        0.095      344.856       21.968      857.214
06/26/2014  15:27:00     -229.038     -129.870       10.985      213.278      135.207       86.045    45487.349    18280.968     7403.813        7.030        3.559      263.296      100.352        0.145      344.867       21.987      857.222
06/26/2014  15:28:00     -514.849      -28.215      -35.320      193.565      187.610       79.763    37467.561    35197.661     6362.103       17.306        3.951      515.622       80.063        0.024      344.560       21.461      857.166
06/26/2014  15:29:00     -357.116      -99.047       15.804      243.262      206.338      112.830    59176.299    42575.310    12730.654       12.602        5.724      370.597      117.079        0.100      344.731       21.755      857.168
06/26/2014  15:30:00     -596.923      -67.755      -30.950      277.632      167.696       95.530    77079.357    28121.810     9125.896       23.808        5.716      600.756      118.053        0.039      344.743       21.775      857.176
06/26/2014  15:31:00     -382.088     -177.225      -17.353      274.409      187.276      110.397    75300.505    35072.141    12187.559       15.011        6.128      421.188      123.172        0.086      344.748       21.784      857.196
06/26/2014  15:32:00     -307.365     -199.425       14.876      183.080      222.646       95.307    33518.427    49571.105     9083.506       11.330        4.609      366.393      101.722        0.077      344.766       21.814      857.244
06/26/2014  15:33:00     -355.667     -231.809       -9.169      275.730      214.581      102.052    76027.241    46044.952    10414.515       15.638        6.624      424.540      108.524        0.065      344.723       21.740      857.219
06/26/2014  15:34:00     -382.600     -305.017      -10.558      231.085      175.178       89.636    53400.049    30687.183     8034.643       16.581        4.606      489.304       88.528        0.033      344.427       21.234      857.232
06/26/2014  15:35:00     -367.338     -318.856       -3.885      272.627      203.481      103.036    74325.315    41404.618    10616.492       18.146        6.317      486.422      123.430        0.064      344.593       21.519      857.218
06/26/2014  15:36:00     -497.841     -320.760      -11.550      315.672      288.468      125.930    99648.888    83213.925    15858.377       27.476        9.936      592.227      141.045        0.057      344.560       21.462      857.215
06/26/2014  15:37:00     -722.167     -324.677      -19.657      281.211      217.112       95.372    79079.548    47137.770     9095.787       38.130        6.766      791.795      118.243        0.022      344.475       21.319      857.253
06/26/2014  15:38:00     -487.777     -332.957      -27.677      245.883      196.268      106.237    60458.467    38520.987    11286.393       22.989        5.513      590.582      104.457        0.031      344.451       21.277      857.288
06/26/2014  15:39:00     -434.754     -288.182       -1.357      213.988      195.918       98.765    45790.847    38383.825     9754.511       18.298        4.696      521.593      108.012        0.043      344.561       21.464      857.242
06/26/2014  15:40:00     -250.364     -168.157       -5.020      216.030      198.069       81.575    46669.081    39231.174     6654.462        9.175        4.628      301.594       94.681        0.099      344.861       21.976      857.250
06/26/2014  15:41:00     -442.770     -292.039        5.405      259.433      213.679       99.464    67305.271    45658.644     9893.004       20.209        6.143      530.408      119.331        0.051      344.747       21.781      857.248
06/26/2014  15:42:00     -325.455     -219.187       13.140      245.509      192.143      106.950    60274.605    36918.791    11438.240       13.137        5.432      392.383      125.887        0.103      344.792       21.860      857.279
06/26/2014  15:43:00     -500.181     -313.474       -5.148      251.589      192.023       93.041    63296.959    36873.022     8656.717       22.863        5.441      590.294      108.584        0.034      344.670       21.651      857.290
06/26/2014  15:44:00     -419.968     -241.277       -5.654      283.251      155.252       82.119    80231.032    24103.259     6743.531       17.283        5.554      484.342      112.818        0.054      344.719       21.734      857.286
06/26/2014  15:45:00     -256.950     -224.811        9.802      226.699      146.528       94.132    51392.394    21470.491     8860.905        9.918        4.086      341.413       94.192        0.076      344.687       21.680      857.313
06/26/2014  15:46:00     -281.391     -231.947        7.168      179.015      184.113       71.894    32046.425    33897.677     5168.682       10.206        3.556      364.665       79.690        0.048      344.568       21.474      857.301
06/26/2014  15:47:00     -441.917     -340.058       -7.356      281.014      215.109      112.167    78968.708    46271.892    12581.416       22.438        6.891      557.611      142.379        0.065      344.674       21.655      857.236
06/26/2014  15:48:00     -356.346     -227.495        0.772      235.401      168.190       93.991    55413.551    28287.951     8834.342       13.562        4.627      422.772      104.885        0.062      344.421       21.223      857.286
06/26/2014  15:49:00     -294.426     -172.452      -10.267      156.940      105.797       65.962    24630.172    11192.962     4350.968        7.835        2.009      341.213       66.714        0.038      344.649       21.614      857.266
06/26/2014  15:50:00     -393.871     -102.938       16.502      306.305      197.621      114.478    93822.731    39054.244    13105.179       15.597        7.299      407.100      141.837        0.121      344.819       21.906      857.235
06/26/2014  15:51:00     -293.061     -247.515       -0.620      262.704      210.538      104.267    69013.500    44326.174    10871.525       13.566        6.211      383.600      112.495        0.086      344.860       21.976      857.185
06/26/2014  15:52:00     -510.815     -423.589      -13.582      223.893      231.922      104.687    50128.243    53787.708    10959.359       27.769        5.744      663.596      115.098        0.030      344.903       22.049      857.210
06/26/2014  15:53:00     -714.060     -314.908      -50.385      250.371      225.503      128.531    62685.594    50851.389    16520.243       37.080        6.503      780.416      131.277        0.028      344.536       21.421      857.212
06/26/2014  15:54:00     -449.731     -148.602        2.695      245.444      188.569       99.549    60242.988    35558.415     9910.046       16.501        5.286      473.646      100.663        0.045      344.552       21.449      857.264
06/26/2014  15:55:00     -312.411      -47.766       23.439      206.258      139.277      112.768    42542.234    19398.177    12716.716        8.753        3.733      316.041      116.595        0.136      344.741       21.772      857.263
06/26/2014  15:56:00     -318.709     -256.867       -5.930      229.410      244.267      107.033    52629.121    59666.586    11456.107       14.565        6.188      409.337      104.730        0.065      344.784       21.845      857.277
06/26/2014  15:57:00     -469.036     -248.336      -15.901      282.669      165.367      116.857    79901.681    27346.297    13655.550       20.139        6.045      530.722      135.675        0.065      344.620       21.566      857.318
06/26/2014  15:58:00     -408.375     -270.489       24.226      265.748      200.139      127.282    70622.261    40055.751    16200.735       18.368        6.344      489.831      136.420        0.078      344.484       21.332      857.304
06/26/2014  15:59:00     -483.738     -295.248       -3.490      233.110      200.061      108.808    54340.113    40024.563    11839.161       21.368        5.310      566.722       96.966        0.029      344.523       21.397      857.278
06/26/2014  16:00:00     -442.169     -199.839      -18.011      197.685      136.352       75.167    39079.166    18591.775     5650.051       14.954        3.166      485.231       67.869        0.020      344.622       21.569      857.263
06/26/2014  16:01:00     -292.300     -285.265      -13.571      242.369      155.478       77.467    58742.729    24173.394     6001.117       12.794        4.446      408.431       88.009        0.046      344.783       21.844      857.255
06/26/2014  16:02:00     -292.583     -215.826       10.691      198.312      176.467       87.949    39327.813    31140.501     7735.075       10.524        3.910      363.573      100.034        0.076      344.638       21.596      857.196
06/26/2014  16:03:00     -330.084     -339.415        6.112      275.507      229.084      113.036    75903.951    52479.633    12777.036       18.265        7.058      473.453      128.122        0.073      344.711       21.721      857.110
06/26/2014  16:04:00     -495.843     -263.966        1.793      242.543      206.417      116.684    58826.935    42608.083    13615.258       21.528        5.753      561.728      107.714        0.037      344.686       21.677      857.079
06/26/2014  16:05:00     -403.975     -276.666       -2.469      247.886      212.243      102.697    61447.251    45046.954    10546.598       17.837        5.852      489.633      130.843        0.071      344.724       21.741      857.149
06/26/2014  16:06:00     -518.694     -299.275       -2.596      245.903      166.201      117.621    60468.094    27622.852    13834.638       23.025        5.096      598.840      131.169        0.048      344.726       21.745      857.159
06/26/2014  16:07:00     -315.618     -299.912       -3.916      194.927      193.871       96.051    37996.428    37585.923     9225.805       13.718        4.240      435.387       95.822        0.048      344.486       21.334      857.198
06/26/2014  16:08:00     -436.579     -308.907      -23.053      193.415      135.640       90.623    37409.556    18398.109     8212.573       17.528        3.201      534.813       86.536        0.026      344.536       21.421      857.180
06/26/2014  16:09:00     -284.771     -139.458       17.377      171.547      143.255       77.640    29428.464    20522.036     6027.936        7.840        2.799      317.085       78.061        0.061      344.829       21.923      857.210
06/26/2014  16:10:00     -248.094     -224.993       -6.931      229.379      205.414       81.006    52614.577    42194.992     6561.974       10.678        5.069      334.922      103.946        0.096      344.893       22.032      857.193
06/26/2014  16:11:00     -446.171     -265.657       -8.155      192.040      235.376       96.860    36879.460    55401.775     9381.932       18.567        5.083      519.271      107.060        0.043      344.830       21.924      857.194
06/26/2014  16:12:00     -296.071     -168.715       30.418      196.039      201.499       94.940    38431.469    40601.950     9013.644       10.253        4.402      340.768       88.859        0.068      345.007       22.228      857.206
06/26/2014  16:13:00     -424.974     -175.353      -13.718      304.106      247.336       84.710    92480.226    61174.909     7175.849       18.616        8.042      459.730      110.178        0.057      344.729       21.751      857.184
06/26/2014  16:14:00     -516.879     -321.018      -12.868      263.029      179.036       88.317    69184.183    32053.913     7799.965       23.969        5.452      608.454       86.222        0.020      344.601       21.532      857.120
06/26/2014  16:15:00     -427.733     -306.314       -7.295      248.984      199.364      110.571    61992.803    39745.911    12225.905       19.538        5.698      526.103       99.081        0.035      344.720       21.734      857.116
06/26/2014  16:16:00     -575.526     -201.409      -29.169      296.329      270.537      109.811    87810.871    73190.299    12058.409       27.282        8.653      609.750      108.384        0.032      344.743       21.774      857.089
06/26/2014  16:17:00     -534.476     -284.041        0.665      261.846      218.413      112.585    68563.251    47704.171    12675.348       24.762        6.447      605.263      119.002        0.039      344.756       21.798      857.049
06/26/2014  16:18:00     -520.278     -251.795       -4.806      264.276      211.520      116.560    69842.068    44740.516    13586.257       23.112        6.408      578.005      123.747        0.046      344.635       21.592      857.137
06/26/2014  16:19:00     -438.737     -331.776      -18.032      244.346      200.100      121.970    59704.988    40039.990    14876.754       20.874        5.731      550.060      140.802        0.066      344.794       21.863      857.118
06/26/2014  16:20:00     -528.213     -398.660       -5.066      255.360      216.746      106.234    65208.953    46978.829    11285.612       28.070        6.174      661.769      104.122        0.025      344.564       21.468      857.124
06/26/2014  16:21:00     -436.319     -241.138       -0.868      283.247      242.216      127.484    80228.581    58668.737    16252.211       20.181        7.757      498.519      146.175        0.086      344.618       21.561      857.122
06/26/2014  16:22:00     -393.558     -207.000      -17.712      294.696      222.605      125.271    86845.991    49552.984    15692.756       17.505        7.605      444.676      131.934        0.088      344.704       21.708      857.085
06/26/2014  16:23:00     -372.294     -222.147       -8.768      197.741      202.172       99.643    39101.413    40873.707     9928.670       13.895        4.495      433.534       98.294        0.051      344.823       21.911      857.177
06/26/2014  16:24:00     -360.074     -140.103       -2.936      234.934      160.379       99.495    55193.864    25721.579     9899.316       12.004        4.541      386.371      122.770        0.101      344.854       21.966      857.206
06/26/2014  16:25:00     -520.829     -368.134      -12.253      202.015      217.730       93.718    40809.899    47406.465     8783.091       25.195        4.850      637.797       92.133        0.021      344.484       21.332      857.243
06/26/2014  16:26:00     -479.338     -364.909       -9.161      242.188      171.491      108.889    58655.052    29409.119    11856.802       23.145        4.996      602.432      126.638        0.044      344.519       21.393      857.185
06/26/2014  16:27:00     -159.224     -154.116       20.378      157.694      130.502       74.972    24867.436    17030.675     5620.740        4.851        2.376      221.595       91.569        0.171      345.034       22.275      857.194
06/26/2014  16:28:00     -204.866      -94.997        7.299      129.515      117.322       56.405    16774.229    13764.461     3181.469        4.238        1.686      225.820       52.545        0.054      345.126       22.431      857.168
06/26/2014  16:29:00     -299.112     -168.599       -2.193      153.533      117.535       69.381    23572.501    13814.434     4813.716        8.004        2.110      343.356       62.969        0.034      345.281       22.696      857.183
06/26/2014  16:30:00     -505.114     -327.512      -34.258      229.865      240.170       92.094    52837.872    57681.676     8481.321       24.127        5.950      602.000      107.923        0.032      344.861       21.977      857.200
06/26/2014  16:31:00     -407.228     -335.525       18.996      328.189      257.801      134.797   107707.904    66461.452    18170.307       23.552        9.617      527.647      178.893        0.115      344.692       21.689      857.181
06/26/2014  16:32:00     -451.786     -301.044       16.367      304.094      183.475      124.547    92473.185    33663.019    15512.035       21.830        7.082      542.898      145.357        0.072      344.468       21.306      857.176
06/26/2014  16:33:00     -203.240     -250.081       18.407      181.602      164.965       80.064    32979.451    27213.553     6410.266        8.538        3.330      322.253       71.639        0.049      344.623       21.571      857.163
06/26/2014  16:34:00     -290.757     -255.985       -4.461      191.622      168.559       79.590    36719.077    28412.184     6334.615       11.076        3.573      387.386       95.775        0.061      344.697       21.696      857.155
06/26/2014  16:35:00     -410.129     -303.378      -20.454      226.841      236.453       94.904    51457.033    55909.898     9006.808       18.850        5.819      510.141      117.679        0.053      344.735       21.761      857.173
06/26/2014  16:36:00     -422.834     -328.061       -8.454      248.711      195.925      119.669    61857.017    38386.570    14320.656       20.050        5.728      535.175      121.642        0.052      344.670       21.650      857.238
06/26/2014  16:37:00     -420.554     -379.971       -5.771      223.280      215.978      125.768    49854.011    46646.374    15817.568       21.678        5.616      566.784      127.847        0.051      344.506       21.371      857.202
06/26/2014  16:38:00     -448.890     -319.712      -25.997      205.401      181.375      102.225    42189.699    32896.800    10449.895       19.495        4.277      551.106      111.230        0.041      344.450       21.275      857.195
06/26/2014  16:39:00     -415.318     -219.378      -14.180      206.846      128.070       81.427    42785.095    16401.936     6630.399       14.331        3.291      469.697       91.990        0.038      344.869       21.990      857.173
06/26/2014  16:40:00     -305.646     -169.462       15.116      283.209      176.339       85.122    80207.238    31095.288     7245.713       12.044        5.927      349.480       99.507        0.081      344.976       22.174      857.185
06/26/2014  16:41:00     -267.699     -348.304       11.600      192.336      200.242      104.837    36992.990    40096.704    10990.776       14.058        4.404      439.293      106.487        0.059      344.820       21.907      857.190
06/26/2014  16:42:00     -437.889     -283.096       -6.572      242.690      232.113      101.002    58898.438    53876.449    10201.463       19.743        6.149      521.431      105.833        0.041      344.681       21.670      857.166
06/26/2014  16:43:00     -427.774     -207.191       24.160      276.348      213.373      117.128    76368.082    45528.234    13719.073       18.104        6.781      475.309      128.350        0.073      344.727       21.748      857.085
06/26/2014  16:44:00     -376.678     -315.288       17.848      271.981      238.560      125.600    73973.928    56910.639    15775.459       19.411        7.333      491.216      110.216        0.050      344.642       21.602      857.089
06/26/2014  16:45:00     -389.109     -286.332       -0.113      199.694      169.547      104.211    39877.663    28746.198    10859.863       15.642        3.974      483.106      101.254        0.044      344.689       21.682      857.102
06/26/2014  16:46:00     -360.686     -238.369       -2.602      204.252      167.186       80.458    41718.930    27951.221     6473.441       13.152        3.807      432.336       92.722        0.046      344.811       21.892      857.103
06/26/2014  16:47:00     -361.687     -294.407       -4.559      221.579      174.917      103.437    49097.255    30596.010    10699.115       15.394        4.520      466.362      110.413        0.056      344.837       21.936      857.111
06/26/2014  16:48:00     -280.171     -258.066       10.773      326.618      207.168      134.237   106679.639    42918.667    18019.533       15.639        8.381      380.912      164.650        0.187      344.842       21.944      857.122
06/26/2014  16:49:00     -387.490     -293.474       -1.018      267.972      191.813      107.663    71808.774    36792.149    11591.227       17.821        6.010      486.081      129.850        0.071      344.647       21.611      857.148
06/26/2014  16:50:00     -449.553     -236.356       -0.919      224.000      179.171       90.986    50176.000    32102.407     8278.384       17.424        4.528      507.899      100.621        0.039      344.454       21.281      857.142
06/26/2014  16:51:00     -593.159     -414.635       -0.189      298.860      222.760      124.207    89317.345    49621.974    15427.444       33.904        7.718      723.713      141.332        0.038      344.539       21.428      857.127
06/26/2014  16:52:00     -451.451     -389.636       11.743      258.651      255.830      142.447    66900.284    65449.110    20291.288       25.418        7.632      596.342      139.893        0.055      344.487       21.337      857.169
06/26/2014  16:53:00     -531.915     -385.146       -8.173      256.423      197.381      125.906    65752.952    38959.387    15852.343       27.593        6.028      656.712      136.363        0.043      344.410       21.206      857.188
06/26/2014  16:54:00     -429.517     -220.522       11.166      249.165      192.169      110.846    62083.226    36928.897    12286.883       17.225        5.565      482.820      122.649        0.065      344.537       21.422      857.173
06/26/2014  16:55:00     -279.084     -203.540        2.170      150.619      157.172       80.338    22686.051    24703.194     6454.127        8.657        2.692      345.422       74.988        0.047      344.835       21.933      857.239
06/26/2014  16:56:00     -377.482     -215.794      -21.415      204.633      189.549       89.126    41874.676    35928.980     7943.533       13.762        4.287      434.810       96.730        0.049      344.723       21.741      857.263
06/26/2014  16:57:00     -393.103      -47.801      -26.745      186.231      168.216       94.305    34681.859    28296.784     8893.516       11.469        3.594      395.999       81.015        0.042      344.573       21.485      857.209
06/26/2014  16:58:00     -486.750     -188.230      -20.920      305.267      260.058      116.570    93188.218    67630.251    13588.598       22.357        8.720      521.878      126.003        0.058      344.683       21.672      857.174
06/26/2014  16:59:00     -376.339     -370.521        0.098      223.905      298.430      122.546    50133.364    89060.635    15017.516       21.654        7.711      528.126      132.898        0.063      344.531       21.413      857.188
06/26/2014  17:00:00     -358.909     -130.224       11.116      193.461      153.319       96.160    37426.997    23506.719     9246.739       10.803        3.509      381.804       95.591        0.063      344.704       21.707      857.232
06/26/2014  17:01:00     -383.698     -236.643        2.726      182.538      168.979       82.811    33320.168    28554.008     6857.659       13.597        3.437      450.804       85.900        0.036      344.533       21.414      857.222
06/26/2014  17:02:00     -336.446     -280.519       -2.043      258.054      190.995       92.026    66591.921    36479.154     8468.772       15.170        5.577      438.049      113.918        0.068      344.579       21.495      857.233
06/26/2014  17:03:00     -362.156     -275.452       -2.184      207.575      195.261       88.063    43087.464    38126.708     7755.042       14.799        4.448      455.006       99.704        0.048      344.542       21.432      857.269
06/26/2014  17:04:00     -313.475     -182.725       -1.127      189.971      163.132       83.703    36088.907    26611.938     7006.215       10.067        3.485      362.843       98.222        0.073      344.470       21.307      857.259
06/26/2014  17:05:00     -413.336     -145.828       -5.893      258.629      172.388      107.868    66888.774    29717.743    11635.599       15.018        5.412      438.306      130.419        0.089      344.484       21.333      857.294
06/26/2014  17:06:00     -293.916     -162.901      -10.179      212.055      128.637       82.046    44967.470    16547.373     6731.476        9.063        3.412      336.040       85.128        0.064      344.512       21.381      857.302
06/26/2014  17:07:00     -357.985     -149.365        7.292      205.132      140.116       81.100    42079.124    19632.522     6577.155       10.939        3.414      387.896       84.109        0.047      344.522       21.398      857.290
06/26/2014  17:08:00     -254.264     -256.107       11.099      195.907      170.961       93.080    38379.639    29227.776     8663.973       10.330        3.814      360.888       93.596        0.067      344.539       21.425      857.304
06/26/2014  17:09:00     -384.408     -282.251      -18.697      174.800      139.615       86.489    30554.888    19492.430     7480.426       14.265        2.876      476.902       80.163        0.028      344.626       21.575      857.343
06/26/2014  17:10:00     -402.934     -272.318       -7.089      167.734      155.860       82.540    28134.598    24292.453     6812.923       14.789        2.962      486.326       91.176        0.035      344.545       21.435      857.353
06/26/2014  17:11:00     -348.983     -188.251        0.244      169.730      149.622       78.582    28808.298    22386.772     6175.123       10.729        2.869      396.519       76.648        0.037      344.536       21.421      857.355
06/26/2014  17:12:00     -332.537     -219.438        4.698      196.582      168.447      107.292    38644.509    28374.462    11511.619       11.863        3.927      398.414      107.791        0.073      344.595       21.521      857.363
06/26/2014  17:13:00     -405.111     -248.947       -7.636      255.654      184.062       96.812    65358.789    33878.986     9372.512       16.736        5.431      475.489       95.467        0.040      344.731       21.755      857.390
06/26/2014  17:14:00     -500.860     -421.977      -30.220      248.039      174.353       93.584    61523.336    30398.804     8757.926       26.524        5.034      654.923      105.252        0.026      344.492       21.346      857.406
06/26/2014  17:15:00     -324.007     -159.650       11.935      192.341      165.466       96.366    36995.198    27378.903     9286.501       10.212        3.683      361.204      101.000        0.078      344.765       21.813      857.428
06/26/2014  17:16:00     -546.157     -383.740      -28.679      224.329      183.900      113.237    50323.419    33819.064    12822.554       27.165        4.848      667.490      123.985        0.035      344.663       21.638      857.446
06/26/2014  17:17:00     -450.950     -259.008      -10.397      244.783      153.219       96.145    59918.764    23476.035     9243.922       18.158        4.632      520.039      104.380        0.040      344.448       21.271      857.473
06/26/2014  17:18:00     -384.842     -287.091        1.905      261.232      208.298      113.397    68242.147    43387.946    12858.944       17.749        6.224      480.130      141.713        0.087      344.549       21.444      857.488
06/26/2014  17:19:00     -280.901     -186.554       10.093      171.141      138.169       82.678    29289.243    19090.718     6835.678        8.450        2.761      337.206       92.047        0.075      344.719       21.734      857.528
06/26/2014  17:20:00     -295.712     -280.440       -6.155      189.294      226.448       84.884    35832.189    51278.671     7205.212       13.021        4.716      407.544      102.071        0.063      344.709       21.716      857.597
06/26/2014  17:21:00     -226.254     -190.588        1.926      183.077      182.123       86.483    33517.216    33168.969     7479.291        8.083        3.708      295.828      100.618        0.116      344.740       21.771      857.596
06/26/2014  17:22:00     -401.061     -262.968       -2.398      277.679      222.261      112.718    77105.804    49399.790    12705.375       18.459        6.961      479.585      136.317        0.081      344.719       21.734      857.573
06/26/2014  17:23:00     -349.292     -230.292       15.301      185.321      228.623       93.326    34343.880    52268.552     8709.765       13.528        4.766      418.377       89.710        0.046      344.670       21.652      857.592
06/26/2014  17:24:00     -588.067     -375.856       -9.327      312.621      194.334      115.541    97732.006    37765.642    13349.776       31.799        7.442      697.919      135.544        0.038      344.477       21.322      857.557
06/26/2014  17:25:00     -413.672     -159.702      -13.565      266.864      223.785      102.193    71216.658    50079.874    10443.457       16.425        6.587      443.429      110.848        0.062      344.518       21.390      857.583
06/26/2014  17:26:00     -415.576     -153.681      -18.319      219.749      141.535      108.424    48289.812    20032.127    11755.775       13.835        4.004      443.081      119.698        0.073      344.578       21.492      857.610
06/26/2014  17:27:00     -501.888     -319.648      -21.971      341.841      218.595      104.858   116855.145    47783.654    10995.216       26.506        8.782      595.034      128.999        0.047      344.442       21.260      857.624
06/26/2014  17:28:00     -448.721     -247.158       -7.566      215.910      206.012      106.885    46617.342    42440.794    11424.319       18.147        5.024      512.286      122.765        0.057      344.524       21.401      857.648
06/26/2014  17:29:00     -297.495     -285.583        4.230      188.904      158.102       93.702    35684.767    24996.167     8780.135       11.976        3.473      412.385       95.150        0.053      344.577       21.491      857.725
06/26/2014  17:30:00     -377.621     -248.611      -14.590      201.698      206.122       91.897    40682.267    42486.238     8445.138       14.810        4.581      452.112       85.439        0.036      344.421       21.224      857.718
06/26/2014  17:31:00     -342.841     -225.386       -5.568      175.967      177.530       90.297    30964.229    31516.885     8153.638       11.949        3.532      410.291       94.174        0.053      344.565       21.470      857.724
06/26/2014  17:32:00     -550.154     -322.949       -5.048      310.304      215.246      115.778    96288.403    46330.674    13404.501       28.148        7.801      637.939      147.510        0.053      344.448       21.271      857.716
06/26/2014  17:33:00     -366.685     -186.896       -9.856      191.807      194.569      104.537    36789.818    37857.011    10927.902       12.752        4.279      411.568      103.264        0.063      344.383       21.160      857.721
06/26/2014  17:34:00     -487.340     -252.674      -11.414      297.162      190.116      114.610    88305.269    36144.228    13135.455       21.951        6.879      548.948      149.912        0.075      344.366       21.129      857.692
06/26/2014  17:35:00     -339.289     -211.684        4.423      230.377      145.113       91.583    53073.569    21057.850     8387.388       12.122        4.126      399.909      113.592        0.081      344.469       21.306      857.691
06/26/2014  17:36:00     -382.532     -246.830      -12.545      177.887      149.891       87.491    31643.610    22467.452     7654.608       13.458        3.088      455.254       85.445        0.035      344.513       21.381      857.701
06/26/2014  17:37:00     -412.889     -284.881      -14.001      201.469      196.922       97.059    40589.843    38778.157     9420.412       17.029        4.439      501.632       83.955        0.028      344.419       21.220      857.726
06/26/2014  17:38:00     -352.698     -261.642       -0.914      194.118      186.738       94.697    37681.701    34871.236     8967.484       13.717        4.076      439.150       96.432        0.048      344.403       21.195      857.735
06/26/2014  17:39:00     -376.856     -238.498       11.251      256.040      157.475       96.627    65556.260    24798.337     9336.759       14.934        4.985      445.984      105.253        0.056      344.414       21.210      857.730
06/26/2014  17:40:00     -256.613     -260.857        8.446      204.443      194.913      100.501    41797.133    37990.995    10100.376       11.191        4.494      365.919       89.385        0.060      344.520       21.393      857.736
06/26/2014  17:41:00     -442.277     -260.365       -8.708      236.321      171.066       97.219    55847.391    29263.708     9451.629       17.900        4.728      513.224       93.582        0.033      344.580       21.495      857.708
06/26/2014  17:42:00     -364.208     -234.699       15.960      195.720      157.128       87.091    38306.157    24689.271     7584.903       12.927        3.529      433.280       91.870        0.045      344.524       21.399      857.673
06/26/2014  17:43:00     -502.731     -363.949       -3.075      248.754      189.993      103.729    61878.455    36097.512    10759.702       24.695        5.437      620.643      113.955        0.034      344.335       21.076      857.567
06/26/2014  17:44:00     -162.045     -140.793       24.553      185.340      121.166       76.084    34350.873    14681.282     5788.715        5.074        2.741      214.665       92.782        0.187      344.653       21.622      857.549
06/26/2014  17:45:00     -142.516     -141.332       16.576      152.178      113.903       74.867    23158.011    12973.945     5605.056        4.114        2.087      200.713       66.855        0.111      344.888       22.024      857.545
06/26/2014  17:46:00     -424.257     -154.398        9.718      206.261      198.409       96.157    42543.556    39366.095     9246.112       14.753        4.558      451.479      113.129        0.063      344.674       21.656      857.541
06/26/2014  17:47:00     -379.229     -246.638        0.502      224.717      198.222      102.433    50497.759    39292.048    10492.614       15.245        5.014      452.377      109.302        0.058      344.589       21.513      857.536
06/26/2014  17:48:00     -350.137     -220.564       21.405      234.812      206.087       94.942    55136.794    42471.865     9014.052       13.914        5.331      413.817      100.041        0.058      344.568       21.475      857.532
06/26/2014  17:49:00     -468.953     -293.994      -11.088      245.717      188.031       97.838    60376.605    35355.656     9572.265       20.587        5.265      553.488      111.164        0.040      344.466       21.300      857.530
06/26/2014  17:50:00     -396.757     -285.486       18.823      271.871      176.342      110.335    73914.023    31096.549    12173.895       17.821        5.859      488.793      117.648        0.058      344.429       21.237      857.583
06/26/2014  17:51:00     -576.729     -442.445       -8.042      324.129      267.647      119.467   105059.295    71634.893    14272.333       35.967        9.548      726.893      146.756        0.041      344.246       20.925      857.619
06/26/2014  17:52:00     -544.680     -338.187      -19.791      268.499      184.092      117.235    72091.827    33889.928    13744.065       26.556        5.986      641.129      104.535        0.027      344.072       20.628      857.672
06/26/2014  17:53:00     -534.245     -292.282      -18.871      276.436      196.117       99.518    76417.073    38461.923     9903.812       24.797        6.239      608.971      111.779        0.034      344.022       20.543      857.701
06/26/2014  17:54:00     -341.774     -228.261        4.368      202.528      191.634       95.619    41017.544    36723.770     9143.026       12.789        4.344      410.989      106.789        0.068      344.158       20.776      857.739
06/26/2014  17:55:00     -273.241     -174.481        4.159      196.217      132.198       76.093    38501.257    17476.423     5790.072        8.343        3.088      324.198       69.969        0.047      344.276       20.977      857.798
06/26/2014  17:56:00     -437.802     -315.041      -21.789      199.840      176.633      101.423    39936.076    31199.220    10286.725       18.640        4.071      539.372      101.175        0.035      344.175       20.804      857.852
06/26/2014  17:57:00     -454.633     -371.518       -4.775      233.468      189.869      110.128    54507.441    36050.289    12128.186       22.370        5.134      587.126      126.926        0.047      344.181       20.814      857.873
06/26/2014  17:58:00     -457.945     -246.787       -9.500      250.103      166.113       98.446    62551.606    27593.616     9691.712       18.526        4.992      520.209      106.841        0.042      344.189       20.829      857.901
06/26/2014  17:59:00     -335.401     -236.669       -7.107      203.464      171.597       99.664    41397.642    29445.662     9932.852       12.465        4.039      410.495       94.312        0.053      344.288       20.998      857.842
06/26/2014  18:00:00     -279.073     -187.092        1.568      170.560      151.015       89.561    29090.596    22805.557     8021.176        8.639        2.996      335.984       87.091        0.067      344.401       21.190      857.867
06/26/2014  18:01:00     -523.276     -255.116       -7.624      384.015      256.418      128.373   147467.239    65750.173    16479.576       28.429       11.485      582.153      152.444        0.069      344.220       20.881      857.824
06/26/2014  18:02:00     -346.760     -125.396       13.615      262.040      154.746       92.491    68664.850    23946.469     8554.525       11.864        5.058      368.737       96.582        0.069      344.296       21.012      857.777
06/26/2014  18:03:00     -389.705     -160.616      -24.121      209.297      138.774       86.017    43805.198    19258.201     7398.987       12.434        3.523      421.506      110.864        0.069      344.320       21.051      857.750
06/26/2014  18:04:00     -376.900     -269.377       -5.277      223.167      175.773       90.660    49803.403    30896.155     8219.326       15.177        4.446      463.269       92.032        0.039      344.248       20.928      857.754
06/26/2014  18:05:00     -144.049     -125.322       26.670      188.508      136.676       75.638    35535.323    18680.443     5721.176        4.854        2.997      190.934       85.201        0.199      344.492       21.348      857.784
06/26/2014  18:06:00     -204.786     -250.746        2.861      145.418      176.696       84.325    21146.536    31221.308     7110.627        8.214        2.974      323.745       93.037        0.083      344.349       21.101      857.776
06/26/2014  18:07:00     -316.098     -261.362      -14.247      171.109      134.114       80.812    29278.243    17986.697     6530.537       11.110        2.690      410.156       81.077        0.039      344.391       21.172      857.772
06/26/2014  18:08:00     -176.770     -124.208       -6.938      147.387      114.291       52.184    21722.815    13062.414     2723.132        4.211        1.875      216.045       68.615        0.101      344.366       21.129      857.763
06/26/2014  18:09:00     -349.056      -80.587       -6.428      187.069      109.591       74.743    34994.653    12010.150     5586.525        9.047        2.630      358.238       91.537        0.065      344.445       21.267      857.797
06/26/2014  18:10:00     -350.645     -119.123      -14.532      171.117      135.679       72.527    29281.071    18408.724     5260.205        9.514        2.648      370.327       73.140        0.039      344.305       21.025      857.775
06/26/2014  18:11:00     -355.771     -102.876       -5.417      214.063      169.911       81.505    45823.090    28869.668     6643.002       10.925        4.067      370.347      100.096        0.073      344.272       20.969      857.764
06/26/2014  18:12:00     -187.610     -126.864       -4.366      124.653      108.936       53.835    15538.385    11866.945     2898.156        4.080        1.515      226.477       42.223        0.035      344.414       21.215      857.782
06/26/2014  18:13:00     -327.718     -257.060       13.593      235.746      166.627       93.401    55576.405    27764.655     8723.778       13.285        4.603      416.508      119.163        0.082      344.280       20.983      857.774
06/26/2014  18:14:00     -384.529     -148.794      -10.848      190.341      145.528       78.265    36229.527    21178.445     6125.482       11.682        3.177      412.313       84.365        0.042      344.363       21.125      857.814
06/26/2014  18:15:00     -335.771     -146.796       18.110      231.779      220.675       99.067    53721.317    48697.637     9814.363       12.341        5.612      366.458      116.020        0.100      344.374       21.145      857.847
06/26/2014  18:16:00     -237.307     -132.750        7.836      203.132      144.753       80.121    41262.462    20953.439     6419.411        7.131        3.432      271.914       79.870        0.086      344.268       20.964      857.875
06/26/2014  18:17:00     -286.145     -160.359       21.590      188.782      177.596       91.325    35638.762    31540.302     8340.291        9.178        3.776      328.016       84.595        0.067      344.317       21.046      857.904
06/26/2014  18:18:00     -489.612     -261.507       -0.597      256.741      204.767       99.095    65916.120    41929.711     9819.747       21.287        5.883      555.073      111.619        0.040      344.182       20.817      857.909
06/26/2014  18:19:00     -417.838     -197.041      -12.517      168.335      129.260       82.007    28336.749    16708.136     6725.106       13.266        2.588      461.967       86.648        0.035      344.164       20.785      857.942
06/26/2014  18:20:00     -134.313     -164.650        3.888      131.895      152.448       67.810    17396.422    23240.541     4598.135        4.519        2.262      212.485       63.524        0.089      344.326       21.064      857.961
06/26/2014  18:21:00     -261.724     -276.491      -19.199      177.070      175.378       84.506    31353.674    30757.276     7141.190       10.727        3.463      380.718       88.613        0.054      344.322       21.056      857.978
06/26/2014  18:22:00     -293.877     -118.046       -5.845      181.723      171.274       98.459    33023.284    29334.951     9694.145        8.618        3.603      316.700      115.400        0.133      344.296       21.011      858.001
06/26/2014  18:23:00     -266.971     -120.039      -15.719      187.252      132.238       60.902    35063.403    17486.893     3709.097        7.109        2.813      292.716       76.507        0.068      344.245       20.924      858.016
06/26/2014  18:24:00     -279.723     -121.900       -4.787      135.656      113.075       54.992    18402.461    12786.068     3024.163        6.366        1.711      305.130       61.203        0.040      344.358       21.116      858.035
06/26/2014  18:25:00     -248.497     -124.606        5.769      159.761      131.003       74.779    25523.702    17161.715     5591.911        6.279        2.414      277.988       86.777        0.097      344.269       20.966      858.023
06/26/2014  18:26:00     -322.541     -229.089        0.039      193.148      159.376       79.024    37306.321    25400.745     6244.864       11.272        3.448      395.619       86.814        0.048      344.287       20.994      858.053
06/26/2014  18:27:00     -460.200     -286.359      -22.718      263.755      222.346      122.346    69566.587    49437.584    14968.439       21.411        6.699      542.020      136.188        0.063      344.055       20.598      858.017
06/26/2014  18:28:00     -518.069     -359.751      -28.482      214.329      166.083      100.759    45936.818    27583.660    10152.437       24.114        4.184      630.727      103.767        0.027      344.069       20.623      858.062
06/26/2014  18:29:00     -356.109     -246.708      -14.857      196.073      180.085       76.113    38444.560    32430.739     5793.116       13.227        3.833      433.219       87.962        0.041      344.209       20.863      858.093
06/26/2014  18:30:00     -371.778     -102.843      -22.418      215.624      140.272       83.370    46493.503    19676.309     6950.614       11.120        3.656      385.740      107.200        0.077      344.161       20.780      858.109
06/26/2014  18:31:00     -405.525     -148.253       -8.089      184.839      142.096       87.097    34165.563    20191.345     7585.849       12.421        3.097      431.775       88.512        0.042      344.218       20.877      858.117
06/26/2014  18:32:00     -173.945     -147.463       -6.889      146.041      143.234       58.245    21328.062    20516.046     3392.442        4.864        2.262      228.040       75.724        0.110      344.357       21.116      858.146
06/26/2014  18:33:00     -235.459     -106.269        7.320      146.070      138.320       66.927    21336.537    19132.474     4479.277        5.586        2.247      258.329       71.616        0.077      344.297       21.014      858.148
06/26/2014  18:34:00     -285.714     -101.438        2.668      154.995      139.567       77.064    24023.506    19479.042     5938.928        7.068        2.472      303.186       76.680        0.064      344.314       21.041      858.145
06/26/2014  18:35:00     -256.235     -106.937       18.899      227.587      125.333       80.976    51795.640    15708.328     6557.070        7.574        3.703      277.655      100.615        0.131      344.321       21.053      858.201
06/26/2014  18:36:00     -300.663     -167.509       -5.163      194.897      156.350       83.660    37984.987    24445.408     6999.026        9.395        3.471      344.176       79.012        0.053      344.079       20.642      858.204
06/26/2014  18:37:00     -472.130     -332.073       -0.837      217.394      175.241      103.325    47260.042    30709.402    10676.076       21.090        4.432      577.217       94.251        0.027      344.036       20.566      858.191
06/26/2014  18:38:00     -408.086     -309.978      -15.330      224.169      158.988       96.404    50251.850    25277.153     9293.816       17.382        4.241      512.465      108.182        0.045      343.929       20.384      858.204
06/26/2014  18:39:00     -342.541     -259.444       -6.638      177.672      126.509       90.094    31567.245    16004.582     8116.956       12.018        2.784      429.704       85.663        0.040      344.065       20.615      858.276
06/26/2014  18:40:00     -330.812     -243.474       11.722      205.465      174.411       83.679    42215.940    30419.073     7002.176       12.423        3.982      410.751       98.180        0.057      344.149       20.759      858.289
06/26/2014  18:41:00     -272.639        5.555       10.921      186.311      176.319       72.889    34711.855    31088.493     5312.852        7.279        3.556      272.696       72.774        0.071      344.244       20.922      858.343
06/26/2014  18:42:00     -196.828     -166.923       -2.625      165.716      148.663       72.454    27461.716    22100.741     5249.544        6.070        2.741      258.079       63.076        0.060      344.122       20.713      858.328
06/26/2014  18:43:00     -414.370     -327.344      -13.739      164.008      143.706       84.773    26898.587    20651.293     7186.527       16.688        2.737      528.068       82.182        0.024      344.065       20.616      858.331
06/26/2014  18:44:00     -249.002     -196.609       15.177      180.755      137.879       89.814    32672.320    19010.611     8066.477        8.031        2.987      317.265       98.170        0.096      344.184       20.820      858.380
06/26/2014  18:45:00     -329.106      -40.860        3.208      196.640      143.495       83.622    38667.184    20590.769     6992.656        8.811        3.313      331.633       81.913        0.061      344.078       20.638      858.387
06/26/2014  18:46:00     -461.238     -267.310        0.445      243.034      203.323      116.832    59065.609    41340.065    13649.651       19.911        5.703      533.100      117.192        0.048      344.028       20.551      858.406
06/26/2014  18:47:00     -383.830     -340.606      -20.243      229.525      183.026       93.734    52681.566    33498.506     8786.149       17.934        4.748      513.164       94.110        0.034      343.933       20.391      858.350
06/26/2014  18:48:00     -542.863     -342.305       -4.785      264.497      201.407      117.361    69958.895    40564.891    13773.498       26.808        6.215      641.773      132.084        0.042      343.899       20.331      858.335
06/26/2014  18:49:00     -383.735     -223.372       -6.605      189.601      125.983       75.365    35948.720    15871.819     5679.886       12.734        2.875      444.013       85.755        0.037      343.908       20.348      858.311
06/26/2014  18:50:00     -225.134     -163.273       20.787      167.259       96.809       66.654    27975.438     9371.914     4442.771        5.978        2.090      278.107       73.761        0.070      344.105       20.684      858.303
06/26/2014  18:51:00     -256.077     -185.181       -4.290      156.408      130.660       78.062    24463.488    17072.022     6093.727        7.375        2.381      316.018       90.285        0.082      344.151       20.765      858.289
06/26/2014  18:52:00     -184.334      -25.850       19.388      155.771      108.124       65.904    24264.697    11690.838     4343.390        3.765        2.015      186.138       72.253        0.151      344.278       20.982      858.279
06/26/2014  18:53:00     -412.504     -168.491      -27.135      186.480      148.346       80.906    34774.619    22006.635     6545.717       13.130        3.166      445.588       78.417        0.031      344.107       20.689      858.278
06/26/2014  18:54:00     -549.563     -124.473       -9.549      237.303      173.880       98.540    56312.782    30234.126     9710.034       20.691        4.813      563.483      114.294        0.041      343.989       20.486      858.222
06/26/2014  18:55:00     -511.940     -136.500        0.712      172.011      189.179       97.207    29587.620    35788.570     9449.287       17.776        3.741      529.826      104.326        0.039      343.987       20.482      858.235
06/26/2014  18:56:00     -464.269     -315.584      -17.276      274.853      193.868      108.143    75544.151    37584.881    11694.843       22.011        6.241      561.373      119.753        0.046      343.939       20.400      858.240
06/26/2014  18:57:00     -558.721     -312.086      -26.844      214.824      202.577      114.635    46149.180    41037.293    13141.189       25.529        5.016      639.974      124.902        0.038      343.893       20.322      858.196
06/26/2014  18:58:00     -345.394      -78.487       -0.105      227.398      153.984       89.500    51709.862    23711.148     8010.259       10.443        4.172      354.200      107.035        0.091      343.936       20.396      858.211
06/26/2014  18:59:00     -310.424      -92.388        3.547      201.701      139.055       77.448    40683.430    19336.169     5998.228        8.545        3.301      323.880       92.831        0.082      344.013       20.528      858.210
06/26/2014  19:00:00     -373.999      -79.348      -18.622      166.795      122.190       68.525    27820.653    14930.396     4695.645        9.697        2.372      382.323       74.401        0.038      344.009       20.521      858.211
06/26/2014  19:01:00     -297.329     -148.868       38.735      237.668      192.116      100.846    56486.019    36908.535    10169.979       10.780        5.178      332.515      123.947        0.139      344.035       20.566      858.192
06/26/2014  19:02:00     -237.373     -191.103       10.484      142.430      121.185       73.273    20286.405    14685.845     5368.910        6.665        2.017      304.740       73.414        0.058      344.091       20.661      858.208
06/26/2014  19:03:00     -298.596     -243.635       18.695      219.532      163.517       96.895    48194.121    26737.971     9388.569       11.658        4.216      385.380      103.777        0.073      344.006       20.514      858.203
06/26/2014  19:04:00     -443.006     -285.606      -13.163      225.647      152.254       82.280    50916.373    23181.287     6770.058       17.942        4.043      527.091       93.665        0.032      343.868       20.280      858.221
06/26/2014  19:05:00     -223.300     -153.000       12.374      213.921      163.917       71.259    45762.203    26868.779     5077.808        7.555        3.885      270.688       70.134        0.067      343.954       20.426      858.221
06/26/2014  19:06:00     -323.542     -186.009       -3.237      183.943      132.935       76.884    33835.204    17671.710     5911.089        9.834        2.871      373.201       83.859        0.050      343.929       20.385      858.241
06/26/2014  19:07:00     -483.148     -188.157      -12.197      176.074      156.048       87.145    31002.127    24350.906     7594.306       16.595        3.147      518.493       79.903        0.024      343.869       20.282      858.250
06/26/2014  19:08:00     -136.117     -104.102       11.329      159.179      160.043       89.080    25338.061    25613.718     7935.320        4.418        2.944      171.362      100.331        0.343      343.955       20.430      858.231
06/26/2014  19:09:00     -202.209     -157.309       -3.888      138.387      104.362       69.615    19151.082    10891.498     4846.206        5.026        1.744      256.192       69.106        0.073      343.981       20.472      858.256
06/26/2014  19:10:00     -227.393     -211.586      -12.911      149.201      117.551       75.921    22261.087    13818.263     5764.017        6.924        2.092      310.606       79.300        0.065      343.925       20.377      858.280
06/26/2014  19:11:00     -210.096     -170.979        9.766      134.705      109.755       59.602    18145.349    12046.074     3552.381        5.360        1.687      270.877       64.321        0.056      344.026       20.551      858.271
06/26/2014  19:12:00     -401.581     -345.366        0.905      233.389      169.816       94.622    54470.390    28837.378     8953.317       18.639        4.613      529.665      105.024        0.039      343.851       20.249      858.251
06/26/2014  19:13:00     -384.886     -189.400       -9.008      171.519      152.847       82.410    29418.779    23362.269     6791.362       12.182        2.979      428.963      100.552        0.055      343.847       20.244      858.257
06/26/2014  19:14:00     -384.804     -225.653      -19.106      151.890      144.195       75.009    23070.436    20792.086     5626.388       12.442        2.474      446.087       72.680        0.027      343.783       20.134      858.302
06/26/2014  19:15:00     -355.573     -258.171       -7.147      226.061      193.640       92.073    51103.635    37496.476     8477.495       14.509        4.854      439.414      111.841        0.065      343.755       20.086      858.360
06/26/2014  19:16:00     -450.704     -303.751        8.176      211.207      159.288      103.620    44608.293    25372.679    10737.082       18.808        4.036      543.506      113.106        0.043      343.727       20.038      858.331
06/26/2014  19:17:00     -501.997     -150.588      -19.176      258.783      163.519       89.584    66968.483    26738.538     8025.276       18.837        5.087      524.097      110.326        0.044      343.637       19.885      858.376
06/26/2014  19:18:00     -520.123     -109.916      -23.327      156.425      137.240       85.482    24468.910    18834.913     7307.112       16.687        2.531      531.610       85.061        0.026      343.721       20.029      858.395
06/26/2014  19:19:00     -397.190     -132.015      -12.400      167.454      139.580       75.842    28040.816    19482.617     5752.048       11.430        2.664      418.555       78.079        0.035      343.699       19.991      858.434
06/26/2014  19:20:00     -158.709      -31.228       16.096      120.584      127.869       65.790    14540.442    16350.373     4328.340        3.082        1.761      161.752       69.587        0.185      343.825       20.207      858.421
06/26/2014  19:21:00     -272.527     -127.061      -14.513      107.321      111.361       57.322    11517.746    12401.358     3285.793        5.891        1.360      300.692       52.670        0.031      343.849       20.247      858.423
06/26/2014  19:22:00     -254.172      -55.461       -1.460      112.576      110.758       69.895    12673.287    12267.331     4885.311        4.875        1.491      260.152       66.123        0.065      343.828       20.211      858.419
06/26/2014  19:23:00     -336.025     -110.706       -3.055      238.737      123.275       73.806    56995.231    15196.789     5447.350       10.140        3.882      353.792       99.130        0.079      343.797       20.160      858.445
06/26/2014  19:24:00     -356.167     -276.566       14.045      242.556      181.956      110.683    58833.293    33108.001    12250.805       15.385        5.210      450.936      130.760        0.084      343.731       20.045      858.426
06/26/2014  19:25:00     -258.807     -124.389        6.894      201.189      145.337       76.729    40476.925    21122.982     5887.349        7.498        3.374      287.147       73.786        0.066      343.735       20.052      858.465
06/26/2014  19:26:00     -336.076     -173.527      -34.374      157.817      151.458       78.867    24906.237    22939.579     6220.003        9.914        2.703      378.231       79.919        0.045      343.605       19.829      858.472
06/26/2014  19:27:00     -365.718     -192.389      -15.724      185.598      123.816       69.591    34446.627    15330.288     4842.842       11.281        2.731      413.235       81.110        0.039      343.606       19.832      858.442
06/26/2014  19:28:00     -370.748      -26.947      -18.041      229.988      140.162       89.524    52894.589    19645.521     8014.536       10.952        4.028      371.726       92.953        0.063      343.623       19.863      858.465
06/26/2014  19:29:00     -263.905      -82.345       11.107      139.075      148.530       74.367    19341.788    22061.290     5530.420        6.173        2.347      276.453       81.478        0.087      343.672       19.945      858.488
06/26/2014  19:30:00     -324.118     -101.656       -9.973      213.685      113.201       75.520    45661.440    12814.543     5703.214        8.982        3.209      339.686       94.056        0.077      343.671       19.944      858.520
06/26/2014  19:31:00     -359.265     -121.319        5.831      226.790      166.938       84.791    51433.488    27868.459     7189.487       11.514        4.325      379.196      105.381        0.077      343.572       19.774      858.472
06/26/2014  19:32:00     -342.218     -107.302      -11.842      124.332      134.859       49.579    15458.322    18186.990     2458.123        8.243        1.805      358.646       48.169        0.018      343.557       19.749      858.476
06/26/2014  19:33:00     -324.399     -113.342      -10.887      156.958      120.040       58.855    24635.903    14409.626     3463.910        8.035        2.125      343.630       58.384        0.029      343.599       19.821      858.472
06/26/2014  19:34:00     -308.966      -94.025       -7.811      148.171      102.960       64.613    21954.504    10600.811     4174.824        7.054        1.837      322.956       65.551        0.041      343.503       19.657      858.466
06/26/2014  19:35:00     -174.429     -206.404       -1.709      140.974       98.336       63.948    19873.544     9670.042     4089.337        5.333        1.682      270.237       70.716        0.068      343.577       19.784      858.441
06/26/2014  19:36:00     -145.586      -63.957        6.258      140.279      102.842       52.404    19678.239    10576.514     2746.162        2.916        1.650      159.015       45.873        0.083      343.565       19.764      858.433
06/26/2014  19:37:00     -161.442     -104.617        1.400      147.604      144.714       52.336    21786.821    20942.021     2739.031        4.123        2.273      192.375       58.809        0.093      343.553       19.743      858.471
06/26/2014  19:38:00     -548.821     -323.668      -11.402      262.713      165.373       91.718    69018.075    27348.198     8412.263       25.542        5.239      637.154      113.110        0.032      343.421       19.517      858.475
06/26/2014  19:39:00     -507.443     -329.443      -22.240      210.389      150.391       87.696    44263.340    22617.336     7690.671       22.054        3.729      605.005       74.284        0.015      343.354       19.404      858.453
06/26/2014  19:40:00     -256.306     -111.977      -23.599      182.559      100.579       81.086    33327.952    10116.074     6574.983        6.440        2.501      279.699       87.675        0.098      343.435       19.542      858.510
06/26/2014  19:41:00     -339.664     -120.370      -19.269      243.233      173.128       92.131    59162.061    29973.149     8488.172       11.391        4.881      360.362      108.029        0.090      343.392       19.467      858.512
06/26/2014  19:42:00     -315.272     -254.507      -12.201      173.062      137.918       87.587    29950.565    19021.274     7671.517       11.047        2.832      405.179       77.374        0.036      343.399       19.479      858.559
06/26/2014  19:43:00     -306.248     -107.411        2.797      170.763      154.528       78.528    29159.873    23878.819     6166.599        8.226        2.960      324.539       82.385        0.064      343.358       19.410      858.562
06/26/2014  19:44:00     -299.597     -102.581        2.094      176.676      188.753       85.023    31214.381    35627.793     7228.989        8.717        3.704      316.672      102.141        0.104      343.365       19.423      858.582
06/26/2014  19:45:00     -409.612     -114.458       -9.777      187.599      198.778       77.448    35193.566    39512.709     5998.185       13.083        4.035      425.303       85.340        0.040      343.324       19.351      858.553
06/26/2014  19:46:00     -444.737      -75.202      -24.086      164.719      139.133       76.744    27132.359    19358.123     5889.686       12.819        2.619      451.050       90.979        0.041      343.321       19.347      858.563
06/26/2014  19:47:00     -436.026     -147.870      -19.345      157.015      153.526       75.604    24653.606    23570.088     5715.961       13.314        2.697      460.418       62.787        0.019      343.278       19.272      858.546
06/26/2014  19:48:00     -332.082      -78.005       -8.593      130.402      119.889       63.190    17004.728    14373.372     3992.973        7.590        1.769      341.121       68.429        0.040      343.317       19.340      858.541
06/26/2014  19:49:00     -338.127      -47.187      -14.239      123.286       83.415       52.519    15199.398     6958.071     2758.198        7.083        1.246      341.403       53.500        0.025      343.305       19.320      858.528
06/26/2014  19:50:00     -390.168       10.447      -45.204      131.169       83.850       50.436    17205.221     7030.905     2543.836        9.058        1.339      390.308       50.258        0.017      343.287       19.288      858.506
06/26/2014  19:51:00     -277.873      -23.459       -4.603      144.267      107.935       65.504    20812.839    11649.962     4290.819        5.726        1.838      278.861       68.286        0.060      343.329       19.360      858.522
06/26/2014  19:52:00     -269.414      -84.547       -0.121      239.651      129.228       82.686    57432.822    16699.917     6836.971        8.034        4.048      282.369      104.198        0.136      343.237       19.204      858.526
06/26/2014  19:53:00     -211.542     -136.305        0.825      103.152      105.164       67.345    10640.405    11059.457     4535.322        4.478        1.312      251.653       58.983        0.055      343.301       19.312      858.566
06/26/2014  19:54:00     -166.278      -67.115        7.723      109.595       69.338       64.717    12011.130     4807.697     4188.321        2.661        1.050      179.312       72.211        0.162      343.308       19.325      858.590
06/26/2014  19:55:00      -53.859        3.393       39.512      155.484       94.461       71.047    24175.131     8922.808     5047.687        2.130        1.907       53.966       60.435        1.254      343.336       19.374      858.562
06/26/2014  19:56:00     -286.144      -96.905       -7.763      192.184      156.311       63.900    36934.723    24433.175     4083.243        7.838        3.273      302.107       55.948        0.034      343.215       19.165      858.626
06/26/2014  19:57:00     -116.015      -92.918       -0.376      117.367       91.080       52.501    13775.080     8295.568     2756.391        2.346        1.241      148.638       50.278        0.114      343.260       19.244      858.644
06/26/2014  19:58:00        8.941       59.406       -9.838      104.748       50.631       36.335    10972.046     2563.519     1320.206        0.928        0.743       60.075       25.473        0.180      343.486       19.630      858.649
06/26/2014  19:59:00     -217.319      -28.307      -12.870      136.682      129.514       61.429    18681.991    16773.890     3773.551        4.371        1.961      219.154       54.190        0.061      343.245       19.218      858.734
06/26/2014  20:00:00     -336.425      102.683      -25.734      125.802      128.761       63.495    15826.264    16579.455     4031.589        8.041        1.822      351.747       60.328        0.029      343.091       18.954      858.706
06/26/2014  20:01:00     -211.126      -40.594      -14.223      126.770       80.387       42.399    16070.644     6462.046     1797.665        3.537        1.217      214.993       42.293        0.039      343.177       19.103      858.729
06/26/2014  20:02:00     -290.875     -170.856       -4.395      176.846      122.799       72.739    31274.586    15079.695     5291.006        8.272        2.582      337.343       77.230        0.052      343.166       19.082      858.770
06/26/2014  20:03:00     -241.566       41.943      -30.826      170.271      127.705       71.244    28992.145    16308.520     5075.757        5.571        2.519      245.181       51.583        0.044      343.089       18.951      858.784
06/26/2014  20:04:00     -147.291      -62.922       -1.280      131.939       83.489       46.376    17407.876     6970.469     2150.725        2.609        1.326      160.168       59.944        0.140      343.143       19.045      858.815
06/26/2014  20:05:00      -93.100      -18.843        7.086       54.383       48.228       27.977     2957.564     2325.982      782.713        0.757        0.303       94.988       23.380        0.061      343.135       19.034      858.777
06/26/2014  20:06:00     -100.363      -13.521       -9.151       57.681       25.300       22.691     3327.076      640.078      514.873        0.741        0.224      101.270       26.906        0.071      343.151       19.063      858.805
06/26/2014  20:07:00     -175.253      -34.380      -11.977      148.504      101.431       47.441    22053.458    10288.213     2250.682        3.331        1.730      178.594       54.358        0.093      343.138       19.036      858.807
06/26/2014  20:08:00      -28.030      -58.993       25.935       99.850      106.677       49.711     9970.081    11379.969     2471.225        1.438        1.191       65.314       44.397        0.462      343.156       19.069      858.812
06/26/2014  20:09:00     -147.837     -146.521       -8.441      131.352      122.307       78.755    17253.352    14958.948     6202.297        4.090        1.921      208.145       71.620        0.118      343.105       18.980      858.896
06/26/2014  20:10:00     -184.973      -78.196       -2.486      125.241      100.503       62.539    15685.257    10100.792     3911.180        3.501        1.485      200.822       69.166        0.119      343.067       18.915      858.851
06/26/2014  20:11:00     -178.786        9.279       -6.639       66.888       73.937       34.435     4473.958     5466.703     1185.760        2.161        0.556      179.027       26.501        0.022      343.087       18.948      858.868
06/26/2014  20:12:00     -110.623       89.443      -11.706       97.694      107.752       35.071     9544.215    11610.472     1229.971        2.138        1.119      142.258       30.547        0.046      343.059       18.903      858.923
06/26/2014  20:13:00     -134.051       58.907      -17.901       85.396      152.343       47.204     7292.464    23208.326     2228.225        2.724        1.636      146.423       43.434        0.088      343.020       18.835      858.909
06/26/2014  20:14:00     -127.898      -46.809       -9.890       75.882       89.548       40.860     5758.059     8018.890     1669.574        1.704        0.772      136.194       43.444        0.102      343.047       18.882      858.956
06/26/2014  20:15:00     -155.220       -3.926      -30.957       83.810       51.364       48.288     7024.198     2638.219     2331.690        1.853        0.600      155.270       29.719        0.037      343.047       18.884      858.988
06/26/2014  20:16:00     -144.764      -48.023      -13.399      112.448       72.637       52.102    12644.659     5276.196     2714.629        2.204        1.032      152.521       47.691        0.098      343.002       18.805      859.014
06/26/2014  20:17:00       13.024       23.057        5.936       25.932       44.301       23.960      672.471     1962.571      574.097        0.197        0.160       26.481       21.143        0.637      343.035       18.863      859.013
06/26/2014  20:18:00       19.743       28.324       -7.875       26.897       32.061       25.430      723.461     1027.900      646.682        0.183        0.120       34.526       14.846        0.185      343.032       18.855      859.030
06/26/2014  20:19:00      -91.525      127.837      -27.210       68.773       65.777       36.227     4729.748     4326.549     1312.407        1.791        0.518      157.223       36.107        0.053      342.980       18.768      859.073
06/26/2014  20:20:00      -30.447       71.172      -12.115       43.959       56.134       26.684     1932.423     3151.032      712.052        0.597        0.290       77.411       21.838        0.080      343.003       18.809      859.104
06/26/2014  20:21:00       35.674       80.496      -11.452       57.510       42.018       24.861     3307.351     1765.546      618.051        0.679        0.285       88.047       32.212        0.134      342.992       18.790      859.123
06/26/2014  20:22:00      -19.639       77.993        3.478       46.641       66.933       32.937     2175.346     4480.079     1084.815        0.711        0.387       80.428       31.705        0.155      342.965       18.743      859.119
06/26/2014  20:23:00      -53.291       71.127      -11.458       82.774       35.963       38.467     6851.571     1293.326     1479.692        0.883        0.481       88.876       30.284        0.116      342.916       18.660      859.132
06/26/2014  20:24:00       -2.397       63.406      -15.182       27.404       42.769       19.442      750.985     1829.225      378.002        0.361        0.148       63.451       18.118        0.082      342.934       18.693      859.143
06/26/2014  20:25:00      -25.510       84.902       -7.594       38.924       60.579       36.567     1515.098     3669.832     1337.162        0.722        0.326       88.652       36.907        0.173      342.938       18.698      859.149
06/26/2014  20:26:00      -70.207       86.298      -10.175       49.749      100.370       37.837     2474.945    10074.181     1431.605        1.323        0.699      111.249       34.366        0.095      342.937       18.693      859.160
06/26/2014  20:27:00       92.164      101.489       25.417       84.889       49.641       36.005     7206.128     2464.246     1296.374        1.520        0.548      137.092       29.537        0.046      342.831       18.514      859.119
06/26/2014  20:28:00      -42.620      119.428       -5.815       98.339       73.935       42.029     9670.613     5466.431     1766.451        1.651        0.845      126.805       42.163        0.111      342.860       18.564      859.134
06/26/2014  20:29:00       -2.620      200.375      -34.067       45.961       55.150       27.278     2112.380     3041.573      744.098        2.361        0.295      200.392       28.414        0.020      342.888       18.609      859.198
06/26/2014  20:30:00     -162.208       80.770      -32.306      115.162       92.525       55.024    13262.178     8560.793     3027.606        2.936        1.243      181.205       48.422        0.071      342.854       18.553      859.214
06/26/2014  20:31:00     -189.565     -140.386        3.676      161.276      120.863       79.459    26010.014    14607.895     6313.799        5.129        2.347      235.887       83.014        0.124      342.884       18.603      859.231
06/26/2014  20:32:00      -55.300        4.584        3.407       77.829       77.475       61.077     6057.378     6002.438     3730.439        0.944        0.790       55.490       36.938        0.443      342.928       18.681      859.306
06/26/2014  20:33:00      -13.117       58.946       29.115       79.936       54.413       38.879     6389.757     2960.739     1511.563        0.768        0.543       60.388       23.794        0.155      342.857       18.561      859.354
06/26/2014  20:34:00      -37.325      211.281       -3.556       65.946      123.043       55.571     4348.896    15139.521     3088.187        3.431        1.129      214.553       50.960        0.056      342.792       18.448      859.374
06/26/2014  20:35:00      -19.079      146.725      -43.230      113.169      123.397       44.296    12807.140    15226.889     1962.129        2.687        1.500      147.960       38.340        0.067      342.740       18.357      859.333
06/26/2014  20:36:00     -218.491      -37.362      -19.096       94.878       82.877       31.223     9001.748     6868.548      974.888        3.317        0.842      221.663       27.343        0.015      342.880       18.598      859.333
06/26/2014  20:37:00     -204.844      -17.345      -25.667       53.302       60.947       29.772     2841.127     3714.498      886.362        2.518        0.372      205.577       29.618        0.021      342.809       18.475      859.368
06/26/2014  20:38:00      -77.756       23.107       -4.453       60.342       44.578       28.135     3641.121     1987.202      791.595        0.651        0.321       81.116       26.872        0.110      342.784       18.434      859.378
06/26/2014  20:39:00      -18.368        0.003        1.967       42.779       28.762       28.424     1830.062      827.259      807.930        0.190        0.173       18.368       28.225        2.361      342.748       18.375      859.355
06/26/2014  20:40:00      -43.598       96.779      -20.737       46.950      104.215       26.434     2204.281    10860.685      698.748        1.273        0.688      106.146       34.901        0.108      342.802       18.467      859.357
06/26/2014  20:41:00     -128.871      122.552      -24.326      105.323       72.655       54.594    11092.962     5278.706     2980.536        2.578        0.968      177.839       57.594        0.105      342.745       18.367      859.369
06/26/2014  20:42:00     -101.702       33.522       23.441      106.112       66.292       56.448    11259.756     4394.688     3186.376        1.543        0.942      107.085       58.561        0.299      342.721       18.325      859.376
06/26/2014  20:43:00     -186.102       83.145      -26.373       81.061      101.162       48.568     6570.931    10233.751     2358.823        3.070        0.958      203.831       55.430        0.074      342.676       18.250      859.391
06/26/2014  20:44:00     -132.335       11.962        1.082      121.107       90.904       48.099    14666.920     8263.557     2313.477        2.145        1.262      132.874       56.541        0.181      342.679       18.255      859.399
06/26/2014  20:45:00     -213.581      -60.524       -7.149      116.215      122.492       47.455    13505.895    15004.222     2251.956        4.004        1.538      221.991       60.245        0.074      342.638       18.184      859.399
06/26/2014  20:46:00     -147.572       43.829      -21.034      123.535       60.339       30.558    15260.872     3640.776      933.812        2.198        0.992      153.943       43.280        0.079      342.639       18.189      859.404
06/26/2014  20:47:00      -82.514      -38.073       11.295      111.121       65.173       41.304    12347.789     4247.469     1706.021        1.334        0.915       90.874       57.339        0.398      342.705       18.301      859.428
06/26/2014  20:48:00     -206.566     -166.317        0.340      116.232       87.970       57.565    13509.984     7738.738     3313.709        4.744        1.228      265.199       50.037        0.036      342.639       18.187      859.406
06/26/2014  20:49:00     -134.078      -91.256       12.586      104.615      120.702       60.905    10944.297    14568.994     3709.455        2.784        1.461      162.186       60.314        0.138      342.671       18.241      859.400
06/26/2014  20:50:00     -189.654       63.490       -8.265       89.293       63.060       42.776     7973.239     3976.516     1829.762        2.692        0.689      199.999       40.771        0.042      342.656       18.215      859.478
06/26/2014  20:51:00      -91.409       72.117      -10.907       88.100       66.121       30.589     7761.650     4371.933      935.692        1.337        0.653      116.433       24.545        0.044      342.633       18.178      859.445
06/26/2014  20:52:00      -93.471       83.815       -9.901       67.625       69.106       35.898     4573.150     4775.639     1288.676        1.325        0.532      125.546       22.693        0.033      342.585       18.097      859.467
06/26/2014  20:53:00      -69.378      129.744       -5.699       46.656       73.207       40.281     2176.808     5359.271     1622.598        1.542        0.458      147.128       39.357        0.072      342.548       18.034      859.485
06/26/2014  20:54:00     -137.103      -11.896       -3.397       87.085       61.514       43.637     7583.883     3783.986     1904.183        1.611        0.664      137.618       39.285        0.081      342.627       18.167      859.519
06/26/2014  20:55:00       11.913      -29.901       22.010       65.078      107.738       31.116     4235.136    11607.525      968.234        0.916        0.841       32.186       34.385        1.141      342.583       18.093      859.526
06/26/2014  20:56:00      -45.631       26.720       10.769       70.949       64.709       37.073     5033.697     4187.287     1374.418        0.675        0.530       52.879       39.020        0.545      342.590       18.107      859.539
06/26/2014  20:57:00     -102.375       17.827       -5.681       55.278      101.652       40.072     3055.680    10333.088     1605.799        1.291        0.750      103.916       28.560        0.076      342.558       18.050      859.565
06/26/2014  20:58:00     -135.114      -52.475        4.441       90.109       67.633       35.012     8119.705     4574.205     1225.850        1.747        0.696      144.946       36.004        0.062      342.577       18.083      859.577
06/26/2014  20:59:00     -259.038      -22.491       -5.986      114.038      108.099       43.564    13004.751    11685.497     1897.791        4.711        1.329      260.013       55.089        0.045      342.530       18.003      859.551
06/26/2014  21:00:00     -141.045       36.315        5.292       98.552      114.622       55.947     9712.464    13138.189     3130.048        2.361        1.299      145.645       53.333        0.134      342.536       18.012      859.546
06/26/2014  21:01:00     -162.682       -1.790       10.013       96.022       90.812       51.885     9220.172     8246.787     2692.093        2.336        1.008      162.691       50.592        0.097      342.518       17.981      859.549
06/26/2014  21:02:00     -241.234       39.341      -22.614      143.004       76.654       43.606    20450.139     5875.908     1901.521        4.424        1.411      244.421       41.504        0.029      342.512       17.973      859.554
06/26/2014  21:03:00      -40.041      -38.912       13.106       29.589       53.909       27.498      875.493     2906.176      756.118        0.391        0.227       55.834       21.252        0.145      342.538       18.016      859.531
06/26/2014  21:04:00     -143.867       25.409      -10.846      137.836       70.640       41.823    18998.640     4989.957     1749.166        2.360        1.287      146.094       53.960        0.136      342.537       18.015      859.556
06/26/2014  21:05:00     -148.324       -7.001       -7.485      105.426       72.137       39.287    11114.698     5203.710     1543.461        1.998        0.893      148.489       48.342        0.106      342.494       17.943      859.585
06/26/2014  21:06:00     -143.316       13.532        4.835      111.066      109.014       58.747    12335.734    11883.961     3451.263        2.420        1.384      143.954       58.137        0.163      342.461       17.886      859.529
06/26/2014  21:07:00     -105.686      -94.288       -0.797       76.253       68.675       38.653     5814.569     4716.238     1494.093        1.604        0.601      141.633       37.086        0.069      342.461       17.886      859.507
06/26/2014  21:08:00     -133.341      -27.730        8.435       83.565       73.161       43.618     6983.097     5352.543     1902.510        1.643        0.712      136.194       39.851        0.086      342.455       17.875      859.521
06/26/2014  21:09:00      -50.827      -32.282       17.868       81.840       75.928       36.717     6697.795     5765.035     1348.153        0.888        0.691       60.212       42.609        0.501      342.433       17.839      859.518
06/26/2014  21:10:00       12.470      -26.157       23.647       39.752       75.598       35.532     1580.238     5715.131     1262.529        0.498        0.428       28.977       33.446        1.332      342.440       17.849      859.561
06/26/2014  21:11:00      -23.426      -69.115        8.626       62.119       84.104       30.591     3858.725     7073.517      935.824        0.863        0.593       72.977       30.958        0.180      342.443       17.856      859.575
06/26/2014  21:12:00      -80.606       33.809       -4.682       58.272       32.097       24.565     3395.680     1030.219      603.453        0.634        0.251       87.409       22.929        0.069      342.432       17.836      859.600
06/26/2014  21:13:00      -33.973      100.546        7.945       41.061       66.386       31.656     1686.030     4407.083     1002.076        0.921        0.355      106.130       34.637        0.107      342.371       17.734      859.635
06/26/2014  21:14:00     -129.128       67.006        1.707       96.120       53.487       39.899     9238.980     2860.811     1591.905        1.743        0.685      145.478       44.866        0.095      342.363       17.719      859.647
06/26/2014  21:15:00     -135.295       46.508      -10.713       65.827       71.230       32.243     4333.253     5073.734     1039.602        1.551        0.522      143.065       26.866        0.035      342.385       17.757      859.643
06/26/2014  21:16:00      -99.352      -20.987      -12.880       64.929       58.708       26.887     4215.833     3446.661      722.937        0.943        0.419      101.544       13.757        0.018      342.400       17.785      859.637
06/26/2014  21:17:00     -132.115      -19.349      -14.756       43.118       45.476       21.630     1859.191     2068.093      467.878        1.122        0.220      133.524       18.675        0.020      342.421       17.821      859.664
06/26/2014  21:18:00     -153.936      111.925       -9.235       78.308      102.390       35.196     6132.200    10483.664     1238.780        2.708        0.893      190.325       33.710        0.031      342.386       17.757      859.690
06/26/2014  21:19:00      -33.957      205.277       16.032       64.600       93.580       60.998     4173.211     8757.149     3720.792        3.010        0.833      208.067       64.255        0.095      342.352       17.699      859.630
06/26/2014  21:20:00       48.865       76.045       -6.273       76.178       57.345       32.131     5803.038     3288.499     1032.386        0.917        0.506       90.391       31.336        0.120      342.408       17.798      859.613
06/26/2014  21:21:00      -80.247       -1.775      -13.186       26.030       33.956       18.651      677.569     1153.018      347.864        0.440        0.109       80.267       11.714        0.021      342.446       17.862      859.623
06/26/2014  21:22:00     -112.934       97.325      -22.632       45.390       89.991       31.974     2060.256     8098.389     1022.309        1.696        0.559      149.084       35.066        0.055      342.365       17.723      859.637
06/26/2014  21:23:00      -77.047       79.938      -14.560       36.807       60.571       31.350     1354.724     3668.881      982.843        0.927        0.300      111.024       28.699        0.067      342.397       17.777      859.640
06/26/2014  21:24:00      -35.693       13.331        8.182       35.860       16.306       18.793     1285.937      265.899      353.179        0.171        0.095       38.102       15.846        0.173      342.373       17.739      859.643
06/26/2014  21:25:00     -134.015        6.966      -19.825       36.918       36.983       24.681     1362.961     1367.775      609.146        1.087        0.167      134.196       20.906        0.024      342.379       17.747      859.673
06/26/2014  21:26:00     -119.412       24.714       -8.708       38.105       49.254       31.048     1451.974     2425.938      963.953        0.989        0.242      121.942       20.486        0.028      342.339       17.679      859.699
06/26/2014  21:27:00     -147.591      -58.160       -9.445       47.931       46.871       31.618     2297.380     2196.876      999.695        1.537        0.275      158.637       17.008        0.011      342.364       17.720      859.719
06/26/2014  21:28:00     -124.711       -2.909      -15.779       37.209       22.975       18.899     1384.475      527.854      357.183        0.904        0.113      124.745        8.978        0.005      342.368       17.729      859.744
06/26/2014  21:29:00     -102.128       48.569      -20.305       43.891       63.288       21.354     1926.459     4005.366      456.007        0.979        0.319      113.089       28.906        0.065      342.375       17.740      859.749
06/26/2014  21:30:00      -62.188       49.953       -2.000       53.424       87.438       28.643     2854.082     7645.375      820.417        0.884        0.566       79.766       25.061        0.099      342.378       17.744      859.771
06/26/2014  21:31:00     -202.280      -54.997       -6.068      127.073       62.361       40.557    16147.493     3888.935     1644.847        3.283        1.084      209.623       41.149        0.039      342.355       17.704      859.767
06/26/2014  21:32:00     -244.321      -72.031        6.504      130.975       88.386       55.686    17154.357     7812.038     3100.976        4.649        1.403      254.718       61.002        0.057      342.276       17.569      859.767
06/26/2014  21:33:00     -246.206        8.639      -17.167       98.309       81.978       44.937     9664.586     6720.344     2019.302        3.969        0.920      246.357       35.141        0.020      342.316       17.637      859.778
06/26/2014  21:34:00     -157.793      -53.914      -11.665       89.325       59.377       45.699     7978.964     3525.657     2088.394        2.076        0.680      166.750       51.435        0.095      342.284       17.585      859.778
06/26/2014  21:35:00      -75.184      -66.221       28.948      121.794       77.674       55.534    14833.898     6033.285     3084.055        1.741        1.198      100.189       70.142        0.490      342.256       17.536      859.780
06/26/2014  21:36:00     -144.196      -42.572        5.265       93.929       62.219       37.776     8822.654     3871.239     1427.044        1.837        0.706      150.349       30.622        0.041      342.256       17.539      859.761
06/26/2014  21:37:00      -49.878      -13.272       19.685       67.294       83.202       55.506     4528.542     6922.501     3080.889        0.879        0.727       51.613       39.093        0.574      342.198       17.439      859.751
06/26/2014  21:38:00     -218.580      -66.804       -3.806      143.807      101.746       52.857    20680.361    10352.283     2793.907        4.303        1.691      228.561       61.575        0.073      342.261       17.543      859.782
06/26/2014  21:39:00     -290.915      -70.156      -25.935      130.648       93.201       52.747    17068.892     8686.516     2782.290        5.938        1.427      299.255       59.698        0.040      342.258       17.538      859.831
06/26/2014  21:40:00     -156.148      -97.622        5.970      120.437       75.934       50.843    14505.188     5765.948     2585.059        2.840        1.143      184.153       60.475        0.108      342.228       17.488      859.847
06/26/2014  21:41:00     -223.165      -99.753        1.265      113.194       83.113       44.816    12812.829     6907.767     2008.474        4.074        1.086      244.445       52.799        0.047      342.247       17.519      859.879
06/26/2014  21:42:00     -342.353     -199.141       -5.840      149.366      151.968       85.894    22310.190    23094.176     7377.859       10.483        2.639      396.060       89.823        0.051      342.201       17.441      859.865
06/26/2014  21:43:00     -278.497      -50.644      -31.401      119.931      132.271       63.534    14383.336    17495.666     4036.608        5.851        1.796      283.064       50.449        0.032      342.196       17.433      859.872
06/26/2014  21:44:00     -265.043     -139.966        0.820      118.328      121.106       61.192    14001.470    14666.566     3744.499        6.112        1.621      299.730       58.811        0.038      342.225       17.482      859.886
06/26/2014  21:45:00     -193.984      -59.706        1.175      108.602      113.548       52.564    11794.392    12893.220     2762.987        3.432        1.373      202.965       62.398        0.095      342.192       17.426      859.870
06/26/2014  21:46:00     -175.281      -48.370       -3.009      126.040      109.361       50.004    15886.030    11959.902     2500.384        3.170        1.517      181.832       56.126        0.095      342.158       17.371      859.868
06/26/2014  21:47:00     -127.079      -22.986        9.180       79.528       67.201       39.010     6324.629     4516.038     1521.776        1.456        0.618      129.141       47.863        0.137      342.189       17.424      859.838
06/26/2014  21:48:00     -203.835        9.045      -14.724      111.831       58.198       44.420    12506.223     3386.989     1973.120        2.985        0.893      204.035       47.162        0.053      342.165       17.381      859.877
06/26/2014  21:49:00     -142.112       -0.721        0.478      123.612       97.991       52.021    15279.874     9602.229     2706.179        2.389        1.379      142.114       46.560        0.107      342.147       17.352      859.889
06/26/2014  21:50:00     -197.515      -70.942        2.079      120.750       98.776       49.909    14580.485     9756.767     2490.868        3.543        1.341      209.869       41.132        0.038      342.191       17.426      859.909
06/26/2014  21:51:00     -329.515      -84.594      -13.612      124.262      105.189       52.225    15441.039    11064.636     2727.435        7.257        1.462      340.200       51.251        0.023      342.130       17.322      859.935
06/26/2014  21:52:00     -134.326      -89.016       -0.467      109.110      174.749       58.246    11905.003    30537.120     3392.650        3.589        2.292      161.144       78.764        0.239      342.107       17.283      859.944
06/26/2014  21:53:00     -256.461     -130.031       14.808       99.518      101.168       57.970     9903.830    10234.996     3360.541        5.320        1.175      287.542       58.125        0.041      342.122       17.306      859.911
06/26/2014  21:54:00     -308.563     -193.157      -15.273      157.921      140.835       74.394    24939.117    19834.624     5534.476        9.152        2.515      364.034       91.507        0.063      342.114       17.295      859.926
06/26/2014  21:55:00     -344.934     -147.645      -25.942      114.132       87.759       58.453    13026.150     7701.615     3416.803        8.279        1.207      375.205       55.411        0.022      342.108       17.284      859.916
06/26/2014  21:56:00     -231.639     -104.113      -15.887      103.856       85.248       48.844    10786.084     7267.137     2385.689        4.259        1.022      253.961       47.527        0.035      342.100       17.271      859.898
06/26/2014  21:57:00     -194.667      -42.744       -4.635       94.034       81.862       52.843     8842.361     6701.450     2792.372        2.904        0.917      199.304       41.256        0.043      342.121       17.306      859.905
06/26/2014  21:58:00     -129.599      -56.785        8.694      105.009       86.417       51.027    11026.919     7467.983     2603.709        2.059        1.055      141.494       56.665        0.160      342.094       17.261      859.899
06/26/2014  21:59:00     -199.397     -117.479       -3.494      148.416      102.612       55.757    22027.280    10529.305     3108.863        4.461        1.783      231.431       73.349        0.100      342.079       17.236      859.942
06/26/2014  22:00:00     -152.369      -58.607        3.623       66.412       66.283       36.876     4410.496     4393.469     1359.870        1.841        0.508      163.252       33.362        0.042      342.108       17.285      859.972
06/26/2014  22:01:00     -179.608      -44.004      -14.105       93.594       82.703       42.173     8759.869     6839.781     1778.599        2.588        0.869      184.920       47.464        0.066      342.142       17.343      859.993
06/26/2014  22:02:00     -260.419      -10.318       -0.779      152.587      109.844       70.198    23282.894    12065.732     4927.732        5.409        2.014      260.623       75.772        0.085      342.102       17.273      860.003
06/26/2014  22:03:00     -430.586       -7.861      -28.439      161.384      154.363       75.070    26044.686    23828.009     5635.432       12.088        2.775      430.658       89.692        0.043      342.073       17.223      860.000
06/26/2014  22:04:00     -228.522       -3.179       -2.217      160.017      143.423       61.032    25605.367    20570.026     3724.934        5.106        2.495      228.544       70.187        0.094      342.062       17.205      860.005
06/26/2014  22:05:00     -317.015        3.124      -11.678      149.265      102.452       56.929    22280.130    10496.428     3240.883        6.833        1.801      317.031       69.626        0.048      342.052       17.189      860.016
06/26/2014  22:06:00     -391.581      -14.218      -14.809      178.849      142.396       75.532    31987.053    20276.508     5705.149       10.585        2.898      391.839       78.914        0.041      342.015       17.126      859.988
06/26/2014  22:07:00     -278.749       20.482      -18.741      182.880      122.047       52.279    33445.132    14895.425     2733.067        6.476        2.554      279.500       65.559        0.055      342.035       17.161      859.994
06/26/2014  22:08:00     -324.345      -56.359       -7.818      130.092      113.356       66.092    16923.826    12849.692     4368.131        7.128        1.707      329.205       66.335        0.041      342.032       17.155      859.992
06/26/2014  22:09:00     -412.339        7.296      -23.845      141.301      143.384       78.465    19966.025    20559.064     6156.784       10.866        2.334      412.404       79.788        0.037      342.040       17.170      859.959
06/26/2014  22:10:00     -416.013      -10.630      -29.093      147.788      122.403       71.167    21841.193    14982.581     5064.747       10.795        2.094      416.149       78.159        0.035      342.025       17.143      859.963
06/26/2014  22:11:00     -306.090      -31.119      -23.519      153.950      102.442       57.326    23700.746    10494.373     3286.252        6.634        1.874      307.668       73.109        0.056      342.009       17.115      859.987
06/26/2014  22:12:00     -281.224      -79.509      -16.918      107.122       96.842       49.566    11475.184     9378.290     2456.823        5.450        1.166      292.248       42.824        0.021      342.000       17.099      859.994
06/26/2014  22:13:00     -312.039      -73.287       -9.460      119.887      125.181       57.555    14372.847    15670.202     3312.590        6.809        1.668      320.530       58.600        0.033      342.003       17.105      859.995
06/26/2014  22:14:00     -277.705       -3.970      -20.165      115.900      113.852       62.366    13432.833    12962.344     3889.509        5.391        1.514      277.734       61.156        0.048      342.019       17.133      860.016
06/26/2014  22:15:00     -458.627       56.466      -49.926      173.161      123.284       63.375    29984.734    15198.955     4016.446       13.260        2.460      462.090       58.474        0.016      342.009       17.116      860.022
06/26/2014  22:16:00     -450.814       -4.080      -36.223      187.144      114.194       67.787    35022.769    13040.213     4595.102       12.860        2.633      450.832       86.144        0.037      341.991       17.084      859.991
06/26/2014  22:17:00     -317.339      -63.746      -33.136      130.265       86.828       52.333    16968.886     7539.016     2738.753        6.655        1.362      323.678       62.942        0.038      341.978       17.063      859.991
06/26/2014  22:18:00     -286.794      -78.902      -27.619       98.483      100.078       48.097     9698.828    10015.601     2313.349        5.563        1.101      297.450       43.443        0.021      342.005       17.107      859.958
06/26/2014  22:19:00     -286.431      -94.048      -14.050       71.012       71.379       41.607     5042.680     5094.907     1731.147        5.147        0.593      301.476       39.861        0.017      341.954       17.022      859.959
06/26/2014  22:20:00     -310.553      -52.562       -7.512      123.747      103.761       53.493    15313.349    10766.287     2861.528        6.410        1.447      314.970       60.165        0.036      341.938       16.995      859.975
06/26/2014  22:21:00     -418.631      -42.721      -27.332      176.871      164.350       60.425    31283.491    27010.943     3651.127       11.987        3.097      420.805       68.708        0.027      341.954       17.023      859.962
06/26/2014  22:22:00     -404.110      -95.011       -1.304      216.105      132.336       88.047    46701.302    17512.847     7752.327       12.214        3.598      415.129       94.026        0.051      341.901       16.933      859.939
06/26/2014  22:23:00     -426.318     -134.771      -15.450      147.970      119.180       66.682    21895.253    14203.969     4446.542       12.034        2.027      447.113       77.327        0.030      341.877       16.893      859.949
06/26/2014  22:24:00     -333.083      -76.867       -5.601      156.200      101.113       56.154    24398.515    10223.911     3153.291        7.732        1.889      341.837       71.830        0.044      341.873       16.884      859.982
06/26/2014  22:25:00     -352.341     -123.046       -6.137      109.812       71.639       46.995    12058.652     5132.151     2208.493        7.936        0.970      373.209       39.023        0.011      341.856       16.855      860.006
06/26/2014  22:26:00     -370.944     -123.103      -14.383      118.190       89.369       49.140    13968.934     7986.850     2414.751        8.866        1.219      390.837       45.814        0.014      341.851       16.847      860.056
06/26/2014  22:27:00     -388.567      -69.375      -19.267      131.387      119.042       65.477    17262.561    14171.049     4287.300        9.594        1.786      394.711       66.345        0.028      341.894       16.918      860.104
06/26/2014  22:28:00     -418.022     -121.395      -14.790      151.059      162.701       72.894    22818.684    26471.670     5313.526       12.214        2.730      435.292       75.089        0.030      341.885       16.902      860.109
06/26/2014  22:29:00     -288.430      -41.756      -36.019      113.986       99.956       51.702    12992.866     9991.298     2673.140        5.594        1.283      291.437       56.323        0.037      341.905       16.939      860.133
06/26/2014  22:30:00     -278.581      -47.307      -11.093      113.767       89.780       62.247    12943.008     8060.436     3874.645        5.242        1.244      282.569       54.498        0.037      341.870       16.879      860.118
06/26/2014  22:31:00     -207.142      -90.002      -17.393       86.955       67.560       44.609     7561.226     4564.331     1989.998        3.271        0.706      225.850       42.142        0.035      341.866       16.872      860.077
06/26/2014  22:32:00     -250.800      -59.915      -25.402       87.645       84.765       48.648     7681.646     7185.062     2366.596        4.218        0.862      257.857       41.413        0.026      341.836       16.822      860.054
06/26/2014  22:33:00     -349.395      -53.386      -24.641      173.758      135.844       68.623    30191.939    18453.514     4709.178        8.944        2.668      353.450       80.899        0.052      341.846       16.838      860.045
06/26/2014  22:34:00     -507.132      -61.667      -39.137      196.456      152.835       77.939    38594.771    23358.507     6074.544       16.526        3.401      510.868       83.066        0.026      341.857       16.857      859.996
06/26/2014  22:35:00     -380.843      -42.249      -40.099      119.451      114.216       67.175    14268.605    13045.260     4512.422        9.012        1.591      383.179       62.175        0.026      341.866       16.873      859.982
06/26/2014  22:36:00     -287.213      -97.038      -20.734      134.608       87.495       63.295    18119.322     7655.337     4006.204        6.105        1.489      303.163       58.809        0.038      341.836       16.821      859.946
06/26/2014  22:37:00     -354.199      -86.760      -34.129      110.796      119.806       70.997    12275.824    14353.523     5040.629        8.290        1.583      364.670       72.624        0.040      341.804       16.767      859.914
06/26/2014  22:38:00     -290.704     -110.565      -13.057      125.255      114.256       64.192    15688.861    13054.426     4120.642        6.488        1.643      311.020       58.335        0.035      341.790       16.744      859.877
06/26/2014  22:39:00     -429.277      -51.411      -25.934      140.272      108.855       73.063    19676.227    11849.390     5338.188       11.222        1.843      432.345       68.997        0.025      341.784       16.733      859.883
06/26/2014  22:40:00     -355.396     -121.168       -5.740      151.443      143.485       66.111    22934.883    20587.952     4370.614        9.445        2.395      375.483       65.430        0.030      341.739       16.657      859.862
06/26/2014  22:41:00     -293.451      -90.505       -3.346      190.784      126.626       79.988    36398.512    16034.190     6398.021        7.656        2.942      307.090      100.159        0.106      341.740       16.659      859.884
06/26/2014  22:42:00     -347.226      -41.810      -21.371      122.036       83.273       61.367    14892.742     6934.379     3765.905        7.418        1.280      349.734       59.066        0.029      341.740       16.657      859.938
06/26/2014  22:43:00     -344.968      -80.027       -5.280      152.349      115.287       73.424    23210.368    13291.007     5391.092        8.366        2.095      354.128       75.790        0.046      341.724       16.631      859.965
06/26/2014  22:44:00     -431.982      -58.109      -31.939      172.122      140.899       71.403    29625.966    19852.401     5098.452       12.278        2.729      435.872       81.831        0.035      341.808       16.773      859.968
06/26/2014  22:45:00     -438.183      -55.431      -33.204      142.089      122.743       70.759    20189.200    15065.852     5006.796       11.821        2.013      441.675       68.275        0.024      341.785       16.734      860.002
06/26/2014  22:46:00     -311.509     -137.436      -25.177      154.800      125.667       69.473    23962.931    15792.210     4826.511        8.056        2.229      340.479       65.869        0.037      341.782       16.730      859.980
06/26/2014  22:47:00     -422.317     -112.560      -21.972      159.087      133.677       71.327    25308.698    17869.426     5087.572       11.988        2.413      437.060       72.961        0.028      341.787       16.740      859.952
06/26/2014  22:48:00     -310.546      -10.938       -6.161      171.060      118.283       73.431    29261.629    13990.922     5392.172        7.261        2.432      310.739       83.344        0.072      341.762       16.696      859.937
06/26/2014  22:49:00     -312.782      -68.762       -3.038      182.317      170.719       88.793    33239.601    29144.897     7884.251        8.641        3.513      320.251      100.358        0.098      341.797       16.755      859.925
06/26/2014  22:50:00     -332.523      -40.093        3.847      200.080      156.423       81.713    40032.069    24468.180     6677.038        9.167        3.559      334.931       91.863        0.075      341.796       16.755      859.962
06/26/2014  22:51:00     -487.236      -50.803      -40.132      181.520      177.834       80.962    32949.357    31624.827     6554.875       15.635        3.556      489.878       89.269        0.033      341.827       16.806      859.997
06/26/2014  22:52:00     -377.172      -43.394      -24.111      156.224      118.257       64.127    24405.950    13984.757     4112.326        9.361        2.125      379.661       80.857        0.045      341.782       16.728      860.000
06/26/2014  22:53:00     -359.253      -76.562      -13.785      190.720      113.495       84.733    36374.208    12881.078     7179.762        9.577        2.822      367.321      106.827        0.085      341.791       16.745      859.990
06/26/2014  22:54:00     -332.535      -94.309      -12.269      202.707      130.577       78.322    41090.117    17050.377     6134.329        9.194        3.214      345.650       90.778        0.069      341.763       16.697      860.000
06/26/2014  22:55:00     -285.135      -81.354      -13.149      121.808      120.175       65.781    14837.311    14441.995     4327.203        6.084        1.680      296.514       47.891        0.026      341.801       16.762      860.017
06/26/2014  22:56:00     -276.873      -40.469      -24.003       70.500      116.253       58.997     4970.204    13514.869     3480.629        5.042        1.098      279.815       55.019        0.039      341.796       16.751      860.026
06/26/2014  22:57:00     -156.286      -11.549       -3.073       96.510       87.126       40.676     9314.240     7590.942     1654.555        2.156        0.928      156.712       33.792        0.046      341.788       16.741      860.059
06/26/2014  22:58:00     -298.147       -4.930      -33.469       95.463       79.084       50.593     9113.152     6254.240     2559.669        5.398        0.896      298.187       49.858        0.028      341.762       16.697      860.050
06/26/2014  22:59:00     -260.104      -38.598      -18.715       87.167       89.264       55.166     7598.019     7968.131     3043.285        4.405        0.930      262.952       50.368        0.037      341.738       16.657      860.036
06/26/2014  23:00:00     -409.227       34.276      -21.370      152.424      121.569       62.230    23233.056    14779.000     3872.531       10.548        2.094      410.660       66.189        0.026      341.736       16.651      860.011
06/26/2014  23:01:00     -314.479      -67.800       -5.568      133.198       87.603       60.191    17741.639     7674.363     3622.960        6.628        1.452      321.705       64.647        0.040      341.727       16.636      859.989
06/26/2014  23:02:00     -358.135      -70.508      -25.223      136.528      103.091       65.457    18639.915    10627.794     4284.602        8.370        1.678      365.009       73.091        0.040      341.741       16.660      859.956
06/26/2014  23:03:00     -341.526      -73.002      -21.302      105.681      124.760       43.871    11168.408    15565.181     1924.689        7.554        1.433      349.241       41.445        0.014      341.743       16.665      859.929
06/26/2014  23:04:00     -278.969      -38.962      -14.696      109.809       86.333       53.185    12058.028     7453.403     2828.602        5.095        1.117      281.676       53.315        0.036      341.768       16.707      859.896
06/26/2014  23:05:00     -268.915      -30.895      -22.596       88.970       99.288       53.400     7915.668     9858.198     2851.568        4.720        1.031      270.684       42.808        0.025      341.776       16.719      859.899
06/26/2014  23:06:00     -315.697     -102.121      -16.512      160.968      110.069       70.562    25910.717    12115.186     4978.973        7.668        2.150      331.803       76.259        0.053      341.737       16.655      859.894
06/26/2014  23:07:00     -308.466      -56.800      -33.517      131.699       84.286       62.171    17344.669     7104.125     3865.181        6.390        1.416      313.652       66.304        0.045      341.731       16.644      859.905
06/26/2014  23:08:00     -297.332     -114.201      -18.662      116.590      108.066       57.948    13593.191    11678.216     3358.003        6.521        1.431      318.509       59.262        0.035      341.696       16.585      859.934
06/26/2014  23:09:00     -347.831      -87.602      -23.215      160.923      104.809       64.854    25896.164    10985.015     4206.015        8.514        2.054      358.692       73.209        0.042      341.684       16.566      859.948
06/26/2014  23:10:00     -367.256      -50.905      -19.484      152.974      134.616       87.034    23401.162    18121.552     7574.991        9.346        2.455      370.767       90.939        0.060      341.714       16.616      859.950
06/26/2014  23:11:00     -303.651      -83.763      -19.289      112.191      110.018       60.540    12586.819    12103.980     3665.043        6.397        1.418      314.993       56.810        0.033      341.709       16.606      859.942
06/26/2014  23:12:00     -316.849      -41.374      -28.017      151.500      117.144       68.650    22952.240    13722.753     4712.870        7.213        2.069      319.539       71.929        0.051      341.697       16.586      859.936
06/26/2014  23:13:00     -331.350      -78.592      -30.151      125.791       84.871       53.072    15823.469     7203.017     2816.664        7.136        1.292      340.543       53.512        0.025      341.690       16.574      859.951
06/26/2014  23:14:00     -343.203      -77.758      -21.474      160.257      105.121       67.469    25682.454    11050.380     4552.058        8.278        2.064      351.901       72.531        0.042      341.653       16.513      859.961
06/26/2014  23:15:00     -343.921      -56.300      -21.950      121.856       97.183       62.335    14848.967     9444.520     3885.645        7.505        1.409      348.499       57.534        0.027      341.674       16.548      859.953
06/26/2014  23:16:00     -281.600      -37.291      -18.697       97.447       92.771       52.541     9495.867     8606.478     2760.573        5.095        1.043      284.058       48.014        0.029      341.683       16.564      859.919
06/26/2014  23:17:00     -339.628      -41.908      -13.342      155.086       95.887       68.212    24051.646     9194.350     4652.887        7.758        1.895      342.204       75.766        0.049      341.646       16.500      859.899
06/26/2014  23:18:00     -339.831      -53.796      -32.549      156.944      138.040       52.166    24631.350    19055.135     2721.260        8.292        2.320      344.062       51.684        0.023      341.681       16.561      859.887
06/26/2014  23:19:00     -408.908      -46.224      -29.079      186.861      167.615       72.944    34917.129    28094.827     5320.875       11.925        3.417      411.513       76.717        0.035      341.695       16.582      859.887
06/26/2014  23:20:00     -272.925      -23.549       -9.836      133.362       96.959       68.835    17785.388     9401.140     4738.288        5.353        1.596      273.939       67.707        0.061      341.711       16.609      859.891
06/26/2014  23:21:00     -246.924      -68.945       -9.883      145.533      107.612       63.145    21179.870    11580.376     3987.314        5.128        1.837      256.369       69.370        0.073      341.649       16.506      859.898
06/26/2014  23:22:00     -285.290      -64.769      -14.543      101.517       92.826       48.360    10305.790     8616.758     2338.649        5.353        1.063      292.550       42.003        0.021      341.667       16.538      859.898
06/26/2014  23:23:00     -207.749     -105.586        1.736      124.308      124.352       61.050    15452.467    15463.543     3727.047        4.447        1.732      233.041       55.420        0.057      341.703       16.598      859.858
06/26/2014  23:24:00     -288.698      -98.074      -21.637      123.584       89.329       57.899    15273.045     7979.678     3352.316        6.001        1.330      304.902       40.794        0.018      341.686       16.566      859.845
06/26/2014  23:25:00     -322.460      -84.831      -35.395       92.885      104.238       47.286     8627.667    10865.586     2235.953        6.708        1.086      333.432       36.240        0.012      341.687       16.570      859.809
06/26/2014  23:26:00     -221.115      -76.889      -23.579      101.685      107.174       53.598    10339.834    11486.369     2872.734        4.003        1.235      234.102       39.217        0.028      341.699       16.591      859.799
06/26/2014  23:27:00     -232.578      -57.821      -19.305       78.139       78.270       50.810     6105.776     6126.150     2581.637        3.631        0.741      239.658       25.743        0.012      341.701       16.593      859.790
06/26/2014  23:28:00     -282.674     -118.516      -25.174      117.564       84.949       59.639    13821.224     7216.257     3556.776        5.959        1.230      306.514       44.435        0.021      341.646       16.499      859.811
06/26/2014  23:29:00     -351.776      -81.496      -25.893      118.443       85.280       63.654    14028.746     7272.612     4051.774        7.820        1.268      361.093       66.397        0.034      341.685       16.565      859.843
06/26/2014  23:30:00     -375.245        2.380      -33.962      122.704      102.262       55.451    15056.316    10457.548     3074.804        8.527        1.429      375.252       62.809        0.028      341.748       16.673      859.893
06/26/2014  23:31:00     -304.613      -27.204      -15.854      104.226      100.186       52.262    10862.966    10037.234     2731.296        5.870        1.182      305.826       54.844        0.032      341.705       16.600      859.915
06/26/2014  23:32:00     -334.914      -45.355       -9.412      113.267      110.913       63.272    12829.511    12301.659     4003.354        7.172        1.457      337.971       59.046        0.031      341.692       16.579      859.920
06/26/2014  23:33:00     -462.662      -73.564      -17.303      126.494      110.023       67.081    16000.827    12105.063     4499.901       12.618        1.630      468.474       66.571        0.020      341.665       16.533      859.937
06/26/2014  23:34:00     -290.025      -80.660       -7.039      127.215       96.181       47.013    16183.717     9250.704     2210.262        5.915        1.382      301.033       54.213        0.032      341.635       16.480      859.975
06/26/2014  23:35:00     -296.249      -55.431      -29.020      178.870       96.674       55.078    31994.411     9345.956     3033.601        6.802        2.219      301.390       57.284        0.036      341.729       16.640      860.009
06/26/2014  23:36:00     -358.749      -76.978      -63.008      114.733      102.947       61.993    13163.728    10598.013     3843.149        8.310        1.380      366.915       42.144        0.013      341.693       16.580      860.028
06/26/2014  23:37:00     -387.325      -73.318      -40.390      118.409       84.962       62.584    14020.741     7218.612     3916.701        9.109        1.258      394.203       63.675        0.026      341.642       16.493      860.067
06/26/2014  23:38:00     -281.518     -114.372      -13.961      126.938       98.197       66.040    16113.166     9642.568     4361.253        6.132        1.506      303.864       50.353        0.027      341.643       16.496      860.064
06/26/2014  23:39:00     -264.107      -91.201      -11.378      119.004      102.871       63.705    14162.049    10582.392     4058.273        5.350        1.440      279.411       50.818        0.033      341.614       16.444      860.091
06/26/2014  23:40:00     -260.255      -88.013      -18.454      119.721       87.898       53.624    14333.054     7726.128     2875.513        5.037        1.247      274.734       48.811        0.032      341.597       16.416      860.108
06/26/2014  23:41:00     -266.056      -96.125      -12.806      126.978      102.521       47.641    16123.538    10510.567     2269.643        5.454        1.445      282.889       43.195        0.023      341.579       16.386      860.109
06/26/2014  23:42:00     -245.536      -59.126        1.329      103.132      110.207       55.064    10636.150    12145.486     3032.067        4.480        1.291      252.555       43.292        0.029      341.650       16.507      860.082
06/26/2014  23:43:00     -328.023      -70.749      -42.634       98.821       87.062       51.942     9765.634     7579.772     2698.006        6.723        1.002      335.566       45.432        0.018      341.610       16.441      860.058
06/26/2014  23:44:00     -232.311      -72.472       -0.541      120.090       84.172       51.622    14421.584     7084.954     2664.845        4.169        1.209      243.353       57.791        0.056      341.603       16.428      860.033
06/26/2014  23:45:00     -292.972      -67.171      -23.956       85.232      102.246       44.700     7264.561    10454.262     1998.072        5.531        0.986      300.573       31.050        0.011      341.533       16.307      860.016
06/26/2014  23:46:00     -316.441      -71.362      -26.806      126.220       89.742       46.113    15931.612     8053.693     2126.378        6.602        1.306      324.388       56.634        0.030      341.502       16.254      859.988
06/26/2014  23:47:00     -256.919      -78.019      -15.935      138.243       81.260       53.976    19111.154     6603.168     2913.404        5.048        1.431      268.504       65.039        0.059      341.525       16.295      859.953
06/26/2014  23:48:00     -214.770      -89.741      -16.356      113.341       80.601       47.010    12846.169     6496.536     2209.895        3.800        1.078      232.765       41.125        0.031      341.509       16.267      859.938
06/26/2014  23:49:00     -155.316      -78.419       -4.853       90.518       74.345       47.197     8193.568     5527.208     2227.589        2.312        0.797      173.990       53.903        0.096      341.462       16.190      859.928
06/26/2014  23:50:00     -260.532      -62.390      -23.526       96.759      116.188       55.074     9362.298    13499.613     3033.114        4.910        1.295      267.899       45.608        0.029      341.484       16.224      859.923
06/26/2014  23:51:00     -139.845      -33.317        3.273       81.288       95.731       46.182     6607.754     9164.344     2132.755        1.929        0.895      143.759       42.506        0.087      341.442       16.154      859.903
06/26/2014  23:52:00     -178.231      -30.017       -7.750       69.775       68.202       46.586     4868.496     4651.535     2170.300        2.221        0.585      180.741       30.333        0.028      341.491       16.237      859.890
06/26/2014  23:53:00     -106.502       48.573      -22.522       87.880       66.609       35.370     7722.916     4436.788     1251.007        1.381        0.671      117.055       35.151        0.090      341.551       16.341      859.886
06/26/2014  23:54:00     -186.602      -24.720       -6.326      119.008      134.531       52.119    14163.012    18098.597     2716.367        3.522        1.749      188.232       38.321        0.041      341.449       16.165      859.884
06/26/2014  23:55:00     -398.520      -43.739      -37.670      110.229      119.208       62.864    12150.405    14210.561     3951.823        9.623        1.516      400.913       59.397        0.022      341.378       16.046      859.898
06/26/2014  23:56:00     -310.180      -80.917      -24.523      113.993       95.530       53.165    12994.301     9126.030     2826.560        6.415        1.247      320.561       42.619        0.018      341.424       16.123      859.902
06/26/2014  23:57:00     -382.429     -121.892      -20.306      103.798       88.829       58.626    10773.950     7890.562     3436.955        9.181        1.105      401.385       57.313        0.020      341.319       15.945      859.909
06/26/2014  23:58:00     -341.957     -100.432      -16.012      123.681       93.433       63.706    15297.044     8729.709     4058.439        7.768        1.404      356.401       64.818        0.033      341.342       15.984      859.916
06/26/2014  23:59:00     -327.260      -72.402      -23.308      143.119       96.947       67.581    20483.016     9398.685     4567.142        7.366        1.722      335.173       78.787        0.055      341.334       15.972      859.931
